[[{"header":{"parameterUnit":"m.s-1","parameterCategory":1,"la1":30.6,"la2":29.2853,"lo1":-89.7004,"lo2":-87.6739,"dy":0.0162,"dx":0.0183,"nx":112,"ny":82,"refTime":"2024-10-05T12:00:00:Z","depth":0,"parameterNumber":2,"parameterNumberName":"U-component_of_WINDS"},"data":[0.0,0.0,0.0,0.0,0.0,0.0,0.0,0.0,0.0,0.0,0.0,0.0,0.0,0.0,0.0,0.0,0.0,0.0,0.0,0.0,0.0,0.0,0.0,0.0,0.0,0.0,0.0,0.0,0.0,0.0,0.0,0.0,0.0,0.0,0.0,0.0,0.0,0.0,0.0,0.0,0.0,0.0,0.0,0.0,0.0,0.0,0.0,0.0,0.0,0.0,0.0,0.0,0.0,0.0,0.0,0.0,0.0,0.0,0.0,0.0,0.0,0.0,0.0,0.0,0.0,0.0,0.0,0.0,0.0,0.0,0.0,0.0,0.0,0.0,0.0,0.0,0.0,0.0,0.0,0.0,0.0,0.0,0.0,0.0,0.0,0.0,0.0,0.0,0.0,0.0,4.8651,5.1176,5.1789,5.2004,5.1997,5.0473,4.847,4.6042,0.0,0.0,0.0,0.0,0.0,0.0,0.0,0.0,0.0,0.0,0.0,0.0,0.0,0.0,0.0,0.0,0.0,0.0,0.0,0.0,0.0,0.0,0.0,0.0,0.0,0.0,0.0,0.0,0.0,0.0,0.0,0.0,0.0,0.0,0.0,0.0,0.0,0.0,0.0,0.0,0.0,0.0,0.0,0.0,0.0,0.0,0.0,0.0,0.0,0.0,0.0,0.0,0.0,0.0,0.0,0.0,0.0,0.0,0.0,0.0,0.0,0.0,0.0,0.0,0.0,0.0,0.0,0.0,0.0,0.0,0.0,0.0,0.0,0.0,0.0,0.0,0.0,0.0,0.0,0.0,0.0,0.0,0.0,0.0,0.0,0.0,0.0,0.0,0.0,0.0,0.0,0.0,0.0,0.0,0.0,0.0,0.0,0.0,0.0,0.0,0.0,0.0,0.0,0.0,4.9065,5.2659,5.1969,5.1453,5.1962,5.0473,4.847,4.6042,0.0,0.0,0.0,0.0,0.0,0.0,0.0,0.0,0.0,0.0,0.0,0.0,0.0,0.0,0.0,0.0,0.0,0.0,0.0,0.0,0.0,0.0,0.0,0.0,0.0,0.0,0.0,0.0,0.0,0.0,0.0,0.0,0.0,0.0,0.0,0.0,0.0,0.0,0.0,0.0,0.0,0.0,0.0,0.0,0.0,0.0,0.0,0.0,0.0,0.0,0.0,0.0,0.0,0.0,0.0,0.0,0.0,0.0,0.0,0.0,0.0,0.0,0.0,0.0,0.0,0.0,0.0,0.0,0.0,0.0,0.0,0.0,0.0,0.0,0.0,0.0,0.0,0.0,0.0,0.0,0.0,0.0,0.0,0.0,0.0,0.0,0.0,0.0,0.0,0.0,0.0,0.0,0.0,0.0,0.0,0.0,0.0,0.0,0.0,0.0,0.0,0.0,0.0,4.9091,5.0686,5.3693,5.2617,5.1733,5.1889,5.0427,4.8263,4.5378,4.4819,0.0,0.0,0.0,0.0,0.0,0.0,0.0,0.0,0.0,0.0,0.0,0.0,0.0,0.0,0.0,0.0,0.0,0.0,0.0,0.0,0.0,0.0,0.0,0.0,0.0,0.0,0.0,0.0,0.0,0.0,0.0,0.0,0.0,0.0,0.0,0.0,0.0,0.0,0.0,0.0,0.0,0.0,0.0,0.0,0.0,0.0,0.0,0.0,0.0,0.0,0.0,0.0,0.0,0.0,0.0,0.0,0.0,0.0,0.0,0.0,0.0,0.0,0.0,0.0,0.0,0.0,0.0,0.0,0.0,0.0,0.0,0.0,0.0,0.0,0.0,0.0,0.0,0.0,0.0,0.0,0.0,0.0,0.0,0.0,0.0,0.0,0.0,0.0,0.0,0.0,0.0,0.0,0.0,0.0,0.0,0.0,0.0,0.0,0.0,0.0,0.0,0.0,5.1411,5.2099,5.4038,5.2999,5.1997,5.1637,4.9922,4.77,4.4813,4.429,0.0,0.0,0.0,0.0,0.0,0.0,0.0,0.0,0.0,0.0,0.0,0.0,0.0,0.0,0.0,0.0,0.0,0.0,0.0,0.0,0.0,0.0,0.0,0.0,0.0,0.0,0.0,0.0,0.0,0.0,0.0,0.0,0.0,0.0,0.0,0.0,0.0,0.0,0.0,0.0,0.0,0.0,0.0,0.0,0.0,0.0,0.0,0.0,0.0,0.0,0.0,0.0,0.0,0.0,0.0,0.0,0.0,0.0,0.0,0.0,0.0,0.0,0.0,0.0,0.0,0.0,0.0,0.0,0.0,0.0,0.0,0.0,0.0,0.0,0.0,0.0,0.0,0.0,0.0,0.0,0.0,0.0,0.0,0.0,0.0,0.0,0.0,0.0,0.0,0.0,0.0,0.0,0.0,0.0,0.0,0.0,0.0,0.0,0.0,0.0,0.0,0.0,5.1306,5.2479,5.3391,5.2605,5.1722,5.1012,4.8648,4.6483,4.4885,4.3322,0.0,0.0,0.0,0.0,0.0,0.0,0.0,0.0,0.0,0.0,0.0,0.0,0.0,0.0,0.0,0.0,0.0,0.0,0.0,0.0,0.0,0.0,0.0,0.0,0.0,0.0,0.0,0.0,0.0,0.0,0.0,0.0,0.0,0.0,0.0,0.0,0.0,0.0,0.0,0.0,0.0,0.0,0.0,0.0,0.0,0.0,0.0,0.0,0.0,0.0,0.0,0.0,0.0,0.0,0.0,0.0,0.0,0.0,0.0,0.0,0.0,0.0,0.0,0.0,0.0,0.0,0.0,0.0,0.0,0.0,0.0,0.0,0.0,0.0,0.0,0.0,0.0,0.0,0.0,0.0,0.0,0.0,0.0,0.0,0.0,0.0,0.0,0.0,0.0,0.0,0.0,0.0,0.0,0.0,0.0,0.0,0.0,0.0,0.0,0.0,0.0,0.0,5.0747,5.2168,0.0,5.3371,5.2505,5.1531,5.0093,4.7958,4.4875,0.0,0.0,0.0,0.0,0.0,0.0,0.0,0.0,0.0,0.0,0.0,0.0,0.0,0.0,0.0,0.0,0.0,0.0,0.0,0.0,0.0,0.0,0.0,0.0,0.0,0.0,0.0,0.0,0.0,0.0,0.0,0.0,0.0,0.0,0.0,0.0,0.0,0.0,0.0,0.0,0.0,0.0,0.0,0.0,0.0,0.0,0.0,0.0,0.0,0.0,0.0,0.0,0.0,0.0,0.0,0.0,0.0,0.0,0.0,0.0,0.0,0.0,0.0,0.0,0.0,0.0,0.0,0.0,0.0,0.0,0.0,0.0,0.0,0.0,0.0,0.0,0.0,0.0,0.0,0.0,0.0,0.0,0.0,0.0,0.0,0.0,0.0,0.0,0.0,0.0,0.0,0.0,0.0,0.0,0.0,0.0,0.0,0.0,0.0,0.0,0.0,0.0,4.9142,5.0837,5.2341,0.0,5.3576,5.2721,5.1471,5.0165,4.8028,4.4791,0.0,0.0,0.0,0.0,0.0,0.0,0.0,0.0,0.0,0.0,0.0,0.0,0.0,0.0,0.0,0.0,0.0,0.0,0.0,0.0,0.0,0.0,0.0,0.0,0.0,0.0,0.0,0.0,0.0,0.0,0.0,0.0,0.0,0.0,0.0,0.0,0.0,0.0,0.0,0.0,0.0,0.0,0.0,0.0,0.0,0.0,0.0,0.0,0.0,0.0,0.0,0.0,0.0,0.0,0.0,0.0,0.0,0.0,0.0,0.0,0.0,0.0,0.0,0.0,0.0,0.0,0.0,0.0,0.0,0.0,0.0,0.0,0.0,0.0,0.0,0.0,0.0,0.0,0.0,0.0,0.0,0.0,0.0,0.0,0.0,0.0,0.0,0.0,0.0,0.0,0.0,0.0,0.0,0.0,0.0,0.0,0.0,0.0,0.0,0.0,0.0,0.0,4.9389,5.1699,5.3114,5.3114,5.2999,5.2217,5.0545,4.8211,4.6191,0.0,0.0,0.0,0.0,0.0,0.0,0.0,0.0,0.0,0.0,0.0,0.0,0.0,0.0,0.0,0.0,0.0,0.0,0.0,0.0,0.0,0.0,0.0,0.0,0.0,0.0,0.0,0.0,0.0,0.0,0.0,0.0,0.0,0.0,0.0,0.0,0.0,0.0,0.0,0.0,0.0,0.0,0.0,0.0,0.0,0.0,0.0,0.0,0.0,0.0,0.0,0.0,0.0,0.0,0.0,0.0,0.0,0.0,0.0,0.0,0.0,0.0,0.0,0.0,0.0,0.0,0.0,0.0,0.0,0.0,0.0,0.0,0.0,0.0,0.0,0.0,0.0,0.0,0.0,0.0,0.0,0.0,0.0,0.0,0.0,0.0,0.0,0.0,0.0,0.0,0.0,0.0,0.0,0.0,0.0,0.0,0.0,0.0,0.0,0.0,0.0,0.0,0.0,4.9809,5.176,5.3096,5.3651,5.3687,5.3002,5.1335,5.0048,4.7969,4.4784,0.0,0.0,0.0,0.0,0.0,0.0,0.0,0.0,0.0,0.0,0.0,0.0,0.0,0.0,0.0,0.0,0.0,0.0,0.0,0.0,0.0,0.0,0.0,0.0,0.0,0.0,0.0,0.0,0.0,0.0,0.0,0.0,0.0,0.0,0.0,0.0,0.0,0.0,0.0,0.0,0.0,0.0,0.0,0.0,0.0,0.0,0.0,0.0,0.0,0.0,0.0,0.0,0.0,0.0,0.0,0.0,0.0,0.0,0.0,0.0,0.0,0.0,0.0,0.0,0.0,0.0,0.0,0.0,0.0,0.0,0.0,0.0,0.0,0.0,0.0,0.0,0.0,0.0,0.0,0.0,0.0,0.0,0.0,0.0,0.0,0.0,0.0,0.0,0.0,0.0,0.0,0.0,0.0,0.0,0.0,0.0,0.0,0.0,0.0,0.0,0.0,0.0,5.0079,5.2276,5.3772,5.4257,5.4053,5.3195,5.1521,5.0699,4.8761,4.5244,0.0,0.0,0.0,0.0,0.0,0.0,0.0,0.0,0.0,0.0,0.0,0.0,0.0,0.0,0.0,0.0,0.0,0.0,0.0,0.0,0.0,0.0,0.0,0.0,0.0,0.0,0.0,0.0,0.0,0.0,0.0,0.0,0.0,0.0,0.0,0.0,0.0,0.0,0.0,0.0,0.0,0.0,0.0,0.0,0.0,0.0,0.0,0.0,0.0,0.0,0.0,0.0,0.0,0.0,0.0,0.0,0.0,0.0,0.0,0.0,0.0,0.0,0.0,0.0,0.0,0.0,0.0,0.0,0.0,0.0,0.0,0.0,0.0,0.0,0.0,0.0,0.0,0.0,0.0,0.0,0.0,0.0,0.0,0.0,0.0,0.0,0.0,0.0,0.0,0.0,0.0,0.0,0.0,0.0,0.0,0.0,0.0,0.0,0.0,0.0,0.0,0.0,5.0346,5.3047,5.478,5.478,5.4168,5.3108,5.1454,5.0574,4.8891,4.6068,0.0,0.0,0.0,0.0,0.0,0.0,0.0,0.0,0.0,0.0,0.0,0.0,0.0,0.0,0.0,0.0,0.0,0.0,0.0,0.0,0.0,0.0,0.0,0.0,0.0,0.0,0.0,0.0,0.0,0.0,0.0,0.0,0.0,0.0,0.0,0.0,0.0,0.0,0.0,0.0,0.0,0.0,0.0,0.0,0.0,0.0,0.0,0.0,0.0,0.0,0.0,0.0,0.0,0.0,0.0,0.0,0.0,0.0,0.0,0.0,4.4044,0.0,0.0,0.0,0.0,0.0,0.0,0.0,0.0,0.0,0.0,0.0,0.0,0.0,0.0,0.0,0.0,0.0,0.0,0.0,0.0,0.0,0.0,0.0,0.0,0.0,0.0,0.0,0.0,0.0,0.0,0.0,0.0,0.0,0.0,0.0,0.0,0.0,0.0,0.0,0.0,0.0,5.1536,5.3509,5.4635,5.4635,5.4491,5.3763,5.2198,5.0853,4.9323,4.7549,4.55,0.0,0.0,0.0,0.0,0.0,0.0,0.0,0.0,0.0,0.0,0.0,0.0,0.0,0.0,0.0,0.0,0.0,0.0,0.0,0.0,0.0,0.0,0.0,0.0,0.0,0.0,0.0,0.0,0.0,0.0,0.0,0.0,0.0,0.0,0.0,0.0,0.0,0.0,0.0,0.0,0.0,0.0,0.0,0.0,0.0,0.0,0.0,0.0,0.0,0.0,0.0,0.0,0.0,0.0,0.0,0.0,0.0,0.0,0.0,0.0,4.5678,0.0,0.0,0.0,0.0,0.0,0.0,0.0,0.0,0.0,0.0,0.0,0.0,0.0,0.0,0.0,0.0,0.0,0.0,0.0,0.0,0.0,0.0,0.0,0.0,0.0,0.0,0.0,0.0,0.0,0.0,0.0,0.0,0.0,0.0,0.0,0.0,0.0,0.0,0.0,0.0,5.1961,5.3957,5.5277,5.5624,5.5015,5.4135,5.2976,5.1826,5.0371,4.8537,4.7022,0.0,0.0,0.0,0.0,0.0,0.0,0.0,0.0,0.0,0.0,0.0,0.0,0.0,0.0,0.0,0.0,0.0,0.0,0.0,0.0,0.0,0.0,0.0,0.0,0.0,0.0,0.0,0.0,0.0,0.0,0.0,0.0,0.0,0.0,0.0,0.0,0.0,0.0,0.0,0.0,0.0,0.0,0.0,0.0,0.0,0.0,0.0,0.0,0.0,0.0,0.0,0.0,0.0,4.9005,4.918,4.8688,4.8455,4.9297,5.0809,4.9509,4.9377,4.9882,4.6823,0.0,0.0,0.0,0.0,0.0,0.0,0.0,0.0,0.0,0.0,0.0,0.0,0.0,0.0,0.0,0.0,0.0,0.0,0.0,0.0,0.0,0.0,0.0,0.0,5.1108,5.2063,0.0,0.0,0.0,0.0,0.0,0.0,0.0,0.0,0.0,0.0,0.0,0.0,5.2401,5.4558,5.6147,5.6731,5.559,5.4499,5.3754,5.2841,5.1522,4.9687,4.8766,4.7752,0.0,0.0,0.0,0.0,0.0,0.0,0.0,0.0,0.0,0.0,0.0,0.0,0.0,0.0,0.0,0.0,0.0,0.0,0.0,0.0,0.0,0.0,0.0,0.0,0.0,0.0,0.0,0.0,0.0,0.0,0.0,0.0,4.7045,4.6671,0.0,0.0,0.0,0.0,0.0,0.0,0.0,0.0,0.0,0.0,0.0,0.0,0.0,4.7884,4.7445,4.9013,5.0037,5.0545,5.257,5.3479,5.3438,5.4167,5.4329,5.4042,5.4432,0.0,5.0923,4.9836,0.0,0.0,0.0,0.0,0.0,0.0,0.0,0.0,0.0,0.0,0.0,0.0,0.0,0.0,0.0,0.0,0.0,0.0,0.0,0.0,0.0,0.0,5.4921,5.4718,5.4955,5.5124,0.0,5.1547,4.8571,4.765,4.7549,0.0,0.0,0.0,0.0,0.0,0.0,0.0,5.4,5.5683,5.6697,5.6799,5.6046,5.5268,5.4507,5.3112,5.2198,5.1894,5.0574,4.9737,4.9534,4.747,0.0,0.0,0.0,0.0,0.0,0.0,0.0,0.0,0.0,0.0,0.0,0.0,0.0,0.0,0.0,0.0,0.0,0.0,0.0,0.0,0.0,0.0,0.0,0.0,0.0,0.0,0.0,0.0,0.0,4.6286,4.7627,4.7352,4.7679,4.7352,0.0,0.0,0.0,0.0,0.0,0.0,0.0,0.0,0.0,4.9278,5.0568,5.1466,5.1924,5.3095,5.3653,5.3661,5.4977,5.5433,5.5102,5.5491,5.5741,5.5852,5.6181,5.5572,5.4219,5.2672,5.1615,5.0939,0.0,0.0,0.0,0.0,5.0033,4.9518,5.1209,5.1251,0.0,4.9916,0.0,0.0,0.0,0.0,0.0,0.0,0.0,0.0,0.0,0.0,5.58,5.6215,5.6621,5.6934,5.6934,5.5378,5.3416,0.0,5.1378,5.0777,4.803,0.0,0.0,0.0,0.0,5.263,5.493,5.6156,5.6968,5.7383,5.6765,5.6012,5.5268,5.4228,5.3213,5.2367,5.1691,5.115,5.0744,4.9398,4.8315,0.0,0.0,0.0,0.0,0.0,0.0,0.0,0.0,0.0,0.0,0.0,0.0,0.0,0.0,0.0,0.0,0.0,0.0,0.0,0.0,0.0,0.0,0.0,0.0,0.0,0.0,0.0,0.0,4.7397,4.8587,4.833,4.9234,4.8994,0.0,0.0,0.0,0.0,0.0,0.0,4.8938,5.022,5.1287,5.2194,5.3738,5.5042,5.6027,5.6446,5.6508,5.6283,5.6722,5.6705,5.6283,5.6443,5.6756,5.7103,5.7273,5.7273,5.6934,5.5108,5.4219,5.3949,5.279,5.2351,5.2486,5.3644,5.334,5.2655,5.4921,5.4989,5.3915,5.2926,0.0,5.1378,4.9187,0.0,0.0,0.0,0.0,5.2655,5.3983,5.5302,5.6384,5.6934,5.7645,5.8186,5.8186,5.833,5.7654,0.0,5.4803,5.4169,5.098,0.0,0.0,0.0,0.0,5.3847,5.5741,5.663,5.7273,5.7823,5.7239,5.6587,5.6037,5.5141,5.4101,5.2942,5.2706,5.2469,5.2089,5.1352,5.0616,4.9864,0.0,0.0,0.0,0.0,0.0,0.0,0.0,0.0,0.0,0.0,0.0,0.0,0.0,0.0,0.0,0.0,0.0,0.0,0.0,0.0,0.0,0.0,0.0,0.0,0.0,0.0,0.0,0.0,0.0,5.0081,5.1479,0.0,0.0,0.0,0.0,5.0944,5.0288,5.1014,5.3695,5.4047,5.456,5.543,5.6765,5.7586,5.7776,5.7123,5.7148,5.7789,5.7825,5.7825,5.7823,5.8515,5.8481,5.7891,5.8583,5.8481,5.7789,5.6968,5.6215,5.5564,5.5496,5.5462,5.5496,5.5564,5.553,5.5496,5.5665,5.5665,5.5699,5.6316,5.5108,5.3374,5.3213,5.2156,0.0,0.0,5.4355,5.5665,5.6427,5.7205,5.7789,5.7823,5.8423,5.8955,5.8955,5.9496,5.9336,0.0,5.6664,5.619,5.4575,0.0,5.4372,5.4372,5.5031,5.58,5.663,5.7383,5.7857,5.7891,5.7239,5.6799,5.6765,5.5421,5.4575,5.4473,5.3822,5.3754,5.4406,5.3721,5.2942,5.2164,4.9965,0.0,0.0,0.0,0.0,0.0,0.0,0.0,0.0,0.0,0.0,0.0,0.0,0.0,0.0,0.0,0.0,0.0,0.0,0.0,0.0,0.0,0.0,0.0,0.0,0.0,0.0,0.0,0.0,5.2463,5.3924,0.0,5.2436,5.1946,5.2346,5.3774,5.3751,5.4441,5.63,5.7008,5.7489,5.7805,5.8762,5.9281,5.9312,5.9066,5.9066,5.9302,5.9302,5.9302,5.9302,5.9607,5.9573,5.9336,5.9607,5.9573,5.9302,5.9032,5.822,5.7103,5.7103,5.7103,5.7103,5.7103,5.7103,5.7103,5.7103,5.7103,5.707,5.6867,5.5944,5.4921,5.4921,5.4862,5.493,5.5471,5.6325,5.7171,5.7451,5.8051,5.8616,5.8616,5.9158,5.9699,5.9699,5.9902,5.9877,5.9066,5.893,5.8457,5.6977,5.7103,5.7273,5.6808,5.6934,5.7374,5.8109,5.8017,5.7891,5.7891,5.7654,5.7315,5.6833,5.5877,5.5108,5.4642,5.3923,5.3619,5.389,5.4101,5.3856,5.3078,5.1792,4.9789,0.0,0.0,0.0,0.0,0.0,0.0,0.0,0.0,0.0,0.0,0.0,0.0,0.0,0.0,0.0,0.0,0.0,0.0,0.0,0.0,0.0,0.0,0.0,0.0,0.0,5.2186,5.4149,5.4143,5.5863,5.6422,5.4895,5.5107,5.5849,5.7075,5.7145,5.7758,5.911,5.9318,5.9496,5.9766,6.024,6.0622,6.0858,6.0622,6.052,6.052,6.052,6.052,6.052,6.052,6.052,6.052,6.052,6.0351,6.0114,6.0385,5.9776,5.8635,5.8635,5.8635,5.8635,5.8635,5.8635,5.8635,5.8635,5.85,5.8186,5.7703,5.7027,5.6452,5.6452,5.6799,5.7171,5.7171,5.7518,5.7958,5.822,5.8616,5.9056,5.9327,5.9936,6.052,6.052,6.0689,6.0892,6.0892,6.0452,5.9776,5.8804,5.9066,5.9191,5.8736,5.8432,5.8457,5.8955,5.8355,5.7891,5.7891,5.7891,5.7586,5.6867,5.6114,5.5403,5.4642,5.3923,5.3619,5.3856,5.4338,5.4372,5.389,5.2841,5.1352,4.9375,0.0,0.0,0.0,0.0,0.0,0.0,0.0,0.0,0.0,0.0,0.0,0.0,0.0,0.0,0.0,0.0,0.0,0.0,0.0,0.0,0.0,0.0,0.0,5.088,5.3337,5.5256,5.5175,5.7311,5.8104,5.6364,5.8348,6.0031,6.0797,6.0333,6.0696,6.22,6.0966,6.052,6.1298,6.1366,6.1704,6.2424,6.1738,6.14,6.14,6.14,6.14,6.1366,6.14,6.14,6.1366,6.14,6.096,6.0317,6.1095,6.0926,6.0216,6.0148,6.0114,6.0114,6.0114,6.0114,6.0114,6.0114,5.9631,5.9013,5.9013,5.8558,5.7958,5.7958,5.7958,5.7958,5.7958,5.7958,5.8127,5.8853,5.9047,5.9259,5.9979,6.0757,6.1332,6.1332,6.1917,6.2391,6.2391,6.1197,6.0216,6.0182,6.0182,6.0182,6.0182,5.953,0.0,5.9081,5.8423,5.7924,5.7924,5.7924,5.762,5.69,5.6147,5.5437,5.4676,5.3923,5.3856,5.4575,5.4609,5.4642,5.4676,5.3154,5.2367,5.2367,0.0,0.0,0.0,0.0,0.0,0.0,0.0,0.0,0.0,0.0,0.0,0.0,0.0,0.0,0.0,0.0,0.0,0.0,0.0,0.0,0.0,5.1414,5.3705,5.3223,5.6676,5.9076,5.8608,6.0168,6.1101,6.0555,6.0198,6.0488,6.1702,6.1274,6.1329,6.2262,6.1943,6.1883,6.2086,6.2608,6.298,6.3183,6.3531,6.37,6.37,6.37,6.3429,6.2912,6.3463,6.3386,6.2912,6.3463,6.3565,6.3396,6.3599,6.3565,6.3159,6.096,6.0114,6.0114,6.0114,6.0114,6.0114,6.0114,5.9979,5.98,5.98,5.9674,5.9515,5.9515,5.9515,5.9515,5.9515,5.9515,5.9539,5.9742,6.024,6.0714,6.0926,6.1535,6.212,6.212,6.2255,6.2391,6.2391,6.2482,6.2405,6.1849,6.1782,6.1782,6.1782,6.1129,0.0,6.068,5.9496,5.8684,5.8684,5.8229,5.7823,5.762,5.6934,5.6181,5.5437,5.4702,5.4406,5.4575,5.5099,5.564,5.619,5.4735,5.3966,0.0,0.0,0.0,0.0,0.0,0.0,0.0,0.0,0.0,0.0,0.0,0.0,0.0,0.0,0.0,0.0,0.0,0.0,0.0,0.0,0.0,0.0,5.3994,5.6297,5.6585,5.909,6.0757,6.0475,6.1533,6.2242,6.2182,6.1496,6.1505,6.2606,6.2117,6.2051,6.2784,6.2842,6.2854,6.2854,6.3589,6.3961,6.3961,6.4377,6.4613,6.4613,6.4613,6.4377,6.3994,6.441,6.4377,6.3994,6.44,6.4613,6.4613,6.4613,6.4613,0.0,0.0,0.0,0.0,0.0,6.1071,6.1071,6.1071,6.0858,6.0588,6.0588,6.0385,6.0114,6.0114,6.0114,6.0114,6.0114,6.0114,6.0182,6.052,6.096,6.1366,6.167,6.2313,6.2854,6.2854,6.2854,6.2956,6.327,6.3419,0.0,6.3328,6.3067,6.2854,6.2854,6.1975,6.1298,6.1298,6.0206,5.9462,5.9462,5.9066,5.8693,5.8389,5.7679,0.0,0.0,0.0,5.5209,5.5513,5.5944,0.0,0.0,0.0,0.0,0.0,0.0,0.0,0.0,5.953,5.9665,0.0,0.0,0.0,0.0,0.0,0.0,0.0,0.0,0.0,0.0,0.0,0.0,0.0,0.0,0.0,0.0,5.7054,5.9195,6.0116,6.0782,6.1171,6.1209,6.1884,6.2311,6.2235,6.2279,6.2595,6.3258,6.2812,6.2804,6.3483,0.0,0.0,0.0,0.0,6.4715,6.4715,6.4816,6.485,6.485,6.485,6.4816,6.4715,6.4816,6.4816,6.4715,6.4816,6.485,6.485,6.485,6.485,6.485,6.4647,6.4197,6.3521,6.2787,6.2526,6.2526,6.2424,0.0,0.0,6.1434,6.0926,6.0351,6.0351,6.0351,6.0351,6.0351,6.0351,6.0554,6.1332,6.1559,6.1738,6.2458,6.3159,6.3612,6.3612,6.3612,6.3825,6.4478,6.413,6.3961,6.4613,6.4096,6.3612,6.3612,6.2439,6.1559,6.1559,6.0791,6.025,6.025,0.0,0.0,5.9317,5.866,5.7958,5.7205,5.6553,5.6511,5.7273,5.7408,5.8727,6.1492,6.0926,6.2313,6.5808,6.6079,6.6542,6.7106,6.3091,6.2584,0.0,0.0,0.0,0.0,0.0,0.0,0.0,0.0,0.0,0.0,0.0,0.0,0.0,0.0,0.0,5.5111,5.7944,6.0115,6.0946,6.1686,6.1919,6.1334,6.2437,6.2993,6.2427,6.2362,6.2445,6.2565,6.3032,6.3354,6.3478,6.4051,6.4377,6.4377,6.5097,6.5503,6.5503,6.6068,6.6362,6.6362,0.0,0.0,6.5503,6.6092,6.6068,6.5537,6.6136,6.6362,6.6362,6.6362,6.6362,6.6261,6.5053,6.4512,6.4309,6.3555,6.3284,6.3183,6.2627,6.2323,6.2188,6.2188,6.2086,6.1951,6.1951,6.1951,0.0,6.1951,6.1951,6.211,6.2878,6.3071,6.325,6.4005,6.4275,6.4377,6.4377,6.4377,6.4444,6.458,6.4952,6.5334,6.5469,6.4884,6.4377,6.4377,6.3622,6.3071,6.3071,6.1897,6.1061,6.1061,6.1061,6.1028,6.0883,6.0714,6.0317,5.9505,5.9336,5.9607,6.0419,6.0994,6.1873,6.3047,6.3521,6.4671,6.6599,6.8436,6.9394,6.953,6.865,6.7906,0.0,0.0,0.0,0.0,0.0,0.0,0.0,0.0,0.0,0.0,0.0,5.0154,5.1475,0.0,5.5856,5.8079,5.9732,6.1103,6.2226,6.2406,6.2255,6.1883,6.2512,6.2803,6.243,6.2719,6.2956,6.2956,6.3622,6.4062,6.4062,6.4749,6.5165,6.5165,6.5865,6.6237,6.6237,6.6633,6.6802,6.6802,6.6802,6.6599,6.6271,6.6633,6.6599,6.6271,6.6633,6.6802,6.6802,6.6802,6.6802,6.6734,6.599,6.5493,6.5063,6.4333,6.4062,6.3994,6.3632,6.326,6.2956,6.2956,6.2685,6.2391,6.2391,6.2661,6.2956,6.2956,6.3226,6.3609,6.3961,6.4062,6.413,6.4512,6.4884,6.5165,6.5165,6.5165,6.5256,6.5628,6.5696,6.5808,6.6203,6.5933,6.5595,6.5222,6.4512,6.4062,6.4062,6.3429,6.2956,6.2956,6.2956,6.2956,6.2956,6.2608,6.2067,6.1308,6.124,6.1603,6.2371,6.2753,6.3825,6.5652,6.6068,6.7174,6.9068,7.0567,7.1289,7.1323,7.2056,7.1582,0.0,0.0,0.0,0.0,0.0,0.0,0.0,4.8966,5.0198,5.0552,5.234,5.4167,5.5221,5.699,5.8948,6.0906,6.1387,6.1936,6.3127,6.2774,6.2391,6.2391,6.2391,6.2458,6.2594,6.3149,6.3555,6.369,6.441,6.4816,6.4816,6.5503,6.5909,6.5909,6.6508,6.6802,6.6802,6.6802,6.6802,6.6802,6.6802,6.6802,6.6802,6.6802,6.6802,6.6802,6.6802,6.6802,6.6802,6.6802,6.6802,6.6802,6.6802,6.644,6.5831,6.5087,6.4816,6.4783,6.4647,6.4197,6.3714,6.3714,6.3217,6.2627,6.2797,6.3159,6.3511,6.3656,6.413,6.4647,6.4783,6.4816,6.485,6.4986,6.5493,6.5909,6.5909,6.5909,6.6102,6.6667,6.6305,6.6102,6.67,6.6802,6.6599,6.6011,6.53,6.4816,6.4816,6.4681,6.4613,6.4613,6.4715,6.4816,6.4816,6.4265,6.3666,6.3067,6.3033,6.3439,6.4333,6.4502,6.5855,6.8504,6.8571,6.962,7.174,7.2326,7.2766,7.3071,7.4243,7.4006,4.6431,4.704,4.7785,4.8596,4.9327,5.0595,0.0,5.3834,5.41,5.6063,5.6419,5.6776,5.8092,5.9189,6.0176,6.1143,6.183,6.2318,6.2518,6.2449,6.2391,6.2391,6.2391,6.2661,6.3318,6.3443,6.3758,6.4444,6.5155,6.5571,6.5571,6.6271,6.6667,6.6667,6.6768,6.6802,6.6802,6.6802,6.6802,6.6802,6.6802,6.6802,6.6802,6.6802,6.6802,6.6802,6.6802,6.6802,6.6802,6.6802,6.6802,6.6802,6.6802,6.6768,6.6599,6.5842,6.5571,6.5469,6.4816,6.4546,6.4478,6.4478,6.3994,6.3487,6.4174,6.3961,6.3656,6.4299,6.4546,6.4749,6.5402,6.5571,6.574,6.6396,6.6633,6.6667,6.6667,6.6667,6.67,6.6768,6.6734,6.67,6.6802,6.6802,6.6768,6.67,6.6034,6.5571,6.5571,6.503,6.4613,6.4613,6.5199,6.5571,6.5571,6.5503,6.5402,6.5334,6.5334,6.5977,6.7354,6.8098,6.9237,7.0894,7.0928,7.1684,7.3251,7.3353,7.4063,7.5337,7.5506,7.4796,4.9325,4.9725,5.0148,5.1441,5.2676,5.4011,5.5539,5.638,5.7117,5.811,5.8898,5.9589,6.0164,6.0913,6.1545,6.1883,6.2188,6.2391,6.2391,6.2391,6.2391,6.2391,6.2391,6.2695,6.3419,6.4275,6.4918,6.5233,6.5933,6.6339,6.6339,6.6633,6.6802,6.6802,6.6802,6.6802,6.6802,6.6802,6.6802,6.6802,6.6802,6.6802,6.6802,6.6802,6.6802,6.6802,6.6802,6.6802,6.6802,6.6802,6.6802,6.6802,6.6802,6.6802,6.6768,6.643,6.6339,6.6305,6.6,6.5595,6.5233,6.5233,6.4749,6.4197,6.4512,6.4681,6.485,6.5165,6.5561,6.5956,6.6271,6.6339,6.643,6.6734,6.6802,6.6802,6.6802,6.6802,6.6802,6.6802,6.6802,6.6802,6.6802,6.6802,6.6802,6.6802,6.6531,6.6339,6.6339,6.6058,6.5889,6.5889,6.6159,6.6339,6.6339,6.6339,6.6339,6.6339,6.6745,6.7466,6.8538,6.891,6.9778,7.1267,7.2157,7.2879,7.3488,7.5248,7.6229,7.642,7.6826,7.6702,5.1025,5.1511,5.2154,5.3971,5.562,5.6967,5.7592,5.8766,5.9807,5.9907,6.0825,6.1603,6.1603,6.2052,6.2391,6.2391,6.2391,6.2391,6.2391,6.2391,6.2391,6.2391,6.2594,6.299,6.3724,6.4783,6.5571,6.5977,6.6497,6.6802,6.6802,6.6802,6.6802,6.6802,6.6802,6.6802,6.6802,6.6802,6.6802,6.6802,6.6802,6.6802,6.6802,6.6802,6.6802,6.6802,6.6802,6.6802,6.6802,6.6802,6.6802,6.6802,6.6802,6.6802,6.6802,6.6802,6.6802,6.6802,6.6802,6.643,6.6011,6.6011,6.5493,6.4952,6.5155,6.5425,6.574,6.5943,6.6406,6.6802,6.6802,6.6802,6.6802,6.6802,6.6971,6.7106,6.7106,6.7275,6.7377,6.714,6.7106,6.7039,6.6836,6.6802,6.6802,6.6802,6.6802,6.6802,6.6802,6.6802,6.6802,6.6802,6.6802,6.6802,6.6802,6.7005,6.7106,6.7106,6.7827,6.8571,6.9383,6.9586,7.0286,7.1571,7.3037,7.3793,7.3827,7.6432,7.7548,7.7232,7.7942,7.8191,5.0419,5.1471,5.3152,5.5627,5.7442,5.9053,6.0679,6.165,6.2213,6.2276,6.2323,6.2357,6.2357,6.2391,6.2391,6.2391,6.2391,6.2391,6.2391,6.2391,6.2391,6.2391,6.3024,6.3758,6.4512,6.4613,6.5222,6.6667,6.6802,6.6802,6.6802,6.6802,6.6802,6.6802,6.6802,6.6802,6.6802,6.6802,6.6802,6.6802,6.6802,6.6802,6.6802,6.6802,6.6802,6.6802,6.6802,6.6802,6.6802,6.6802,6.6802,6.6802,6.6802,6.6802,6.6802,6.6802,6.6802,6.6802,6.6802,6.6802,6.6768,6.6768,6.6271,6.5808,6.6531,6.6237,6.5842,6.6565,6.6768,6.6802,6.6802,6.6802,6.6802,6.6802,6.7343,6.7861,6.7861,6.847,6.8808,6.803,6.7861,6.7658,6.6937,6.6802,6.6802,6.6802,6.6802,6.6802,6.6802,6.6802,6.6802,6.6802,6.6802,6.6802,6.6802,6.7455,6.7861,6.7861,6.8605,6.9383,7.0139,7.0861,7.1605,7.236,7.3803,7.4581,7.4581,7.6149,7.7299,7.7988,7.872,7.8686,5.3204,5.5117,5.7017,5.8258,5.9817,6.1177,6.1793,6.2158,6.2226,6.1762,6.167,6.1501,6.096,6.1298,6.167,6.167,6.2086,6.2391,6.2391,6.2821,6.2956,6.2458,6.3463,6.4343,6.458,6.5019,6.573,6.6734,6.6802,6.6802,6.6802,6.6802,6.6802,6.6802,6.6802,6.6802,6.6802,6.6802,6.6802,6.6802,6.6802,6.6802,6.6802,6.6802,6.6802,6.6802,6.6802,6.6802,6.6802,6.6802,6.6802,6.6802,6.6802,6.6802,6.6802,6.6802,6.6802,6.6802,6.6802,6.6802,6.6802,6.6802,6.6633,6.6474,6.6734,6.6633,6.6464,6.6734,6.6802,6.6802,6.6802,6.6802,6.6802,6.6802,6.7005,6.7309,6.7793,6.8098,6.8368,6.8639,6.8707,6.8605,6.8358,6.7895,6.7523,6.7523,6.7106,6.6802,6.6802,6.6802,6.6802,6.6802,6.6802,6.6802,6.6802,6.7489,6.7895,6.7895,6.9113,7.0161,7.0894,7.1165,7.1887,7.3116,7.4119,7.4852,7.5337,7.6872,7.7751,7.8022,7.8259,7.782,5.5113,5.6804,5.8349,5.9795,6.0811,6.1613,6.2195,6.2176,6.1782,6.1028,6.0452,5.9911,5.9404,5.9751,6.0351,6.1163,6.1907,6.2594,6.3101,6.3599,6.3734,6.3236,6.4005,6.4715,6.4952,6.5436,6.6011,6.6734,6.6802,6.6802,6.6802,6.6802,6.6802,6.6802,6.6802,6.6802,6.6802,6.6802,6.6802,6.6802,6.6802,6.6802,6.6802,6.6802,6.6802,6.6802,6.6802,6.6802,6.6802,6.6802,6.6802,6.6802,6.6802,6.6802,6.6802,6.6802,6.6802,6.6802,6.6802,6.6802,6.6802,6.6802,6.6802,6.6802,6.6802,6.6802,6.6802,6.6802,6.6802,6.6802,6.6802,6.6802,6.6802,6.6802,6.7005,6.7411,6.8166,6.8538,6.8876,6.9383,6.9485,6.9417,6.9147,6.8673,6.8335,6.8335,6.7929,6.7512,6.7242,6.7174,6.7106,6.6836,6.6802,6.6903,6.7174,6.7884,6.8436,6.8707,6.9891,7.0804,7.13,7.1808,7.2394,7.3082,7.4627,7.5393,7.5303,7.7109,7.7853,7.7604,7.7449,7.7091,5.6149,5.6745,5.7581,6.0273,6.0562,6.0594,6.197,6.1698,6.0926,6.0114,5.8804,5.7789,5.7721,5.7823,5.8635,6.0858,6.1907,6.2966,6.441,6.4647,6.4647,6.4613,6.4681,6.4986,6.5639,6.574,6.6045,6.6768,6.6802,6.6802,6.6802,6.6802,6.6802,6.6802,6.6802,6.6802,6.6802,6.6802,6.6802,6.6802,6.6802,6.6802,6.6802,6.6802,6.6802,6.6802,6.6802,6.6802,6.6802,6.6802,6.6802,6.6802,6.6802,6.6802,6.6802,6.6802,6.6802,6.6802,6.6802,6.6802,6.6802,6.6802,6.6802,6.6802,6.6802,6.6802,6.6802,6.6802,6.6802,6.6802,6.6802,6.6802,6.6791,6.6869,6.7377,6.8132,6.8977,6.9699,7.0206,7.024,7.0274,7.0037,6.9282,6.9147,6.9147,6.9147,6.9147,6.8876,6.8064,6.7963,6.7692,6.7005,6.6937,6.7208,6.7895,6.8707,6.9451,7.0172,7.0906,7.1334,7.1368,7.2744,7.3184,7.2529,7.5371,7.6115,7.4649,7.6777,7.7487,7.6903,7.6424,7.637,5.8095,6.0034,6.1594,6.0563,6.1039,6.1554,6.086,6.0129,5.9225,5.7915,5.6891,5.608,5.5556,5.6774,5.8432,6.0148,6.2009,6.3521,6.4478,6.5053,6.5233,6.4681,6.555,6.6102,6.574,6.6203,6.6599,6.6802,6.6802,6.6802,6.6802,6.6802,6.6802,6.6802,6.6802,6.6802,6.6802,6.6802,6.6802,6.6802,6.6802,6.6802,6.6802,6.6802,6.6802,6.6802,6.6802,6.6802,6.6802,6.6802,6.6802,6.6802,6.6802,6.6802,6.6802,6.6802,6.6802,6.6802,6.6802,6.6802,6.6802,6.6802,6.6802,6.6802,6.6802,6.6802,6.6802,6.6802,6.6802,6.6802,6.6802,6.6802,6.6937,6.7478,6.776,6.8267,6.9631,7.0071,7.0375,7.0906,7.103,7.0804,7.0037,6.9936,6.9936,6.9936,6.9936,6.9654,6.8876,6.8808,6.8707,6.8527,6.8493,6.8605,6.8774,6.9485,7.0003,7.0172,7.0906,7.1537,7.209,7.3015,7.368,7.404,7.5337,7.5811,7.5439,7.5157,7.5651,7.6869,7.5306,7.4486,5.9405,6.0796,6.1704,5.9981,6.022,6.0485,5.8997,5.8312,5.7534,5.5716,5.4727,5.4084,5.3653,5.5412,5.7645,5.9742,6.1999,6.3994,6.5381,6.5933,6.6034,6.5618,6.6294,6.6633,6.6203,6.6565,6.6937,6.7242,6.6971,6.6802,6.6802,6.6802,6.6802,6.6802,6.6802,6.6802,6.6802,6.7106,6.7106,6.6802,6.714,6.7275,6.7275,6.7647,6.7817,6.7817,0.0,6.7614,6.7275,6.7275,6.7106,6.6802,6.6802,6.7005,6.7275,6.7275,6.7512,6.7817,6.7817,6.758,6.7242,6.6903,6.6802,6.6802,6.6802,6.6802,6.6802,6.6802,6.6802,6.6869,6.7208,6.7275,6.7489,6.8233,6.8436,6.8741,6.9936,7.0206,7.0409,7.1165,7.13,7.1165,7.0737,7.0669,7.0669,7.0669,7.0669,7.0534,7.0117,6.9789,6.9451,6.9147,6.9113,6.9214,6.9553,6.9969,7.0477,7.1109,7.1233,7.1774,7.2845,7.3578,7.4187,7.4581,7.5676,7.6048,7.5709,7.5051,7.5187,7.6035,7.498,7.4261,6.0342,6.0444,6.0268,5.9192,5.8951,5.8576,5.702,5.6494,5.5784,5.3746,5.2706,5.2156,5.2156,5.4118,5.6612,5.9496,6.1965,6.4299,6.6633,6.6869,6.6836,6.6937,6.6937,6.6937,6.6937,6.7039,6.7377,6.7996,6.7478,6.7106,6.7106,6.7106,6.7106,6.7106,6.7106,6.7106,6.7106,6.776,6.776,6.7106,6.7749,6.8064,6.8098,6.8774,6.9113,6.9113,6.9113,6.8707,6.8064,6.8064,6.7681,6.7106,6.7106,6.7512,6.8064,6.8064,6.8504,6.9113,6.9113,6.8639,6.7929,6.7174,6.6869,6.6802,6.6802,6.6802,6.6836,6.6903,6.6937,6.7106,6.7861,6.8064,6.8267,6.9045,6.9248,6.9451,7.0206,7.0342,7.0545,7.1165,7.1368,7.1402,7.1334,7.1368,7.1436,7.1436,7.1368,7.1334,7.1436,7.0804,7.0094,6.9451,6.9383,6.9688,7.0443,7.0477,7.1086,7.2462,7.1954,7.2225,7.359,7.4345,7.475,7.475,7.6251,7.6657,7.5845,7.5814,7.5732,7.5663,7.524,7.4891,6.1186,6.1663,6.1736,5.9526,5.8959,5.8384,5.6356,5.4964,5.378,5.2731,5.1919,5.137,5.137,5.3737,5.6477,5.881,6.1617,6.4502,6.732,6.7174,6.7039,6.7658,6.7726,6.7726,6.7726,6.8301,6.8741,6.8876,6.8774,6.8707,6.8707,6.8707,6.8707,6.8707,6.8707,6.8707,6.8707,6.8842,6.8842,6.8696,6.8842,6.8876,6.891,6.9045,6.9113,6.9113,6.9113,0.0,6.8876,6.8876,6.8808,6.8707,6.8707,6.8774,6.8876,6.8876,6.8977,6.9113,6.9113,6.9011,6.8774,6.7963,6.7309,6.6802,6.6802,6.6802,6.6937,6.7557,6.7726,6.7895,6.8707,6.8876,6.9079,6.9834,7.0003,7.0206,7.0962,7.1097,7.1131,7.1267,7.1774,7.2022,7.1402,7.1808,7.2225,7.2225,7.1672,7.1537,7.2124,7.1582,7.1064,7.0928,7.0928,7.1233,7.1954,7.2022,7.2406,7.3251,7.3184,7.351,7.4378,7.5134,7.5506,7.5506,7.7041,7.7447,7.669,7.6358,7.7252,7.9217,7.6056,7.5203,6.2166,6.2277,6.1923,5.9591,5.8391,5.7258,5.505,5.3408,5.2089,5.1319,5.1175,5.1302,5.1716,5.3611,5.5716,5.7568,5.9394,6.1762,6.5155,6.5652,6.6193,6.7726,6.8267,6.8504,6.8504,6.8876,6.9417,7.0184,7.0252,6.9914,6.9147,6.9113,6.9113,6.9113,6.9451,6.9485,6.9113,6.9485,6.9485,6.9113,6.9485,6.9665,6.9699,7.0049,7.0252,7.0252,7.0252,7.0026,6.9665,6.9665,6.9451,6.9113,6.9113,6.9316,6.9665,6.9665,6.9925,7.0252,7.0252,6.9992,6.962,6.9225,6.8605,6.7918,6.7512,6.7647,6.7986,6.7929,6.8199,6.8707,6.9451,6.9665,6.9868,7.0601,7.077,7.0861,7.1233,7.1605,7.1875,7.1875,7.2462,7.2879,7.2496,7.2744,7.2981,7.2981,7.2665,7.2563,7.2947,7.2665,7.2157,7.1368,7.1639,7.2022,7.236,7.2732,7.3285,7.4018,7.3725,7.3996,7.5134,7.5506,7.5879,7.6318,7.7447,7.7819,7.7468,7.6645,7.6775,7.7709,7.5881,7.4925,6.2517,6.2386,6.1892,5.9753,5.8008,5.6258,5.4194,5.2427,5.1066,5.0642,5.1048,5.1607,5.2198,5.356,5.5082,5.6562,5.7688,5.9674,6.3453,6.4603,6.5831,6.7895,6.8977,6.9575,6.9575,6.9857,7.0601,7.1909,7.2146,7.1537,6.9891,6.9823,6.9722,6.9586,7.0128,7.0161,6.9586,7.0161,7.0229,6.9823,7.0398,7.0748,7.0917,7.1515,7.1774,7.1774,7.1774,7.1447,7.0883,7.0748,7.0342,6.9789,6.962,6.9925,7.0443,7.0443,7.0804,7.13,7.13,7.0928,7.0443,7.0443,6.9823,6.8977,6.8335,6.8605,6.9011,6.8538,6.8842,6.9519,7.024,7.0443,7.0567,7.1165,7.1436,7.1503,7.1334,7.1988,7.2597,7.2428,7.3105,7.3691,7.3522,7.3624,7.3725,7.3725,7.359,7.3556,7.3725,7.359,7.3048,7.1887,7.2293,7.2766,7.3071,7.3657,7.4221,7.4784,7.4593,7.4909,7.5912,7.6115,7.6487,7.713,7.7598,7.7844,7.7844,7.6779,7.6187,7.5945,7.5517,7.4724,6.1441,6.1972,6.222,6.0436,5.8389,5.6393,5.4846,5.2799,5.137,5.1961,5.2164,5.2224,5.23,5.356,5.5082,5.6562,5.8524,6.1197,6.4962,6.6136,6.7208,6.8808,7.0252,7.1097,7.1097,7.2293,7.3421,7.4243,7.4931,7.4356,7.2225,7.209,7.1785,7.1131,7.1165,7.1165,7.1097,7.1165,7.1503,7.209,7.2157,7.2541,7.3184,7.3251,7.3285,7.3285,7.3285,7.3251,0.0,7.2462,7.2157,7.2022,7.1368,7.1131,7.1199,7.1199,7.1233,7.13,7.13,7.1267,7.1199,7.1199,7.0252,6.9079,6.9011,6.9045,6.9214,6.9834,7.0037,7.0274,7.0996,7.1199,7.1233,7.13,7.1808,7.2124,7.1436,7.2394,7.3218,7.2529,7.3544,7.4289,7.3624,7.4052,7.4514,7.4514,7.3928,7.3725,7.4412,7.3916,7.3454,7.3319,7.3353,7.3928,7.527,7.5473,7.554,7.5574,7.6838,7.7345,7.6826,7.7447,7.7819,7.7887,7.7561,7.7376,7.7376,7.6823,7.6896,7.7445,7.5696,7.5144,6.1849,6.2586,6.2694,6.0629,5.8109,5.5877,5.4846,5.2503,5.0879,5.2063,5.23,5.2469,5.2934,5.3112,5.3721,5.5243,5.5852,5.7408,6.1129,6.3091,6.5189,6.803,7.0117,7.1639,7.2529,7.3544,7.4661,7.59,7.6251,7.6048,7.5168,7.3827,7.2947,7.2631,7.2191,7.2191,7.2631,7.2631,7.2778,7.3048,7.3048,7.3218,7.3488,7.3488,7.3488,7.3488,7.3488,7.3488,0.0,7.3184,7.3048,7.3048,7.2744,7.2631,7.2631,7.2631,7.2631,7.2631,7.2631,7.2326,7.1943,7.1943,7.1267,7.0353,6.9891,7.006,7.0387,7.024,7.0511,7.0939,7.1233,7.1943,7.2732,7.3195,7.3499,7.351,7.2766,7.3443,7.4086,7.3781,7.4559,7.5168,7.4875,7.5067,7.527,7.527,7.4999,7.4931,7.5236,7.4999,7.5011,7.5484,7.4728,7.439,7.4987,7.5879,7.642,7.642,7.7413,7.7887,7.7582,7.7569,7.7921,7.864,7.8179,7.8166,7.8556,7.7656,7.7352,7.7582,7.5349,7.4648,6.138,6.232,6.242,6.0561,5.8041,5.5843,5.5108,5.2748,5.1116,5.2401,5.2664,5.2841,5.3416,5.3044,5.3145,5.4668,5.4871,5.6021,5.9496,6.1941,6.4488,6.7523,6.9722,7.165,7.3353,7.4762,7.598,7.6826,7.7299,7.7367,7.6927,7.5383,7.43,7.3849,7.3308,7.3308,7.3827,7.3827,7.3928,7.4165,7.4165,7.4165,7.4165,7.4165,7.4165,7.4165,7.4165,7.4165,0.0,7.3928,7.3827,7.3793,7.359,7.3488,7.3488,7.3488,7.3488,7.3488,7.3488,7.315,7.2732,7.2732,7.236,7.1853,7.1323,7.1244,7.1199,7.0669,7.1075,7.1639,7.1639,7.2563,7.3624,7.4153,7.4446,7.4378,7.3657,7.4255,7.4852,7.4649,7.5202,7.5709,7.5709,7.5709,7.5709,7.5709,7.5709,7.5709,7.5709,7.5709,7.5912,7.6487,7.5811,7.5359,7.5608,7.6589,7.7232,7.7232,7.8111,7.8563,7.8314,7.8226,7.8556,7.9406,7.8604,7.8576,7.9417,7.7679,7.7133,7.7634,7.5542,7.4904,5.9382,6.0674,6.1139,6.0283,5.8423,5.6587,5.5877,5.3915,5.2503,5.3306,5.3484,5.3484,5.3509,5.3475,5.3983,5.5462,5.69,5.8906,6.1951,6.4285,6.6214,6.7726,6.9259,7.1086,7.3285,7.6195,7.7684,7.6961,7.8234,7.8437,7.6995,7.6893,7.6183,7.4649,7.4581,7.4581,7.4581,7.4581,7.4953,7.5676,7.5676,7.5676,7.5676,7.5676,7.5676,7.5676,7.5676,7.5676,0.0,7.4886,7.4581,7.4514,7.3793,7.3488,7.3488,7.3488,7.3488,7.3488,7.3488,7.3488,7.3488,7.3488,7.3488,7.3488,7.3454,7.2462,7.13,7.13,7.1808,7.2394,7.2394,7.2935,7.3488,7.3522,7.4052,7.4378,7.3657,7.4639,7.5473,7.475,7.5202,7.5709,7.5709,7.5709,7.5709,7.5709,7.5709,7.5709,7.5709,7.5709,7.5709,7.5709,7.642,7.7164,7.7887,7.7988,7.7988,7.7988,7.9363,7.987,7.9114,7.979,8.0162,8.0175,7.847,7.8234,7.9498,7.6494,7.604,7.7852,7.6581,7.6338,5.6408,5.7515,5.8041,5.7297,5.5809,5.4634,5.4905,5.3585,5.2536,5.334,5.3509,5.3509,5.3509,5.3509,5.4321,5.6799,5.7586,5.8939,6.1994,6.4749,6.7184,6.9225,7.3048,7.5992,7.7232,7.7266,7.757,7.8336,7.7896,7.7828,7.837,7.7908,7.7447,7.6927,7.5912,7.5845,7.6906,7.6927,7.7041,7.7278,7.6758,7.6521,7.6487,7.5946,7.5709,7.5709,7.5709,7.6014,7.6454,7.5676,7.5676,7.6082,7.5303,7.4999,7.4999,7.4999,7.4999,7.4999,7.4999,7.4661,7.4255,7.4255,7.3916,7.3488,7.3488,7.3184,7.28,7.28,7.2981,7.3387,7.439,7.483,7.5134,7.5676,7.6014,7.5946,7.5168,7.5371,7.5642,7.5405,7.554,7.5709,7.5709,7.5709,7.5709,7.5709,7.5709,7.5912,7.6454,7.6521,7.669,7.721,7.7515,7.7548,7.7266,7.8179,7.8754,7.8754,7.9667,8.0107,7.987,7.976,8.0103,8.0953,8.008,8.006,8.0934,7.9544,7.8579,7.7962,7.7447,7.6912,5.485,5.5885,5.635,5.6147,5.5234,5.4389,5.4575,5.3653,5.29,5.3416,5.3509,5.3509,5.3509,5.3721,5.46,5.6731,5.7983,5.9582,6.2052,6.5189,6.8166,7.0748,7.4909,7.7773,7.8247,7.793,7.8099,7.9046,7.8234,7.8133,7.9046,7.8653,7.8428,7.8428,7.7198,7.7164,7.8382,7.8428,7.8428,7.8416,7.7942,7.757,7.7299,7.6804,7.6567,7.6567,7.6567,7.669,0.0,7.6657,7.6521,7.642,7.6217,7.6149,7.6115,7.5811,7.5879,7.6115,7.5811,7.5405,7.5021,7.5021,7.4695,7.4334,7.4334,7.3928,7.3488,7.3488,7.3691,7.4119,7.5067,7.5506,7.5811,7.6318,7.6454,7.6318,7.5811,7.5709,7.5709,7.5709,7.5709,7.5811,7.6082,7.6149,7.6251,7.6533,7.6567,7.6758,7.7232,7.7299,7.7481,7.7954,7.8259,7.8213,7.7773,7.8572,7.9215,7.9486,7.9938,8.031,8.0581,8.0342,8.0671,8.1684,8.1,8.1326,8.2711,8.2217,8.0993,7.915,7.882,7.8139,0.0,5.5228,5.5471,5.6215,5.5877,5.5225,5.4642,5.3991,0.0,5.3509,5.3509,5.3543,5.3712,5.4194,5.4947,5.6012,5.8414,6.0757,6.2391,6.5899,6.9417,7.2428,7.5371,7.713,7.713,7.8336,7.9114,7.9114,7.9046,7.9046,7.9114,7.9046,7.908,7.9181,7.845,7.8416,7.908,7.9147,7.9181,7.9181,7.9114,7.8754,7.809,7.8022,7.7988,0.0,7.7988,7.765,7.7096,7.7751,7.7176,7.6014,7.6724,7.6961,7.6893,7.6082,7.6251,7.6792,7.598,7.5709,7.5709,7.5709,7.5709,7.5709,7.5709,7.474,7.3657,7.3725,7.4187,7.4683,7.475,7.5236,7.5709,7.5709,7.5709,7.5709,7.5709,7.5709,7.5709,7.5709,7.5709,7.5946,7.6758,7.6893,7.7164,7.7887,7.8056,7.809,7.8157,7.8191,7.8225,7.8225,7.8855,7.9249,7.9181,7.9181,7.9452,8.0175,8.0242,8.0593,8.127,8.1405,8.1778,8.2462,8.1562,8.2204,8.4561,8.4182,8.2999,8.1025,8.038,7.9755,5.0827,0.0,5.1589,5.2325,5.2385,5.252,0.0,5.3611,5.3509,5.3509,5.3509,5.4016,5.5716,5.5243,5.5962,6.0157,6.0926,6.1941,6.4556,6.9124,7.3285,7.633,7.8314,7.9431,7.9431,7.9215,7.9114,7.9114,7.8585,7.8483,7.908,7.8585,7.8788,7.9904,7.9228,7.8911,7.9114,7.9655,7.9938,7.9938,7.9384,7.9012,7.8822,7.8259,7.7988,7.7988,7.7988,7.8213,7.8539,7.8157,7.8111,7.8268,7.7874,7.7751,7.765,7.6893,7.6758,7.6792,7.598,7.5709,7.5709,7.5709,7.5709,7.5709,7.5709,7.5473,7.5303,7.5912,7.5777,7.5574,7.6217,7.6048,7.5709,7.5709,7.5709,7.5709,7.5709,7.5709,7.5709,7.5709,7.5709,7.5946,7.6758,7.6893,7.7164,7.7887,7.8483,7.9058,7.96,8.0187,8.0526,8.0526,8.0695,8.056,8.0006,7.9938,8.0006,8.0175,8.0729,8.1101,8.1304,8.2387,8.305,8.3253,8.4136,8.4461,8.4158,8.4041,8.2749,8.0324,8.0185,7.9755,4.9442,5.0346,5.1285,5.2055,5.2528,5.2968,5.3822,5.3754,5.3509,5.3509,5.3509,5.3983,5.5513,5.5962,5.7146,6.0317,6.1941,6.4106,6.776,7.1582,7.4999,7.7684,7.9295,8.0209,8.0209,7.9837,7.9587,7.9587,7.9228,7.9194,7.9587,7.9228,7.9228,7.9689,7.9634,7.9587,7.9587,8.0006,8.0209,8.0209,7.9803,7.9587,7.9587,7.9194,7.9003,7.9003,7.9003,7.9058,7.908,7.9025,7.8855,7.8585,7.8517,7.8483,7.8416,7.7684,7.7401,7.7299,7.6521,7.6014,7.5709,7.5709,7.5709,7.5709,7.5709,7.5709,7.5777,7.6217,7.6048,7.5811,7.6251,7.6014,7.5777,7.6149,7.6251,7.6352,7.669,7.677,7.6669,7.6318,7.6521,7.6893,7.7345,7.7671,7.8145,7.8889,7.9363,7.9769,8.0141,8.056,8.0796,8.0796,8.0796,8.0615,8.0242,8.0209,8.0209,8.0209,8.0898,8.1439,8.1799,8.3253,8.4082,8.4131,8.4996,8.4947,8.4007,8.3414,8.2553,8.1478,8.085,8.0186,4.9368,5.098,5.2739,5.3069,5.3788,5.4439,5.4439,5.3957,5.3509,5.3509,5.3577,5.4059,5.5387,5.7146,5.8863,6.0308,6.3328,6.6937,7.1199,7.3499,7.5596,7.7887,7.9363,8.0209,8.0209,8.0209,8.0209,8.0209,8.0209,8.0209,8.0209,8.0209,7.9904,7.9283,7.987,8.0209,8.0209,8.0209,8.0209,8.0209,8.0209,8.0209,8.0209,8.0209,8.0209,8.0209,0.0,0.0,7.9317,7.9938,7.9477,7.8394,7.9012,7.9283,7.9181,7.845,7.8157,7.8056,7.7299,7.6623,7.6048,7.6048,7.6048,7.6014,7.5912,7.5946,7.6014,7.5912,7.5777,7.5743,7.598,7.598,7.6048,7.6758,7.6995,7.7244,7.7887,7.7988,7.7819,7.7198,7.7582,7.8022,7.8157,7.8686,7.935,8.0073,8.031,8.0378,8.0378,8.0479,8.0479,8.0378,8.0378,8.031,8.0209,8.031,8.031,8.0209,8.0999,8.1913,8.2868,8.4268,8.4996,8.4918,8.5051,8.4695,8.3712,8.2827,8.2541,8.2766,8.1742,8.088,5.0379,5.2536,5.3822,5.1987,5.263,5.3687,5.3687,5.3585,5.3509,5.3509,5.3991,5.5624,5.9539,6.0554,6.2245,6.6812,6.8548,7.0443,7.3634,7.492,7.6386,7.864,7.9667,8.0209,8.0209,8.0209,8.0209,8.0209,8.0209,8.0209,8.0209,8.0209,8.0141,8.004,8.0141,8.0209,8.0209,8.0209,8.0209,8.0209,8.0209,8.0209,8.0209,8.0209,8.0209,8.0209,0.0,8.0141,8.004,8.0141,8.0073,7.987,8.0006,8.004,7.9938,7.9194,7.8911,7.8809,7.809,7.7751,7.765,7.765,7.765,7.7548,7.6893,7.713,7.7515,7.6893,7.6217,7.598,7.7312,7.7164,7.6758,7.686,7.7379,7.7853,7.7988,7.7988,7.7954,7.7853,7.7921,7.8191,7.8822,7.9012,7.935,8.0073,8.0729,8.1135,8.1135,8.1663,8.1832,8.1202,8.1135,8.0898,8.0242,8.0763,8.0864,8.0242,8.1494,8.3152,8.5195,8.6095,8.6052,8.4995,8.5533,8.4689,8.2395,8.3322,8.2985,8.1409,8.1785,8.1589,5.0297,5.2266,5.3957,5.3704,5.5056,5.6486,5.6486,5.6156,5.5987,5.6384,5.6756,5.7983,6.1298,6.2854,6.5256,7.0094,7.1492,7.2744,7.4897,7.6183,7.7468,7.8945,7.9756,8.0209,8.0209,8.0209,8.0209,8.0209,8.0209,8.0209,8.0209,8.0209,8.0209,8.0209,8.0209,8.0209,8.0209,8.0209,8.0209,8.0209,8.0209,8.0209,8.0209,8.0209,8.0209,8.0209,0.0,8.0209,8.0209,8.0209,8.0209,8.0209,8.0209,8.0209,8.0107,7.9384,7.9114,7.8978,7.8259,7.7988,7.7988,7.7988,7.7988,7.7954,7.7616,7.7718,7.8022,7.8077,7.7536,7.7109,7.7819,7.7751,7.7604,7.801,7.8348,7.8686,7.9092,7.9206,7.9058,7.8686,7.8936,7.916,7.9114,7.9418,7.9803,8.0141,8.0479,8.0729,8.0729,8.0987,8.1088,8.0763,8.1067,8.1169,8.083,8.146,8.2103,8.2564,8.2847,8.3874,8.5814,8.622,8.613,8.5548,8.4474,8.365,8.313,8.27,8.2369,8.2204,8.2882,8.282,5.0493,5.2037,5.3881,5.5539,5.7085,5.8472,5.9327,5.8693,5.8195,5.9327,5.9791,6.0646,6.255,6.53,6.8447,7.2056,7.359,7.474,7.6048,7.7413,7.8517,7.9283,7.987,8.0209,8.0209,8.0209,8.0209,8.0209,8.0209,8.0209,8.0209,8.0209,8.0209,8.0209,8.0209,8.0209,8.0209,8.0209,8.0209,8.0209,8.0209,8.0209,8.0209,8.0209,8.0209,8.0209,8.0209,8.0209,8.0209,8.0209,8.0209,8.0209,8.0209,8.0209,8.0141,7.9566,7.935,7.9283,7.872,7.853,7.853,7.853,7.853,7.8496,7.8327,7.8394,7.8597,7.8978,7.8822,7.8496,7.8293,7.8259,7.8382,7.8978,7.9215,7.952,8.0073,8.0209,8.004,7.9452,7.9803,8.0006,7.9452,7.9837,8.0209,8.0209,8.0209,8.0209,8.0209,8.0209,8.0276,8.0445,8.0966,8.1507,8.2048,8.2441,8.3443,8.527,8.4539,8.464,8.596,8.6293,8.6097,8.5354,8.3639,8.3019,8.3531,8.2373,8.2328,8.3344,8.3849,8.3818,5.1733,5.2807,5.4016,5.6181,5.6316,5.6849,6.0341,5.9471,5.8533,6.0689,6.2236,6.3453,6.4275,6.8538,7.227,7.3251,7.5236,7.6927,7.7718,7.8517,7.9283,8.004,8.0175,8.0209,8.0209,8.0209,8.0209,8.0209,8.0209,8.0209,8.0209,8.0209,8.0209,8.0209,8.0209,8.0209,8.0209,8.0209,8.0209,8.0209,8.0209,8.0209,8.0209,8.0209,8.0209,8.0209,8.0209,8.0209,8.0209,8.0209,8.0209,8.0209,8.0209,8.0209,8.0175,8.0141,8.0107,8.0107,8.0073,8.004,8.004,8.004,8.004,7.9904,7.9215,7.9498,7.9904,7.9283,7.9566,7.987,7.9181,7.9012,7.9046,7.908,7.9621,8.0141,8.0175,8.0209,8.0175,8.0141,8.0175,8.0175,8.0141,8.0175,8.0209,8.0209,8.0209,8.0209,8.0209,8.0209,8.0445,8.1135,8.127,8.215,8.4187,8.3781,8.464,8.7583,8.6413,8.5729,8.5993,8.7193,8.6402,8.3379,8.4267,8.3959,8.224,8.334,8.3941,8.4034,8.4065,8.4065,5.1214,5.3196,5.5302,5.7036,5.7949,5.9056,6.1443,6.167,6.2144,6.485,6.5865,6.6599,6.7838,7.0432,7.28,7.3984,7.5709,7.7333,7.8517,7.9329,7.9904,8.0175,8.0209,8.0209,8.0209,8.0209,8.0209,8.0209,8.0209,8.0209,8.0209,8.0209,8.0209,8.0209,8.0209,8.0209,8.0209,8.0209,8.0209,8.0209,8.0209,8.0209,8.0209,8.0209,8.0209,8.0209,8.0209,8.0209,8.0209,8.0209,8.0209,8.0209,8.0209,8.0209,8.0209,8.0209,8.0209,8.0209,8.0209,8.0209,8.0209,8.0209,8.0209,8.0141,7.987,7.9972,8.0141,7.987,7.9972,8.0141,7.987,7.9769,7.9769,7.9769,8.0006,8.0209,8.0209,8.0209,8.0209,8.0209,8.0209,8.0209,8.0209,8.0209,8.0209,8.0209,8.0209,8.0378,8.083,8.0898,8.1169,8.19,8.28,8.3883,8.5215,8.552,8.5936,8.6703,8.6594,8.6536,8.6671,8.7614,8.7128,8.4989,8.5484,8.5164,8.3972,8.4487,8.4517,8.4095,8.4526,8.4495,5.157,5.3611,5.5809,5.7746,5.9167,6.0689,6.2932,6.3666,6.4772,6.7973,6.8436,6.8741,7.0263,7.1379,7.2529,7.4018,7.5946,7.7671,7.8945,7.9722,8.0209,8.0209,8.0209,8.0209,8.0209,8.0209,8.0209,8.0209,8.0209,8.0209,8.0209,8.0209,8.0209,8.0209,8.0209,8.0209,8.0209,8.0209,8.0209,8.0209,8.0209,8.0209,8.0209,8.0209,8.0209,8.0209,8.0209,8.0209,8.0209,8.0209,8.0209,8.0209,8.0209,8.0209,8.0209,8.0209,8.0209,8.0209,8.0209,8.0209,8.0209,8.0209,8.0209,8.0209,8.0209,8.0209,8.0209,8.0209,8.0209,8.0209,8.0209,8.0209,8.0209,8.0209,8.0209,8.0209,8.0209,8.0209,8.0209,8.0209,8.0209,8.0209,8.0209,8.0209,8.0209,8.0209,8.0209,8.0479,8.1202,8.1304,8.1676,8.2631,8.4086,8.5317,8.6061,8.6805,8.7155,8.7003,8.7596,8.761,8.6846,8.7492,8.7529,8.6822,8.6369,8.5953,8.5465,8.5654,8.5199,8.4126,8.4803,8.4865,5.3218,5.4025,5.5319,5.8244,5.9564,6.1129,6.486,6.5165,6.5696,6.9462,6.9654,6.9586,7.103,7.1334,7.1808,7.3285,7.6026,7.8259,7.9012,7.9722,8.0209,8.0209,8.0209,8.0209,8.0209,8.0209,8.0209,8.0209,8.0209,8.0209,8.0209,8.0209,8.0209,8.0209,8.0209,8.0209,8.0209,8.0209,8.0209,8.0209,8.0209,8.0209,8.0209,8.0209,8.0209,8.0209,8.0209,8.0209,8.0209,8.0209,8.0209,8.0209,8.0209,8.0209,8.0209,8.0209,8.0209,8.0209,8.0209,8.0209,8.0209,8.0209,8.0209,8.0209,8.0209,8.0209,8.0209,8.0209,8.0209,8.0209,8.0209,8.0209,8.0209,8.0209,8.0209,8.0209,8.0209,8.0209,8.0209,8.0209,8.0209,8.0209,8.0209,8.0209,8.0209,8.0209,8.0209,8.0479,8.1202,8.1304,8.1879,8.3355,8.489,8.6095,8.6859,8.7583,8.8328,8.9038,8.9782,8.8989,8.6332,8.6808,8.7527,8.8263,8.6871,8.6177,8.6196,8.6857,8.6142,8.4095,8.4773,8.508,5.2104,5.4363,5.7112,5.8026,6.1173,6.4319,6.5446,6.6349,6.7827,7.1075,7.2,7.2169,7.209,7.2496,7.3172,7.4119,7.5946,7.7671,7.8911,7.9722,8.0209,8.0209,8.0209,8.0209,8.0209,8.0209,8.0209,8.0209,8.0209,8.0209,8.0209,8.0209,8.0209,8.0209,8.0209,8.0209,8.0209,8.0209,8.0209,8.0209,8.0209,8.0209,8.0209,8.0209,8.0209,8.0209,8.0209,8.0209,8.0209,8.0209,8.0209,8.0209,8.0209,8.0209,8.0209,8.0209,8.0209,8.0209,8.0209,8.0209,8.0209,8.0209,8.0209,8.0209,8.0209,8.0209,8.0209,8.0209,8.0209,8.0209,8.0209,8.0209,8.0209,8.0209,8.0209,8.0209,8.0209,8.0209,8.0209,8.0209,8.0209,8.0209,8.0209,8.0209,8.0209,8.0209,8.0209,8.0648,8.19,8.297,8.3998,8.5026,8.5993,8.6873,8.7617,8.8342,8.845,8.7756,8.9278,8.9388,8.7621,8.9639,9.0012,8.8263,8.8769,8.81,8.6196,8.5892,8.4917,8.3387,8.4065,8.4403,5.4524,5.6697,5.9201,6.0994,6.3802,6.6542,6.8007,6.9045,7.0297,7.2394,7.3184,7.3454,7.3308,7.3421,7.3928,7.5303,7.6555,7.7841,7.9317,7.9938,8.0209,8.0209,8.0209,8.0209,8.0209,8.0209,8.0209,8.0209,8.0209,8.0209,8.0209,8.0209,8.0209,8.0209,8.0209,8.0209,8.0209,8.0209,8.0209,8.0209,8.0209,8.0209,8.0209,8.0209,8.0209,8.0209,8.0209,8.0209,8.0209,8.0209,8.0209,8.0209,8.0209,8.0209,8.0209,8.0209,8.0209,8.0209,8.0209,8.0209,8.0209,8.0209,8.0209,8.0209,8.0209,8.0209,8.0209,8.0209,8.0209,8.0209,8.0209,8.0209,8.0209,8.0209,8.0209,8.0209,8.0209,8.0209,8.0209,8.0209,8.0209,8.0209,8.0209,8.0209,8.031,8.0593,8.1135,8.1832,8.2712,8.4153,8.5148,8.5317,8.6535,8.7414,8.755,8.8511,8.8877,8.8365,8.9788,9.0119,8.9012,9.0382,9.0632,8.954,8.9499,8.8279,8.5802,8.5625,8.4559,8.2728,8.3664,8.4095,5.8727,6.0047,6.1332,6.5618,6.6903,6.8019,7.1515,7.236,7.2631,7.3421,7.3657,7.3928,7.4683,7.4255,7.4503,7.6657,7.7604,7.853,7.9803,8.0073,8.0107,8.0107,8.0107,8.0141,8.0175,8.0209,8.0209,8.0209,8.0209,8.0209,8.0209,8.0209,8.0209,8.0209,8.0209,8.0209,8.0209,8.0209,8.0209,8.0209,8.0209,8.0209,8.0209,8.0209,8.0209,8.0209,8.0209,8.0209,8.0209,8.0209,8.0209,8.0209,8.0209,8.0209,8.0209,8.0209,8.0209,8.0209,8.0209,8.0209,8.0209,8.0209,8.0209,8.0209,8.0209,8.0209,8.0209,8.0209,8.0209,8.0209,8.0209,8.0209,8.0209,8.0209,8.0209,8.0209,8.0209,8.0209,8.0209,8.0209,8.0242,8.0276,8.0209,8.031,8.0648,8.1405,8.2691,8.3625,8.3693,8.4992,8.5621,8.4884,8.6724,8.7719,8.6961,8.8206,8.9323,9.0039,9.0729,9.0917,9.0503,8.985,9.0056,9.1274,8.9186,8.7139,8.5187,8.5635,8.4535,8.2112,8.3387,8.4034,5.7239,5.9674,6.256,6.5266,6.7736,6.9823,7.1233,7.1988,7.2766,7.4074,7.483,7.5473,7.6251,7.6284,7.6521,7.7582,7.8382,7.8788,7.853,7.8957,7.935,7.935,7.935,7.9553,8.0141,8.0209,8.0209,8.0209,8.0209,8.0209,8.0209,8.0209,8.0209,8.0209,8.0209,8.0209,8.0209,8.0209,8.0209,8.0209,8.0209,8.0209,8.0209,8.0209,8.0209,8.0209,8.0209,8.0209,8.0209,8.0209,8.0209,8.0209,8.0209,8.0209,8.0209,8.0209,8.0209,8.0209,8.0209,8.0209,8.0209,8.0209,8.0209,8.0209,8.0209,8.0209,8.0209,8.0209,8.0209,8.0209,8.0209,8.0209,8.0209,8.0209,8.0209,8.0209,8.0209,8.0209,8.0209,8.0209,8.0661,8.0898,8.031,8.1156,8.2171,8.2915,8.3795,8.4593,8.5229,8.6095,8.6589,8.642,8.738,8.7719,8.6961,8.7719,8.8531,8.9289,8.9492,9.0277,9.1876,9.1368,9.0614,8.9773,8.7712,8.617,8.5187,8.3715,8.269,8.2112,8.2943,8.3603,5.8693,6.1163,6.3734,6.7026,6.9282,7.0906,7.1672,7.2394,7.3138,7.3916,7.4661,7.5405,7.6183,7.6657,7.713,7.7887,7.8619,7.8978,7.8585,7.916,7.9363,7.8653,7.8889,7.9249,7.9634,7.9667,7.9837,8.0175,8.0209,8.0209,8.0209,8.0209,8.0209,8.0209,8.0209,8.0209,8.0209,8.0209,8.0209,8.0209,8.0209,8.0209,8.0209,8.0209,8.0209,8.0209,8.0209,8.0209,8.0209,8.0209,8.0209,8.0209,8.0209,8.0209,8.0209,8.0209,8.0209,8.0209,8.0209,8.0209,8.0209,8.0209,8.0209,8.0209,8.0209,8.0209,8.0209,8.0209,8.0209,8.0209,8.0209,8.0209,8.0209,8.0209,8.0209,8.0209,8.0209,8.0209,8.0209,8.0209,8.0796,8.1169,8.0796,8.2225,8.3714,8.4484,8.5249,8.5845,8.6264,8.6656,8.6893,8.6893,8.755,8.7854,8.7482,8.8429,8.9376,9.0101,9.0493,9.1064,9.1938,9.0982,9.0081,8.9332,8.7243,8.5539,8.4175,8.3114,8.242,8.2112,8.2789,8.3449,5.9988,6.2719,6.5077,6.9157,7.0737,7.147,7.209,7.2665,7.3184,7.3454,7.4187,7.4987,7.5574,7.6352,7.713,7.7887,7.8619,7.9046,7.8911,7.9566,7.9566,7.8314,7.872,7.9147,7.9283,7.9283,7.952,8.0141,8.0209,8.0209,8.0209,8.0209,8.0209,8.0209,8.0209,8.0209,8.0209,8.0209,8.0209,8.0209,8.0209,8.0209,8.0209,8.0209,8.0209,8.0209,8.0209,8.0209,8.0209,8.0209,8.0209,8.0209,8.0209,8.0209,8.0209,8.0209,8.0209,8.0209,8.0209,8.0209,8.0209,8.0209,8.0209,8.0209,8.0209,8.0209,8.0209,8.0209,8.0209,8.0209,8.0209,8.0209,8.0209,8.0209,8.0209,8.0209,8.0209,8.0209,8.0209,8.0209,8.0796,8.1405,8.1811,8.3375,8.4965,8.6007,8.6704,8.713,8.7265,8.7164,8.7028,8.6927,8.755,8.7888,8.7651,8.9106,9.0324,9.1068,9.1561,9.1744,9.1508,9.0081,8.92,8.8919,8.6902,8.4994,8.3264,8.3159,8.2882,8.2451,8.2913,8.3449,5.6799,6.1864,6.6971,6.9563,7.0737,7.1334,7.1436,7.1537,7.1943,7.3251,7.4605,7.5574,7.5676,7.6352,7.713,7.7887,7.8619,7.8877,7.8259,7.8788,7.9181,7.8978,7.9046,7.935,8.0006,8.004,8.0073,8.0175,8.0209,8.0209,8.0209,8.0209,8.0209,8.0209,8.0209,8.0209,8.0209,8.0209,8.0209,8.0209,8.0209,8.0209,8.0209,8.0209,8.0209,8.0209,8.0209,8.0209,8.0209,8.0209,8.0209,8.0209,8.0209,8.0209,8.0209,8.0209,8.0209,8.0209,8.0209,8.0209,8.0209,8.0209,8.0209,8.0209,8.0209,8.0209,8.0209,8.0209,8.0209,8.0209,8.0209,8.0209,8.0209,8.0209,8.0209,8.0209,8.0209,8.0209,8.0209,8.0209,8.0796,8.1913,8.3815,8.4411,8.5303,8.738,8.7786,8.8091,8.8714,8.826,8.7617,8.6961,8.755,8.7496,8.621,8.8037,8.956,9.029,8.9903,9.0192,9.1428,9.0081,8.8735,8.7483,8.5457,8.4248,8.3972,8.3387,8.3344,8.3818,8.3344,8.3449,5.8017,6.2371,6.6305,6.9428,7.0432,7.0669,7.0669,7.13,7.1887,7.1695,7.315,7.4706,7.554,7.6352,7.6995,7.7333,7.8336,7.8843,7.809,7.8991,7.9397,7.8585,7.8843,7.9215,7.9553,7.9587,7.9769,8.0175,8.0209,8.0209,8.0209,8.0209,8.0209,8.0209,8.0209,8.0209,8.0209,8.0209,8.0209,8.0209,8.0209,8.0209,8.0175,7.9756,7.9803,8.0209,8.0209,8.0209,8.0209,8.0209,8.0209,8.0209,8.0209,8.0209,8.0209,8.0209,8.0209,8.0209,8.0209,8.0209,8.0209,8.0209,8.0209,8.0209,8.0209,8.0209,8.0209,8.0209,8.0209,8.0209,8.0209,8.0209,8.0209,8.0209,8.0209,8.0209,8.0209,8.0209,8.031,8.0729,8.1393,8.2475,8.4289,8.5324,8.6352,8.7786,8.8342,8.8748,8.9052,8.8091,8.7414,8.7516,8.7076,8.6853,8.7022,8.8666,9.0019,9.0763,9.0604,9.0801,9.1461,9.0081,8.8459,8.667,8.5372,8.453,8.4095,8.3436,8.3626,8.4644,8.3962,8.4015,5.8524,6.1772,6.4343,6.8109,6.9327,6.9733,7.0105,7.1052,7.1582,7.0669,7.1932,7.3624,7.4897,7.5777,7.6454,7.6826,7.7976,7.8686,7.8314,7.9397,7.9803,7.8699,7.9058,7.9384,7.9384,7.9384,7.9621,8.0175,8.0209,8.0209,8.0209,8.0209,8.0209,8.0209,8.0209,8.0209,8.0209,8.0209,8.0209,8.0209,8.0209,8.0209,8.0175,7.9418,7.9384,7.9938,7.9938,7.9938,7.9938,8.0107,8.0209,8.0209,8.0209,8.0209,8.0209,8.0209,8.0209,8.0209,8.0209,8.0209,8.0209,8.0209,8.0209,8.0209,8.0209,8.0209,8.0209,8.0209,8.0209,8.0209,8.0209,8.0209,8.0209,8.0209,8.0209,8.0209,8.0209,8.0209,8.0344,8.0898,8.1765,8.28,8.4086,8.5743,8.713,8.7888,8.8646,8.9018,8.8849,8.7685,8.7028,8.738,8.6616,8.6501,8.7617,8.941,9.0729,9.1271,9.1435,9.1494,9.1494,9.0254,8.8486,8.623,8.624,8.572,8.4621,8.4311,8.4845,8.6129,8.5102,8.4827,5.5978,5.866,6.1231,6.4996,6.6992,6.8402,6.9868,7.0274,7.0477,7.1097,7.1875,7.2699,7.3454,7.4221,7.519,7.6657,7.7536,7.8293,7.8945,7.9701,8.0175,8.0073,8.0107,8.0141,8.0141,8.0141,8.0175,8.0209,8.0209,8.0209,8.0209,8.0209,8.0209,8.0209,8.0209,8.0209,8.0209,8.0209,8.0209,8.0209,8.0209,8.0209,8.0175,7.9418,7.9114,7.9147,7.9147,7.9147,7.9215,7.9904,8.0209,8.0209,8.0209,8.0209,8.0209,8.0209,8.0209,8.0209,8.0209,8.0209,8.0209,8.0209,8.0209,8.0209,8.0209,8.0209,8.0209,8.0209,8.0209,8.0209,8.0209,8.0209,8.0209,8.0209,8.0209,8.0209,8.0209,8.0209,8.0209,8.0242,8.1426,8.2631,8.3422,8.5418,8.713,8.7888,8.8646,8.8849,8.8158,8.738,8.667,8.5973,8.6467,8.6859,8.6961,8.9579,9.1271,9.1305,9.1435,9.1494,9.1494,9.069,8.8972,8.6247,8.8095,8.8111,8.6077,8.6691,8.7713,8.9038,8.7025,8.578,5.4642,5.6664,5.8896,6.2627,6.4681,6.6034,6.7094,6.8447,6.9688,7.0432,7.1176,7.2045,7.3285,7.3725,7.4063,7.4639,7.6161,7.7401,7.7638,7.9126,8.0209,8.0209,8.0209,8.0209,8.0209,8.0209,8.0209,8.0209,8.0209,8.0209,8.0209,8.0209,8.0209,8.0209,8.0209,8.0209,8.0209,8.0209,8.0209,8.0209,8.0209,7.9938,7.9452,7.872,7.8145,7.7693,7.7693,7.8247,7.9147,7.9904,8.0209,8.0209,8.0209,8.0209,8.0209,8.0209,8.0209,8.0209,8.0209,8.0209,8.0209,8.0209,8.0209,8.0209,8.0209,8.0209,8.0209,8.0209,8.0209,8.0209,8.0209,8.0209,8.0209,8.0209,8.0209,8.0209,8.0209,8.056,8.0898,8.0898,8.2103,8.3355,8.4086,8.5709,8.6995,8.7231,8.7922,8.8125,8.738,8.6636,8.6264,8.6501,8.6332,8.6569,8.7516,8.9444,9.0797,9.1271,9.0953,9.1137,9.2035,9.0484,8.8918,8.7506,8.9083,8.871,8.6196,8.6432,8.7258,8.8538,8.6469,8.5123,5.3348,5.5108,5.7399,6.1409,6.2753,6.3802,6.6586,6.7793,6.873,7.0263,7.1176,7.2045,7.3285,7.3488,7.3488,7.3488,7.518,7.6487,7.6487,7.8416,7.9837,7.9837,8.004,8.0209,8.0209,8.0209,8.0209,8.0209,8.0209,8.0209,8.0209,8.0209,8.0209,8.0209,8.0209,8.0209,8.0209,8.0209,8.0209,8.0209,7.9938,7.9553,7.908,7.8077,7.7515,7.7266,7.7266,7.7841,7.8788,7.9532,7.9972,8.0209,8.0209,8.0209,8.0209,8.0209,8.0209,8.0209,8.0209,8.0209,8.0209,8.0209,8.0209,8.0209,8.0209,8.0209,8.0209,8.0209,8.0209,8.0209,8.0209,8.0209,8.0209,8.0209,8.0209,8.0276,8.0526,8.0966,8.1236,8.0966,8.2319,8.3659,8.4153,8.5506,8.6704,8.7198,8.7685,8.782,8.7333,8.6636,8.6366,8.6859,8.6467,8.6785,8.8226,8.9715,9.0899,9.1609,9.1241,9.142,9.2363,9.0575,8.9219,8.8578,8.9933,8.9639,8.7592,8.785,8.8439,8.9266,8.7364,8.5766,0.0,0.0,0.0,6.1071,6.1071,6.1738,6.8379,6.8199,6.7512,7.059,7.1785,7.2529,7.3353,7.3488,7.3488,7.3488,7.4774,7.5743,7.5709,7.7671,7.9114,7.9114,7.9735,8.0175,8.0175,8.0175,8.0175,8.0209,8.0209,8.0209,8.0209,8.0209,8.0209,8.0209,8.0209,8.0209,8.0209,8.0209,8.0209,8.0175,7.9452,7.908,7.9012,7.757,7.7299,7.7954,7.7954,7.7988,7.809,7.8822,7.9553,8.0209,8.0209,8.0209,8.0209,8.0209,8.0209,8.0209,8.0209,8.0209,8.0209,8.0209,8.0209,8.0209,8.0209,8.0209,8.0209,8.0209,8.0209,8.0209,8.0209,8.0209,8.0209,8.0209,8.0209,8.0424,8.1169,8.1304,8.1101,8.0412,8.2069,8.3558,8.3592,8.4857,8.6345,8.7786,8.7955,8.7955,8.7955,8.7347,8.6927,8.6961,8.6995,8.7583,8.9052,9.0473,9.1609,9.2339,9.2358,9.2339,9.2339,9.0952,8.9932,8.9332,9.0642,9.1041,9.0475,9.1161,9.1479,9.1401,8.9854,8.7691,5.1438,0.0,0.0,0.0,0.0,0.0,6.211,6.2854,6.413,6.8774,6.9417,7.0026,7.2947,7.3488,7.3488,7.3488,7.5248,7.6352,7.5777,7.8111,7.9689,7.9147,7.9283,7.9384,7.9384,7.9384,7.9621,8.0175,8.0209,8.0209,8.0209,8.0209,8.0209,8.0209,8.0209,8.0209,8.0209,8.0209,8.0209,8.0175,7.9452,7.8822,7.828,7.7333,7.6995,7.7198,7.7198,7.7807,7.8843,7.96,8.0006,8.0209,8.0209,8.0209,8.0209,8.0209,8.0209,8.0209,8.0209,8.0209,8.0209,8.0209,8.0209,8.0209,8.0209,8.0209,8.0209,8.0209,8.0209,8.0209,8.0209,8.0209,8.031,8.0864,8.0593,8.0547,8.1832,8.1676,8.1541,8.2421,8.3977,8.5317,8.5892,8.6318,8.6907,8.7854,8.709,8.6616,8.7144,8.7028,8.7313,8.8375,8.897,8.9681,9.0594,9.1082,9.1372,9.1609,9.1087,9.0817,9.0817,9.0411,9.0119,8.9956,9.1353,9.2009,9.184,9.1625,9.0944,8.9822,8.689,8.5661,5.175,5.2765,5.4262,5.5624,0.0,0.0,6.1501,6.2076,6.3226,6.847,6.9417,7.0094,7.2575,7.3285,7.3488,7.3488,7.5146,7.6251,7.5777,7.7773,7.9126,7.8686,7.9181,7.9418,7.9147,7.9114,7.9418,8.0141,7.9904,7.987,8.0175,8.0209,8.0209,8.0209,8.0209,8.0209,8.0209,8.0209,8.004,7.9735,7.8991,7.8247,7.7515,7.6758,7.6589,7.6927,7.7232,7.801,7.9147,7.9904,8.0209,8.0209,8.0209,8.0209,8.0209,8.0209,8.0209,8.0209,8.0209,8.0209,8.0209,8.0209,8.0209,8.0209,8.0209,8.0209,8.0209,8.0209,8.0209,8.0209,8.0209,8.0209,8.031,8.0729,8.0763,8.0987,8.2158,8.2069,8.2002,8.2881,8.4031,8.5195,8.6264,8.6433,8.6907,8.8274,8.7732,8.7428,8.8178,8.828,8.872,8.9898,9.0121,9.0614,9.1677,9.1474,9.144,9.1744,9.0783,9.0343,9.0662,9.0343,9.0478,9.1121,9.1967,9.2278,9.2028,9.1651,9.0418,8.8368,8.6027,8.5505,5.2773,5.3695,5.5285,5.718,5.6858,0.0,6.3406,6.3304,6.3406,6.821,6.9722,7.0489,7.1481,7.2338,7.2879,7.2879,7.4334,7.5506,7.5676,7.7041,7.7954,7.7887,7.9092,7.9701,7.9046,7.9046,7.9418,8.0141,7.9587,7.952,8.0175,8.0209,8.0209,8.0209,8.0209,8.0175,8.0073,8.0073,7.9701,7.8978,7.8225,7.7536,7.6893,7.6149,7.6284,7.7063,7.7819,7.8551,7.9283,7.9938,8.0209,8.0209,8.0209,8.0209,8.0209,8.0209,8.0209,8.0209,8.0209,8.0209,8.0209,8.0209,8.0209,8.0209,8.0209,8.0209,8.0209,8.0209,8.0209,8.0209,8.031,8.031,8.0344,8.0513,8.0999,8.1642,8.2462,8.253,8.2462,8.2733,8.3321,8.42,8.5669,8.5973,8.6751,8.8781,8.9018,8.9289,9.0073,9.0275,9.0594,9.1338,9.0932,9.1087,9.2406,9.1778,9.1575,9.2237,9.0884,9.0357,9.1034,9.0594,9.0952,9.2271,9.244,9.2132,9.126,9.126,8.9935,8.7414,8.6593,8.671,5.4372,5.5252,5.6325,0.0,5.7255,0.0,5.8524,5.9124,6.0308,6.2584,6.3159,6.4038,6.6552,6.8109,6.8977,6.8977,7.1763,7.4334,7.554,7.7041,7.7785,7.7198,7.7887,7.836,7.8225,7.8754,7.9418,8.0141,8.0073,8.004,8.0175,8.0209,8.0209,8.0209,8.0209,7.9904,7.9317,7.9317,7.8957,7.8225,7.7468,7.7029,7.6893,7.6758,7.7063,7.7819,7.8585,7.9283,8.0006,8.0141,8.0209,8.0209,8.0209,8.0209,8.0209,8.0209,8.0209,8.0209,8.0209,8.0209,8.0209,8.0209,8.0209,8.0209,8.0209,8.0209,8.0209,8.0209,8.0209,8.0344,8.0932,8.1101,8.1372,8.2577,8.2509,8.253,8.387,8.324,8.2949,8.4789,8.5263,8.5635,8.6535,8.7177,8.7936,8.8951,8.8578,8.87,9.0039,9.0729,9.1372,9.2102,9.2624,9.3045,9.3349,9.2083,9.1372,9.1508,9.0135,8.939,8.9526,9.0541,9.1203,9.1508,9.2725,9.2164,8.9741,8.9741,8.9447,8.8853,8.7579,8.7969,5.5446,0.0,0.0,5.6799,0.0,0.0,0.0,5.9022,5.9757,6.2405,6.2347,6.2627,6.5233,6.6011,6.6745,6.8267,7.0409,7.2372,7.3849,7.6014,7.7299,7.6927,7.7536,7.7853,7.7481,7.7773,7.8314,7.9037,7.9769,8.0209,8.0209,8.0209,8.0209,8.0209,8.0209,8.0006,7.9667,7.9283,7.872,7.7988,7.7232,7.669,7.6318,7.6724,7.7299,7.8056,7.8775,7.952,8.0209,8.0209,8.0209,8.0209,8.0209,8.0209,8.0209,8.0209,8.0209,8.0209,8.0209,8.0209,8.0209,8.0209,8.0209,8.0209,8.0209,8.0209,8.0209,8.0209,8.0445,8.083,8.1202,8.1845,8.2488,8.2847,8.3524,8.42,8.4512,8.4323,8.4539,8.6061,8.6332,8.6569,8.7313,8.7753,8.826,8.8984,8.9424,8.9918,9.0662,9.1744,9.2605,9.2962,9.3349,9.3451,9.303,9.1947,9.1135,9.0763,8.9729,8.9255,8.9613,9.0696,9.1657,9.2435,9.3214,9.2544,9.0386,9.0386,8.9659,8.8266,8.8581,8.951,0.0,0.0,0.0,0.0,0.0,5.8481,0.0,0.0,0.0,6.2753,6.2492,6.2323,6.4285,6.4241,6.4715,6.7015,6.8571,6.9868,7.077,7.3612,7.5709,7.6014,7.6804,7.7176,7.6724,7.6555,7.6893,7.7921,7.8822,7.9532,7.9972,8.0107,8.0209,8.0209,8.0209,8.0141,8.0006,7.9384,7.864,7.7785,7.7164,7.6555,7.5946,7.6589,7.7367,7.8259,7.8843,7.952,8.0209,8.0209,8.0209,8.0209,8.0209,8.0209,8.0209,8.0209,8.0209,8.0209,8.0209,8.0209,8.0209,8.0209,8.0209,8.0209,8.0209,8.0209,8.0242,8.0378,8.083,8.1405,8.1811,8.2813,8.3659,8.3342,8.4573,8.5669,8.5168,8.5452,8.6075,8.6941,8.7096,8.7299,8.7888,8.7989,8.8192,8.8815,9.0121,9.1102,9.1102,9.2571,9.3586,9.3586,9.3451,9.3098,9.2474,9.1595,9.0831,9.0242,8.9526,8.9357,8.9951,9.0696,9.1812,9.3349,9.3383,9.276,9.1494,9.1791,9.0579,8.808,8.9765,9.1039,0.0,0.0,0.0,0.0,6.0805,0.0,0.0,0.0,5.9742,5.8838,0.0,5.9665,6.0554,0.0,0.0,6.1197,6.4536,6.6802,6.5662,6.865,7.1458,7.2766,7.4142,7.519,7.5777,7.5224,7.5743,7.7853,7.6893,7.7096,7.9114,7.9837,8.0209,8.0209,8.0209,7.9904,7.9215,7.9147,7.8403,7.7029,7.6927,7.686,7.6758,7.686,7.7671,7.8978,7.9046,7.952,8.0209,8.0209,8.0209,8.0209,8.0209,8.0209,8.0209,8.0209,8.0209,8.0209,8.0209,8.0209,8.0209,8.0209,8.0209,8.0209,8.0209,8.0209,8.0344,8.0999,8.1236,8.1744,8.3714,8.4343,8.4796,8.6081,8.6095,8.5939,8.6521,8.6196,8.621,8.7583,8.7888,8.7888,8.7989,8.7989,8.8023,8.8091,8.9376,9.0309,9.0309,9.2218,9.3586,9.3586,9.2962,9.2508,9.2406,9.1121,9.0275,9.0208,8.9526,8.912,8.9221,8.9918,9.102,9.2508,9.2542,9.2192,9.1494,9.2759,9.2544,9.1007,9.1239,9.2078,0.0,0.0,0.0,0.0,0.0,0.0,5.9133,0.0,5.8896,0.0,0.0,0.0,0.0,0.0,0.0,0.0,6.3024,6.4174,6.3994,6.5696,6.8007,7.0781,7.165,7.2496,7.368,7.351,7.4086,7.5879,7.5439,7.6048,7.8348,7.916,7.9769,8.0175,8.0209,8.004,7.9735,7.9317,7.8775,7.8167,7.7739,7.7548,7.7536,7.7976,7.8754,7.9769,8.0175,8.056,8.083,8.083,8.0593,8.0209,8.0209,8.0209,8.0242,8.0695,8.056,8.0242,8.0695,8.083,8.083,8.083,8.056,8.0209,8.0209,8.0784,8.1562,8.1866,8.2543,8.3558,8.4945,8.5608,8.6115,8.6758,8.7008,8.7042,8.6927,8.6656,8.6636,8.7245,8.738,8.7516,8.7922,8.7989,8.7989,8.7989,8.8531,8.9072,8.9526,9.0763,9.1778,9.2232,9.1947,9.1595,9.1155,9.0546,9.0019,8.9579,8.9255,8.9289,8.9715,9.0053,9.0884,9.2373,9.2392,9.2529,9.2729,9.3301,9.3286,9.2729,9.2729,9.3048,6.0351,0.0,0.0,0.0,0.0,0.0,0.0,0.0,0.0,0.0,0.0,0.0,0.0,0.0,6.0105,6.1545,0.0,6.2212,6.2506,6.3386,6.5222,6.8582,6.9699,7.0612,7.1684,7.1244,7.1751,7.3837,7.3431,7.4356,7.721,7.828,7.916,7.987,8.0073,8.0209,8.0209,7.9667,7.9283,7.908,7.8551,7.8293,7.8327,7.8855,7.9621,8.0526,8.0864,8.1101,8.127,8.1067,8.0695,8.0209,8.0209,8.031,8.056,8.1101,8.1101,8.0885,8.1439,8.1608,8.1575,8.1372,8.0932,8.0445,8.0242,8.1224,8.2428,8.2631,8.3781,8.5168,8.6142,8.6805,8.7231,8.7448,8.7617,8.7617,8.7279,8.6859,8.6656,8.6859,8.6893,8.713,8.7854,8.782,8.7753,8.7955,8.8158,8.8511,8.9018,8.9918,9.0729,9.1237,9.1102,9.0797,9.0256,9.0019,8.9681,8.912,8.9086,8.9357,8.9884,8.9918,9.0478,9.1764,9.2,9.2474,9.3267,9.3484,9.3586,9.3586,9.3586,9.3586,0.0,0.0,0.0,6.0723,0.0,0.0,0.0,0.0,6.0994,0.0,0.0,0.0,0.0,6.1738,6.0994,6.0283,6.0825,0.0,0.0,6.1511,6.3304,6.5571,6.8413,7.0206,7.0274,6.8256,6.8527,7.2191,7.05,7.1176,7.554,7.721,7.8382,7.9114,7.9837,8.0209,8.0209,8.0175,7.9803,7.9114,7.908,7.9046,7.908,7.908,7.9904,8.1236,8.0513,8.0661,8.1236,8.0513,8.0209,8.0209,8.0209,8.0661,8.127,8.1304,8.1731,8.2327,8.2361,8.2361,8.2272,8.1541,8.127,8.1135,8.0412,8.1224,8.253,8.3253,8.4586,8.6108,8.755,8.7955,8.8125,8.8849,8.7955,8.713,8.782,8.6853,8.6041,8.6758,8.6893,8.713,8.7854,8.7414,8.7164,8.7888,8.8612,8.9052,8.9086,9.0372,9.1271,9.1305,9.0662,9.0222,9.0208,8.956,8.912,8.9086,8.9086,8.912,8.912,8.912,8.9492,9.0242,9.0966,9.1711,9.244,9.3199,9.3586,9.3586,9.3586,9.3586,0.0,0.0,6.3937,6.2675,0.0,0.0,0.0,0.0,0.0,0.0,0.0,0.0,0.0,6.1467,6.1231,6.0926,6.0274,5.9665,0.0,6.025,6.1545,6.3304,6.6136,6.7963,6.7963,6.7242,6.7749,7.0026,6.9969,7.1345,7.4784,7.6906,7.8348,7.908,7.9837,8.0209,8.0209,8.0209,8.0073,7.9837,8.031,8.056,8.056,8.1042,8.1549,8.2035,8.2272,8.1981,8.1304,8.1562,8.1088,8.0209,8.0209,8.0953,8.2035,8.2035,8.2205,8.2462,8.2949,8.2813,8.2428,8.2678,8.2759,8.2611,8.1866,8.3409,8.5351,8.5093,8.6108,8.738,8.7854,8.7651,8.7333,8.7583,8.6873,8.6244,8.6481,8.5723,8.5067,8.5337,8.5824,8.6244,8.6514,8.6738,8.713,8.7888,8.7786,8.782,8.8294,8.8801,8.9323,8.9796,8.9627,8.9478,8.9478,8.9255,8.9086,8.9086,8.9086,8.9086,8.9086,8.9086,8.9458,9.0174,9.0459,9.1189,9.2392,9.2677,9.3064,9.3586,9.3586,9.3586,6.441,6.4783,0.0,6.4062,6.3531,0.0,6.0655,0.0,0.0,0.0,0.0,0.0,0.0,6.183,6.1298,6.1298,6.0003,5.9013,0.0,5.9868,6.1095,6.2618,6.4705,6.6227,6.6768,6.6328,6.6971,6.9316,6.918,7.0534,7.4018,7.6093,7.7638,7.8686,7.9667,8.0209,8.0209,8.0209,8.0209,8.0209,8.0966,8.1304,8.1338,8.234,8.278,8.2813,8.3287,8.2962,8.2116,8.2306,8.1697,8.0593,8.0593,8.1325,8.2395,8.2395,8.2733,8.324,8.3714,8.3578,8.3274,8.3761,8.3883,8.3781,8.3342,8.4931,8.6792,8.6332,8.7245,8.8342,8.8057,8.7651,8.7231,8.6961,8.6332,8.5804,8.5804,8.5182,8.4614,8.4614,8.5033,8.5452,8.5736,8.6196,8.6839,8.7854,8.7617,8.755,8.8308,8.8409,8.8578,8.9052,8.9086,8.9086,8.9086,8.9086,8.9086,8.9086,8.9086,8.9086,8.9086,8.9086,8.9323,8.9816,9.0087,9.0783,9.2,9.2271,9.2812,9.3586,9.3586,9.3586]},{"header":{"parameterUnit":"m.s-1","parameterCategory":1,"la1":30.6,"la2":29.2853,"lo1":-89.7004,"lo2":-87.6739,"dy":0.0162,"dx":0.0183,"nx":112,"ny":82,"refTime":"2024-10-05T12:00:00:Z","depth":0,"parameterNumber":3,"parameterNumberName":"V-component_of_WINDS"},"data":[0.0,0.0,0.0,0.0,0.0,0.0,0.0,0.0,0.0,0.0,0.0,0.0,0.0,0.0,0.0,0.0,0.0,0.0,0.0,0.0,0.0,0.0,0.0,0.0,0.0,0.0,0.0,0.0,0.0,0.0,0.0,0.0,0.0,0.0,0.0,0.0,0.0,0.0,0.0,0.0,0.0,0.0,0.0,0.0,0.0,0.0,0.0,0.0,0.0,0.0,0.0,0.0,0.0,0.0,0.0,0.0,0.0,0.0,0.0,0.0,0.0,0.0,0.0,0.0,0.0,0.0,0.0,0.0,0.0,0.0,0.0,0.0,0.0,0.0,0.0,0.0,0.0,0.0,0.0,0.0,0.0,0.0,0.0,0.0,0.0,0.0,0.0,0.0,0.0,0.0,2.5902,2.7229,2.7573,2.7833,2.8177,2.7708,2.6971,2.595,0.0,0.0,0.0,0.0,0.0,0.0,0.0,0.0,0.0,0.0,0.0,0.0,0.0,0.0,0.0,0.0,0.0,0.0,0.0,0.0,0.0,0.0,0.0,0.0,0.0,0.0,0.0,0.0,0.0,0.0,0.0,0.0,0.0,0.0,0.0,0.0,0.0,0.0,0.0,0.0,0.0,0.0,0.0,0.0,0.0,0.0,0.0,0.0,0.0,0.0,0.0,0.0,0.0,0.0,0.0,0.0,0.0,0.0,0.0,0.0,0.0,0.0,0.0,0.0,0.0,0.0,0.0,0.0,0.0,0.0,0.0,0.0,0.0,0.0,0.0,0.0,0.0,0.0,0.0,0.0,0.0,0.0,0.0,0.0,0.0,0.0,0.0,0.0,0.0,0.0,0.0,0.0,0.0,0.0,0.0,0.0,0.0,0.0,0.0,0.0,0.0,0.0,0.0,0.0,2.6123,2.8018,2.7651,2.7538,2.8158,2.7708,2.6971,2.595,0.0,0.0,0.0,0.0,0.0,0.0,0.0,0.0,0.0,0.0,0.0,0.0,0.0,0.0,0.0,0.0,0.0,0.0,0.0,0.0,0.0,0.0,0.0,0.0,0.0,0.0,0.0,0.0,0.0,0.0,0.0,0.0,0.0,0.0,0.0,0.0,0.0,0.0,0.0,0.0,0.0,0.0,0.0,0.0,0.0,0.0,0.0,0.0,0.0,0.0,0.0,0.0,0.0,0.0,0.0,0.0,0.0,0.0,0.0,0.0,0.0,0.0,0.0,0.0,0.0,0.0,0.0,0.0,0.0,0.0,0.0,0.0,0.0,0.0,0.0,0.0,0.0,0.0,0.0,0.0,0.0,0.0,0.0,0.0,0.0,0.0,0.0,0.0,0.0,0.0,0.0,0.0,0.0,0.0,0.0,0.0,0.0,0.0,0.0,0.0,0.0,0.0,0.0,2.624,2.6986,2.8568,2.8014,2.7761,2.8375,2.7791,2.6942,2.5854,2.573,0.0,0.0,0.0,0.0,0.0,0.0,0.0,0.0,0.0,0.0,0.0,0.0,0.0,0.0,0.0,0.0,0.0,0.0,0.0,0.0,0.0,0.0,0.0,0.0,0.0,0.0,0.0,0.0,0.0,0.0,0.0,0.0,0.0,0.0,0.0,0.0,0.0,0.0,0.0,0.0,0.0,0.0,0.0,0.0,0.0,0.0,0.0,0.0,0.0,0.0,0.0,0.0,0.0,0.0,0.0,0.0,0.0,0.0,0.0,0.0,0.0,0.0,0.0,0.0,0.0,0.0,0.0,0.0,0.0,0.0,0.0,0.0,0.0,0.0,0.0,0.0,0.0,0.0,0.0,0.0,0.0,0.0,0.0,0.0,0.0,0.0,0.0,0.0,0.0,0.0,0.0,0.0,0.0,0.0,0.0,0.0,0.0,0.0,0.0,0.0,0.0,0.0,2.7534,2.7738,2.8751,2.8292,2.8012,2.8347,2.7655,2.6747,2.5662,2.5474,0.0,0.0,0.0,0.0,0.0,0.0,0.0,0.0,0.0,0.0,0.0,0.0,0.0,0.0,0.0,0.0,0.0,0.0,0.0,0.0,0.0,0.0,0.0,0.0,0.0,0.0,0.0,0.0,0.0,0.0,0.0,0.0,0.0,0.0,0.0,0.0,0.0,0.0,0.0,0.0,0.0,0.0,0.0,0.0,0.0,0.0,0.0,0.0,0.0,0.0,0.0,0.0,0.0,0.0,0.0,0.0,0.0,0.0,0.0,0.0,0.0,0.0,0.0,0.0,0.0,0.0,0.0,0.0,0.0,0.0,0.0,0.0,0.0,0.0,0.0,0.0,0.0,0.0,0.0,0.0,0.0,0.0,0.0,0.0,0.0,0.0,0.0,0.0,0.0,0.0,0.0,0.0,0.0,0.0,0.0,0.0,0.0,0.0,0.0,0.0,0.0,0.0,2.7316,2.794,2.8388,2.8284,2.8028,2.7698,2.7053,2.6282,2.5378,2.4807,0.0,0.0,0.0,0.0,0.0,0.0,0.0,0.0,0.0,0.0,0.0,0.0,0.0,0.0,0.0,0.0,0.0,0.0,0.0,0.0,0.0,0.0,0.0,0.0,0.0,0.0,0.0,0.0,0.0,0.0,0.0,0.0,0.0,0.0,0.0,0.0,0.0,0.0,0.0,0.0,0.0,0.0,0.0,0.0,0.0,0.0,0.0,0.0,0.0,0.0,0.0,0.0,0.0,0.0,0.0,0.0,0.0,0.0,0.0,0.0,0.0,0.0,0.0,0.0,0.0,0.0,0.0,0.0,0.0,0.0,0.0,0.0,0.0,0.0,0.0,0.0,0.0,0.0,0.0,0.0,0.0,0.0,0.0,0.0,0.0,0.0,0.0,0.0,0.0,0.0,0.0,0.0,0.0,0.0,0.0,0.0,0.0,0.0,0.0,0.0,0.0,0.0,2.7285,2.7775,0.0,2.8509,2.8304,2.8216,2.7749,2.6926,2.5632,0.0,0.0,0.0,0.0,0.0,0.0,0.0,0.0,0.0,0.0,0.0,0.0,0.0,0.0,0.0,0.0,0.0,0.0,0.0,0.0,0.0,0.0,0.0,0.0,0.0,0.0,0.0,0.0,0.0,0.0,0.0,0.0,0.0,0.0,0.0,0.0,0.0,0.0,0.0,0.0,0.0,0.0,0.0,0.0,0.0,0.0,0.0,0.0,0.0,0.0,0.0,0.0,0.0,0.0,0.0,0.0,0.0,0.0,0.0,0.0,0.0,0.0,0.0,0.0,0.0,0.0,0.0,0.0,0.0,0.0,0.0,0.0,0.0,0.0,0.0,0.0,0.0,0.0,0.0,0.0,0.0,0.0,0.0,0.0,0.0,0.0,0.0,0.0,0.0,0.0,0.0,0.0,0.0,0.0,0.0,0.0,0.0,0.0,0.0,0.0,0.0,0.0,2.7047,2.753,2.8032,0.0,2.8787,2.8644,2.8567,2.8022,2.7121,2.5779,0.0,0.0,0.0,0.0,0.0,0.0,0.0,0.0,0.0,0.0,0.0,0.0,0.0,0.0,0.0,0.0,0.0,0.0,0.0,0.0,0.0,0.0,0.0,0.0,0.0,0.0,0.0,0.0,0.0,0.0,0.0,0.0,0.0,0.0,0.0,0.0,0.0,0.0,0.0,0.0,0.0,0.0,0.0,0.0,0.0,0.0,0.0,0.0,0.0,0.0,0.0,0.0,0.0,0.0,0.0,0.0,0.0,0.0,0.0,0.0,0.0,0.0,0.0,0.0,0.0,0.0,0.0,0.0,0.0,0.0,0.0,0.0,0.0,0.0,0.0,0.0,0.0,0.0,0.0,0.0,0.0,0.0,0.0,0.0,0.0,0.0,0.0,0.0,0.0,0.0,0.0,0.0,0.0,0.0,0.0,0.0,0.0,0.0,0.0,0.0,0.0,0.0,2.6921,2.807,2.882,2.882,2.9114,2.9075,2.8542,2.759,2.6635,0.0,0.0,0.0,0.0,0.0,0.0,0.0,0.0,0.0,0.0,0.0,0.0,0.0,0.0,0.0,0.0,0.0,0.0,0.0,0.0,0.0,0.0,0.0,0.0,0.0,0.0,0.0,0.0,0.0,0.0,0.0,0.0,0.0,0.0,0.0,0.0,0.0,0.0,0.0,0.0,0.0,0.0,0.0,0.0,0.0,0.0,0.0,0.0,0.0,0.0,0.0,0.0,0.0,0.0,0.0,0.0,0.0,0.0,0.0,0.0,0.0,0.0,0.0,0.0,0.0,0.0,0.0,0.0,0.0,0.0,0.0,0.0,0.0,0.0,0.0,0.0,0.0,0.0,0.0,0.0,0.0,0.0,0.0,0.0,0.0,0.0,0.0,0.0,0.0,0.0,0.0,0.0,0.0,0.0,0.0,0.0,0.0,0.0,0.0,0.0,0.0,0.0,0.0,2.7859,2.8691,2.9261,2.9548,2.9645,2.9512,2.897,2.8388,2.7382,2.5791,0.0,0.0,0.0,0.0,0.0,0.0,0.0,0.0,0.0,0.0,0.0,0.0,0.0,0.0,0.0,0.0,0.0,0.0,0.0,0.0,0.0,0.0,0.0,0.0,0.0,0.0,0.0,0.0,0.0,0.0,0.0,0.0,0.0,0.0,0.0,0.0,0.0,0.0,0.0,0.0,0.0,0.0,0.0,0.0,0.0,0.0,0.0,0.0,0.0,0.0,0.0,0.0,0.0,0.0,0.0,0.0,0.0,0.0,0.0,0.0,0.0,0.0,0.0,0.0,0.0,0.0,0.0,0.0,0.0,0.0,0.0,0.0,0.0,0.0,0.0,0.0,0.0,0.0,0.0,0.0,0.0,0.0,0.0,0.0,0.0,0.0,0.0,0.0,0.0,0.0,0.0,0.0,0.0,0.0,0.0,0.0,0.0,0.0,0.0,0.0,0.0,0.0,2.8334,2.9369,3.0056,3.0308,3.0194,2.9886,2.9354,2.8904,2.7887,2.6089,0.0,0.0,0.0,0.0,0.0,0.0,0.0,0.0,0.0,0.0,0.0,0.0,0.0,0.0,0.0,0.0,0.0,0.0,0.0,0.0,0.0,0.0,0.0,0.0,0.0,0.0,0.0,0.0,0.0,0.0,0.0,0.0,0.0,0.0,0.0,0.0,0.0,0.0,0.0,0.0,0.0,0.0,0.0,0.0,0.0,0.0,0.0,0.0,0.0,0.0,0.0,0.0,0.0,0.0,0.0,0.0,0.0,0.0,0.0,0.0,0.0,0.0,0.0,0.0,0.0,0.0,0.0,0.0,0.0,0.0,0.0,0.0,0.0,0.0,0.0,0.0,0.0,0.0,0.0,0.0,0.0,0.0,0.0,0.0,0.0,0.0,0.0,0.0,0.0,0.0,0.0,0.0,0.0,0.0,0.0,0.0,0.0,0.0,0.0,0.0,0.0,0.0,2.8575,3.007,3.1052,3.1052,3.0705,3.0277,2.9707,2.9199,2.8209,2.6614,0.0,0.0,0.0,0.0,0.0,0.0,0.0,0.0,0.0,0.0,0.0,0.0,0.0,0.0,0.0,0.0,0.0,0.0,0.0,0.0,0.0,0.0,0.0,0.0,0.0,0.0,0.0,0.0,0.0,0.0,0.0,0.0,0.0,0.0,0.0,0.0,0.0,0.0,0.0,0.0,0.0,0.0,0.0,0.0,0.0,0.0,0.0,0.0,0.0,0.0,0.0,0.0,0.0,0.0,0.0,0.0,0.0,0.0,0.0,0.0,2.2745,0.0,0.0,0.0,0.0,0.0,0.0,0.0,0.0,0.0,0.0,0.0,0.0,0.0,0.0,0.0,0.0,0.0,0.0,0.0,0.0,0.0,0.0,0.0,0.0,0.0,0.0,0.0,0.0,0.0,0.0,0.0,0.0,0.0,0.0,0.0,0.0,0.0,0.0,0.0,0.0,0.0,2.9642,3.0757,3.1385,3.1385,3.1322,3.0942,3.0137,2.9342,2.8476,2.7487,2.6269,0.0,0.0,0.0,0.0,0.0,0.0,0.0,0.0,0.0,0.0,0.0,0.0,0.0,0.0,0.0,0.0,0.0,0.0,0.0,0.0,0.0,0.0,0.0,0.0,0.0,0.0,0.0,0.0,0.0,0.0,0.0,0.0,0.0,0.0,0.0,0.0,0.0,0.0,0.0,0.0,0.0,0.0,0.0,0.0,0.0,0.0,0.0,0.0,0.0,0.0,0.0,0.0,0.0,0.0,0.0,0.0,0.0,0.0,0.0,0.0,2.4833,0.0,0.0,0.0,0.0,0.0,0.0,0.0,0.0,0.0,0.0,0.0,0.0,0.0,0.0,0.0,0.0,0.0,0.0,0.0,0.0,0.0,0.0,0.0,0.0,0.0,0.0,0.0,0.0,0.0,0.0,0.0,0.0,0.0,0.0,0.0,0.0,0.0,0.0,0.0,0.0,3.0,3.1152,3.1914,3.2094,3.1743,3.1235,3.0586,2.9922,2.9082,2.8041,2.7148,0.0,0.0,0.0,0.0,0.0,0.0,0.0,0.0,0.0,0.0,0.0,0.0,0.0,0.0,0.0,0.0,0.0,0.0,0.0,0.0,0.0,0.0,0.0,0.0,0.0,0.0,0.0,0.0,0.0,0.0,0.0,0.0,0.0,0.0,0.0,0.0,0.0,0.0,0.0,0.0,0.0,0.0,0.0,0.0,0.0,0.0,0.0,0.0,0.0,0.0,0.0,0.0,0.0,2.4969,2.5143,2.6247,2.7397,2.8444,2.9261,2.7514,2.6862,2.6996,2.6474,0.0,0.0,0.0,0.0,0.0,0.0,0.0,0.0,0.0,0.0,0.0,0.0,0.0,0.0,0.0,0.0,0.0,0.0,0.0,0.0,0.0,0.0,0.0,0.0,2.9526,3.0059,0.0,0.0,0.0,0.0,0.0,0.0,0.0,0.0,0.0,0.0,0.0,0.0,3.0254,3.1519,3.2437,3.2754,3.2075,3.1465,3.1035,3.0508,2.9746,2.8705,2.8191,2.7604,0.0,0.0,0.0,0.0,0.0,0.0,0.0,0.0,0.0,0.0,0.0,0.0,0.0,0.0,0.0,0.0,0.0,0.0,0.0,0.0,0.0,0.0,0.0,0.0,0.0,0.0,0.0,0.0,0.0,0.0,0.0,0.0,1.8487,1.8047,0.0,0.0,0.0,0.0,0.0,0.0,0.0,0.0,0.0,0.0,0.0,0.0,0.0,2.407,2.526,2.5719,2.6291,2.6999,2.7934,2.8472,2.8713,3.0627,3.1367,3.1162,3.1268,0.0,2.9142,2.8682,0.0,0.0,0.0,0.0,0.0,0.0,0.0,0.0,0.0,0.0,0.0,0.0,0.0,0.0,0.0,0.0,0.0,0.0,0.0,0.0,0.0,0.0,3.1749,3.1631,3.1768,3.1866,0.0,2.978,2.806,2.7545,2.7487,0.0,0.0,0.0,0.0,0.0,0.0,0.0,3.1157,3.2148,3.2734,3.2793,3.2378,3.1929,3.145,3.0664,3.0137,2.9961,2.9199,2.8697,2.858,2.7389,0.0,0.0,0.0,0.0,0.0,0.0,0.0,0.0,0.0,0.0,0.0,0.0,0.0,0.0,0.0,0.0,0.0,0.0,0.0,0.0,0.0,0.0,0.0,0.0,0.0,0.0,0.0,0.0,0.0,1.8598,1.9031,1.8772,1.9007,1.9192,0.0,0.0,0.0,0.0,0.0,0.0,0.0,0.0,0.0,2.555,2.6958,2.7762,2.79,2.8361,2.9056,3.0013,2.9811,3.0117,3.0878,3.1776,3.2203,3.2246,3.2457,3.2105,3.1323,3.041,2.9819,2.9428,0.0,0.0,0.0,0.0,2.8887,2.8607,2.9584,2.959,0.0,2.8855,0.0,0.0,0.0,0.0,0.0,0.0,0.0,0.0,0.0,0.0,3.2257,3.2476,3.2711,3.2871,3.2871,3.1973,3.084,0.0,2.9682,2.9316,2.7747,0.0,0.0,0.0,0.0,3.0405,3.1734,3.2422,3.2891,3.3109,3.2773,3.2359,3.1929,3.1309,3.0723,3.0234,2.9844,2.9531,2.9297,2.8502,2.7877,0.0,0.0,0.0,0.0,0.0,0.0,0.0,0.0,0.0,0.0,0.0,0.0,0.0,0.0,0.0,0.0,0.0,0.0,0.0,0.0,0.0,0.0,0.0,0.0,0.0,0.0,0.0,0.0,1.9496,2.0094,1.9588,2.0267,2.0639,0.0,0.0,0.0,0.0,0.0,0.0,2.3968,2.6108,2.7684,2.8468,3.0037,3.0825,3.0658,3.0788,3.1404,3.2515,3.1502,3.1533,3.2515,3.2628,3.2789,3.2969,3.3066,3.3066,3.2871,3.1816,3.1323,3.1167,3.0517,3.0263,3.0341,3.0991,3.0815,3.0439,3.1749,3.1788,3.1147,3.0595,0.0,2.9682,2.8398,0.0,0.0,0.0,0.0,3.0439,3.1187,3.1949,3.2574,3.2871,3.3281,3.3594,3.3594,3.3656,3.3265,0.0,3.1641,3.1255,2.9434,0.0,0.0,0.0,0.0,3.1108,3.2203,3.2695,3.3066,3.3363,3.3047,3.2691,3.2394,3.1836,3.1216,3.0566,3.043,3.0293,3.0092,2.9648,2.9205,2.8789,0.0,0.0,0.0,0.0,0.0,0.0,0.0,0.0,0.0,0.0,0.0,0.0,0.0,0.0,0.0,0.0,0.0,0.0,0.0,0.0,0.0,0.0,0.0,0.0,0.0,0.0,0.0,0.0,0.0,2.0361,2.2084,0.0,0.0,0.0,0.0,2.0728,2.4138,2.6274,2.6334,2.7892,2.9759,3.1882,3.1263,3.1634,3.321,3.2856,3.2891,3.3344,3.328,3.328,3.3363,3.3805,3.3785,3.3402,3.3844,3.3785,3.3344,3.2891,3.2476,3.212,3.2081,3.2061,3.2081,3.212,3.2101,3.2081,3.2179,3.2179,3.2198,3.2535,3.1816,3.0835,3.0723,3.0131,0.0,0.0,3.1401,3.2179,3.2578,3.3027,3.3344,3.3363,3.373,3.4059,3.4059,3.4372,3.4258,0.0,3.2715,3.2441,3.1489,0.0,3.1372,3.1372,3.1792,3.2257,3.2695,3.3109,3.3383,3.3402,3.3047,3.2793,3.2773,3.1977,3.1489,3.143,3.1074,3.1035,3.1391,3.1016,3.0566,3.0117,2.8848,0.0,0.0,0.0,0.0,0.0,0.0,0.0,0.0,0.0,0.0,0.0,0.0,0.0,0.0,0.0,0.0,0.0,0.0,0.0,0.0,0.0,0.0,0.0,0.0,0.0,0.0,0.0,0.0,2.1246,2.322,0.0,2.2528,2.4655,2.5266,2.3173,2.7443,2.9405,2.7764,3.0571,3.2609,3.3395,3.3373,3.3646,3.4222,3.4101,3.4101,3.4238,3.4238,3.4238,3.4238,3.4414,3.4394,3.4258,3.4414,3.4394,3.4238,3.4082,3.3613,3.2969,3.2969,3.2969,3.2969,3.2969,3.2969,3.2969,3.2969,3.2969,3.2949,3.2832,3.232,3.1749,3.1749,3.1695,3.1734,3.2046,3.2519,3.3008,3.3148,3.3516,3.3864,3.3864,3.4176,3.4489,3.4489,3.4606,3.457,3.4101,3.4023,3.375,3.2875,3.2969,3.3066,3.2777,3.2871,3.3125,3.357,3.3496,3.3402,3.3402,3.3265,3.307,3.2812,3.2281,3.1816,3.1528,3.1133,3.0957,3.1113,3.1216,3.1094,3.0644,2.9902,2.8764,0.0,0.0,0.0,0.0,0.0,0.0,0.0,0.0,0.0,0.0,0.0,0.0,0.0,0.0,0.0,0.0,0.0,0.0,0.0,0.0,0.0,0.0,0.0,0.0,0.0,2.2219,2.2689,2.2704,2.4344,2.4918,2.3532,2.6193,2.6995,2.4595,2.9215,3.1238,2.913,3.2375,3.4372,3.4528,3.4802,3.5,3.5137,3.5,3.4941,3.4941,3.4941,3.4941,3.4941,3.4941,3.4941,3.4941,3.4941,3.4844,3.4707,3.4863,3.4512,3.3832,3.3832,3.3832,3.3832,3.3832,3.3832,3.3832,3.3832,3.3754,3.3594,3.3336,3.2945,3.2613,3.2613,3.2793,3.3008,3.3008,3.3187,3.3441,3.3613,3.3864,3.4118,3.4274,3.4626,3.4941,3.4941,3.5039,3.5156,3.5156,3.4902,3.4512,3.3929,3.4101,3.4196,3.389,3.3714,3.375,3.4059,3.3691,3.3402,3.3402,3.3402,3.3226,3.2832,3.2418,3.2007,3.1528,3.1133,3.0957,3.1094,3.1352,3.1372,3.1113,3.0508,2.9648,2.8542,0.0,0.0,0.0,0.0,0.0,0.0,0.0,0.0,0.0,0.0,0.0,0.0,0.0,0.0,0.0,0.0,0.0,0.0,0.0,0.0,0.0,0.0,0.0,2.4799,2.4818,2.4656,2.4837,2.561,2.5264,2.3059,2.5389,2.6414,2.4912,2.9386,3.1702,3.0547,3.3188,3.4941,3.5391,3.543,3.5625,3.6018,3.5644,3.5449,3.5449,3.5449,3.5449,3.543,3.5449,3.5449,3.543,3.5449,3.5195,3.4824,3.5273,3.5176,3.4766,3.4726,3.4707,3.4707,3.4707,3.4707,3.4707,3.4707,3.445,3.4114,3.4114,3.3809,3.3441,3.3441,3.3441,3.3441,3.3441,3.3441,3.3539,3.4,3.4134,3.4235,3.4629,3.5078,3.541,3.541,3.5725,3.5999,3.5999,3.5332,3.4766,3.4746,3.4746,3.4746,3.4746,3.4391,0.0,3.4153,3.373,3.3422,3.3422,3.3422,3.3246,3.2851,3.2437,3.2027,3.1548,3.1133,3.1094,3.1489,3.1508,3.1528,3.1548,3.0669,3.0234,3.0234,0.0,0.0,0.0,0.0,0.0,0.0,0.0,0.0,0.0,0.0,0.0,0.0,0.0,0.0,0.0,0.0,0.0,0.0,0.0,0.0,0.0,2.6179,2.6667,2.6319,2.5308,2.5477,2.7837,2.8739,2.896,2.8378,3.088,3.1509,2.906,3.2366,3.3908,3.2585,3.449,3.5706,3.5823,3.6169,3.6384,3.6502,3.668,3.6777,3.6777,3.6777,3.6621,3.6345,3.6641,3.6619,3.6345,3.6641,3.6699,3.6601,3.6719,3.6699,3.6465,3.5195,3.4707,3.4707,3.4707,3.4707,3.4707,3.4707,3.4629,3.4547,3.4547,3.4453,3.4339,3.4339,3.4339,3.4339,3.4339,3.4339,3.4375,3.4492,3.4802,3.5075,3.5176,3.5527,3.5842,3.5842,3.592,3.5999,3.5999,3.6074,3.6052,3.5686,3.5647,3.5647,3.5647,3.5293,0.0,3.5056,3.4372,3.3903,3.3903,3.3597,3.3363,3.3246,3.2871,3.2457,3.2027,3.1582,3.1391,3.1489,3.1831,3.2144,3.2441,3.1601,3.1138,0.0,0.0,0.0,0.0,0.0,0.0,0.0,0.0,0.0,0.0,0.0,0.0,0.0,0.0,0.0,0.0,0.0,0.0,0.0,0.0,0.0,0.0,2.8164,2.8898,2.8851,2.7731,2.7849,3.042,3.0575,3.0463,3.0496,3.2698,3.3178,3.0874,3.377,3.5017,3.3603,3.5284,3.6289,3.6289,3.6736,3.6951,3.6951,3.7168,3.7305,3.7305,3.7305,3.7168,3.697,3.7187,3.7168,3.697,3.7205,3.7305,3.7305,3.7305,3.7305,0.0,0.0,0.0,0.0,0.0,3.5237,3.5237,3.5237,3.5137,3.498,3.498,3.4863,3.4707,3.4707,3.4707,3.4707,3.4707,3.4707,3.4746,3.4941,3.5195,3.543,3.5605,3.5976,3.6289,3.6289,3.6289,3.6348,3.6506,3.6638,0.0,3.6562,3.6389,3.6289,3.6289,3.5781,3.5391,3.5391,3.4782,3.4352,3.4352,3.4101,3.3887,3.3711,3.3301,0.0,0.0,0.0,3.1875,3.2051,3.232,0.0,0.0,0.0,0.0,0.0,0.0,0.0,0.0,3.4391,3.4469,0.0,0.0,0.0,0.0,0.0,0.0,0.0,0.0,0.0,0.0,0.0,0.0,0.0,0.0,0.0,0.0,2.9306,3.0182,3.1964,3.1368,3.1294,3.2738,3.1702,3.094,3.1093,3.2637,3.3042,3.1668,3.4371,3.551,3.42,0.0,0.0,0.0,0.0,3.7363,3.7363,3.7422,3.7441,3.7441,3.7441,3.7422,3.7363,3.7422,3.7422,3.7363,3.7422,3.7441,3.7441,3.7441,3.7441,3.7441,3.7324,3.7088,3.6697,3.625,3.6077,3.6077,3.6018,0.0,0.0,3.5469,3.5176,3.4844,3.4844,3.4844,3.4844,3.4844,3.4844,3.4961,3.541,3.5564,3.5644,3.6038,3.6465,3.6773,3.6773,3.6773,3.6873,3.7226,3.7049,3.6951,3.7305,3.7029,3.6773,3.6773,3.6072,3.5564,3.5564,3.5098,3.4785,3.4785,0.0,0.0,3.429,3.3867,3.3441,3.3027,3.2672,3.2667,3.3066,3.3144,3.3906,3.5525,3.5176,3.5976,3.797,3.8126,3.8418,3.8768,3.6426,3.6133,0.0,0.0,0.0,0.0,0.0,0.0,0.0,0.0,0.0,0.0,0.0,0.0,0.0,0.0,0.0,3.126,3.2679,3.3838,3.4591,3.4789,3.4854,3.4856,3.3835,3.3626,3.4827,3.526,3.5352,3.506,3.598,3.6439,3.6143,3.6794,3.7168,3.7168,3.756,3.7795,3.7795,3.8144,3.8338,3.8338,0.0,0.0,3.7795,3.8182,3.8144,3.7814,3.8184,3.8338,3.8338,3.8338,3.8338,3.828,3.7559,3.7246,3.7129,3.6716,3.656,3.6502,3.6135,3.5959,3.5881,3.5881,3.5823,3.5745,3.5745,3.5745,0.0,3.5745,3.5745,3.5859,3.6326,3.646,3.6541,3.6953,3.7109,3.7168,3.7168,3.7168,3.7207,3.7285,3.75,3.7697,3.7775,3.7461,3.7168,3.7168,3.6756,3.646,3.646,3.5759,3.5254,3.5254,3.5254,3.5234,3.5173,3.5075,3.4824,3.4355,3.4258,3.4414,3.4883,3.5215,3.5723,3.6423,3.6697,3.7361,3.8475,3.9512,4.004,4.0118,3.961,3.9181,0.0,0.0,0.0,0.0,0.0,0.0,0.0,0.0,0.0,0.0,0.0,2.7232,2.8478,0.0,3.1924,3.2277,3.3881,3.4946,3.4626,3.542,3.592,3.5706,3.5233,3.5194,3.593,3.6211,3.6348,3.6348,3.6756,3.701,3.701,3.7383,3.7599,3.7599,3.8027,3.8242,3.8242,3.8495,3.8592,3.8592,3.8592,3.8475,3.8262,3.8495,3.8475,3.8262,3.8495,3.8592,3.8592,3.8592,3.8592,3.8553,3.8123,3.7812,3.7541,3.7166,3.701,3.697,3.6738,3.6523,3.6348,3.6348,3.6191,3.5999,3.5999,3.6155,3.6348,3.6348,3.6504,3.6701,3.6951,3.701,3.7049,3.7246,3.7461,3.7599,3.7599,3.7599,3.7676,3.7891,3.793,3.797,3.8223,3.8066,3.7871,3.7656,3.7246,3.701,3.701,3.6621,3.6348,3.6348,3.6348,3.6348,3.6348,3.6169,3.5857,3.5374,3.5335,3.5566,3.6033,3.623,3.6873,3.7928,3.8144,3.8807,3.9902,4.0742,4.1133,4.1152,4.1601,4.1328,0.0,0.0,0.0,0.0,0.0,0.0,0.0,2.3372,2.4145,2.7644,2.9013,2.9987,3.1302,3.2696,3.3521,3.3134,3.4445,3.522,3.4365,3.5245,3.5999,3.5999,3.5999,3.6038,3.6116,3.6482,3.6716,3.6795,3.7187,3.7422,3.7422,3.7795,3.8029,3.8029,3.8398,3.8592,3.8592,3.8592,3.8592,3.8592,3.8592,3.8592,3.8592,3.8592,3.8592,3.8592,3.8592,3.8592,3.8592,3.8592,3.8592,3.8592,3.8592,3.8359,3.8008,3.7578,3.7422,3.7402,3.7324,3.7088,3.6832,3.6832,3.6521,3.6135,3.6233,3.6465,3.6714,3.6775,3.7049,3.7324,3.7402,3.7422,3.7441,3.7519,3.7812,3.8029,3.8029,3.8029,3.8164,3.8514,3.8281,3.8164,3.8534,3.8592,3.8475,3.8087,3.7677,3.7422,3.7422,3.7344,3.7305,3.7305,3.7363,3.7422,3.7422,3.7127,3.6758,3.6389,3.6369,3.6604,3.7166,3.7264,3.8045,3.9551,3.959,4.0195,4.1445,4.1758,4.2012,4.2187,4.2891,4.2754,1.7692,1.85,1.958,2.1367,2.0954,2.1265,0.0,2.6493,2.6661,2.8239,3.0593,3.2204,3.1767,3.3253,3.4677,3.5034,3.5563,3.5889,3.5777,3.5896,3.5999,3.5999,3.5999,3.6155,3.658,3.6675,3.6834,3.7207,3.7617,3.7834,3.7834,3.8262,3.8514,3.8514,3.8573,3.8592,3.8592,3.8592,3.8592,3.8592,3.8592,3.8592,3.8592,3.8592,3.8592,3.8592,3.8592,3.8592,3.8592,3.8592,3.8592,3.8592,3.8592,3.8573,3.8475,3.799,3.7834,3.7775,3.7422,3.7266,3.7226,3.7226,3.697,3.6677,3.7051,3.6951,3.6775,3.7146,3.7266,3.7383,3.7736,3.7834,3.7931,3.8358,3.8495,3.8514,3.8514,3.8514,3.8534,3.8573,3.8553,3.8534,3.8592,3.8592,3.8573,3.8534,3.8125,3.7834,3.7834,3.7521,3.7305,3.7305,3.7619,3.7834,3.7834,3.7795,3.7736,3.7697,3.7697,3.8068,3.8887,3.9316,3.9999,4.0957,4.0976,4.1387,4.2265,4.2324,4.2734,4.3496,4.3594,4.3183,1.8764,1.9462,2.0197,2.1571,2.2563,2.3995,2.6919,2.865,3.0031,3.149,3.3133,3.4209,3.391,3.4727,3.551,3.5706,3.5881,3.5999,3.5999,3.5999,3.5999,3.5999,3.5999,3.6174,3.6638,3.7109,3.748,3.7638,3.8066,3.8301,3.8301,3.8495,3.8592,3.8592,3.8592,3.8592,3.8592,3.8592,3.8592,3.8592,3.8592,3.8592,3.8592,3.8592,3.8592,3.8592,3.8592,3.8592,3.8592,3.8592,3.8592,3.8592,3.8592,3.8592,3.8573,3.8377,3.8301,3.8281,3.8105,3.7871,3.7638,3.7638,3.7383,3.7088,3.7246,3.7344,3.7441,3.7599,3.7851,3.8104,3.8262,3.8301,3.8377,3.8553,3.8592,3.8592,3.8592,3.8592,3.8592,3.8592,3.8592,3.8592,3.8592,3.8592,3.8592,3.8592,3.8436,3.8301,3.8301,3.8162,3.8065,3.8065,3.8221,3.8301,3.8301,3.8301,3.8301,3.8301,3.8535,3.8927,3.957,3.9785,4.0312,4.1172,4.166,4.205,4.2402,4.3417,4.3983,4.4121,4.4355,4.4256,1.9459,2.047,2.1486,2.2407,2.451,2.6829,2.8675,3.0673,3.2621,3.4283,3.5117,3.5566,3.5566,3.5803,3.5999,3.5999,3.5999,3.5999,3.5999,3.5999,3.5999,3.5999,3.6116,3.6367,3.6814,3.7402,3.7834,3.8068,3.8416,3.8592,3.8592,3.8592,3.8592,3.8592,3.8592,3.8592,3.8592,3.8592,3.8592,3.8592,3.8592,3.8592,3.8592,3.8592,3.8592,3.8592,3.8592,3.8592,3.8592,3.8592,3.8592,3.8592,3.8592,3.8592,3.8592,3.8592,3.8592,3.8592,3.8592,3.8377,3.8087,3.8087,3.7812,3.75,3.7617,3.7773,3.7931,3.8048,3.834,3.8592,3.8592,3.8592,3.8592,3.8592,3.869,3.8768,3.8768,3.8866,3.8925,3.8788,3.8768,3.8729,3.8612,3.8592,3.8592,3.8592,3.8592,3.8592,3.8592,3.8592,3.8592,3.8592,3.8592,3.8592,3.8592,3.871,3.8768,3.8768,3.916,3.959,4.0059,4.0176,4.0605,4.1348,4.2168,4.2577,4.2597,4.41,4.4744,4.459,4.5,4.5115,1.9401,2.1501,2.3908,2.4785,2.6919,2.9422,3.1819,3.2823,3.3757,3.5571,3.5959,3.5979,3.5979,3.5999,3.5999,3.5999,3.5999,3.5999,3.5999,3.5999,3.5999,3.5999,3.6387,3.6834,3.7246,3.7305,3.7656,3.8514,3.8592,3.8592,3.8592,3.8592,3.8592,3.8592,3.8592,3.8592,3.8592,3.8592,3.8592,3.8592,3.8592,3.8592,3.8592,3.8592,3.8592,3.8592,3.8592,3.8592,3.8592,3.8592,3.8592,3.8592,3.8592,3.8592,3.8592,3.8592,3.8592,3.8592,3.8592,3.8592,3.8573,3.8573,3.8262,3.797,3.8436,3.8242,3.799,3.8456,3.8573,3.8592,3.8592,3.8592,3.8592,3.8592,3.8905,3.918,3.918,3.9531,3.9726,3.9277,3.918,3.9062,3.8671,3.8592,3.8592,3.8592,3.8592,3.8592,3.8592,3.8592,3.8592,3.8592,3.8592,3.8592,3.8592,3.8945,3.918,3.918,3.9609,4.0059,4.0469,4.0937,4.1367,4.1777,4.2637,4.3087,4.3087,4.3965,4.4629,4.4998,4.5449,4.543,2.0323,2.1763,2.3526,2.5691,2.8112,3.0502,3.2554,3.4101,3.5184,3.5524,3.5605,3.5508,3.5195,3.5391,3.5605,3.5605,3.5823,3.5999,3.5999,3.6269,3.6348,3.6038,3.6641,3.7148,3.7285,3.7539,3.7949,3.8553,3.8592,3.8592,3.8592,3.8592,3.8592,3.8592,3.8592,3.8592,3.8592,3.8592,3.8592,3.8592,3.8592,3.8592,3.8592,3.8592,3.8592,3.8592,3.8592,3.8592,3.8592,3.8592,3.8592,3.8592,3.8592,3.8592,3.8592,3.8592,3.8592,3.8592,3.8592,3.8592,3.8592,3.8592,3.8495,3.8379,3.8553,3.8495,3.8397,3.8553,3.8592,3.8592,3.8592,3.8592,3.8592,3.8592,3.871,3.8885,3.9141,3.9316,3.9473,3.9629,3.9668,3.9609,3.9491,3.9199,3.8984,3.8984,3.8768,3.8592,3.8592,3.8592,3.8592,3.8592,3.8592,3.8592,3.8592,3.8965,3.9199,3.9199,3.9902,4.0508,4.0957,4.1113,4.1504,4.2187,4.2793,4.3243,4.3496,4.4354,4.4862,4.5018,4.5154,4.5753,2.1018,2.2806,2.4693,2.6466,2.9475,3.2224,3.3048,3.4554,3.5647,3.5234,3.4902,3.459,3.4297,3.4476,3.4844,3.5312,3.5742,3.6116,3.6408,3.6719,3.6797,3.6487,3.6953,3.7363,3.75,3.7756,3.8087,3.8553,3.8592,3.8592,3.8592,3.8592,3.8592,3.8592,3.8592,3.8592,3.8592,3.8592,3.8592,3.8592,3.8592,3.8592,3.8592,3.8592,3.8592,3.8592,3.8592,3.8592,3.8592,3.8592,3.8592,3.8592,3.8592,3.8592,3.8592,3.8592,3.8592,3.8592,3.8592,3.8592,3.8592,3.8592,3.8592,3.8592,3.8592,3.8592,3.8592,3.8592,3.8592,3.8592,3.8592,3.8592,3.8592,3.8592,3.871,3.8944,3.9355,3.957,3.9766,4.0059,4.0117,4.0078,3.9922,3.9648,3.9453,3.9453,3.9219,3.9003,3.8846,3.8807,3.8768,3.8612,3.8592,3.8651,3.8807,3.9218,3.9512,3.9668,4.0351,4.0879,4.1191,4.1484,4.1797,4.2167,4.3086,4.3556,4.3476,4.4491,4.492,4.4805,4.5536,4.6064,2.1589,2.4471,2.7176,2.731,3.0941,3.4261,3.3385,3.4288,3.5176,3.4707,3.3929,3.3344,3.3304,3.3363,3.3832,3.5137,3.5742,3.633,3.7187,3.7324,3.7324,3.7305,3.7344,3.7519,3.7873,3.7931,3.8107,3.8573,3.8592,3.8592,3.8592,3.8592,3.8592,3.8592,3.8592,3.8592,3.8592,3.8592,3.8592,3.8592,3.8592,3.8592,3.8592,3.8592,3.8592,3.8592,3.8592,3.8592,3.8592,3.8592,3.8592,3.8592,3.8592,3.8592,3.8592,3.8592,3.8592,3.8592,3.8592,3.8592,3.8592,3.8592,3.8592,3.8592,3.8592,3.8592,3.8592,3.8592,3.8592,3.8592,3.8592,3.8592,3.8611,3.8631,3.8925,3.9336,3.9824,4.0215,4.0508,4.0528,4.0547,4.041,4.0,3.9922,3.9922,3.9922,3.9922,3.9766,3.9297,3.9238,3.9082,3.871,3.8671,3.8827,3.9199,3.9668,4.0098,4.0489,4.0937,4.1211,4.123,4.1972,4.2226,4.1875,4.3516,4.3945,4.3126,4.4439,4.485,4.4456,4.6489,4.6428,2.3675,2.4714,2.6046,2.9805,3.1122,3.2,3.3866,3.4367,3.4215,3.3437,3.2867,3.2398,3.2055,3.2758,3.3714,3.4726,3.5801,3.6697,3.7226,3.7559,3.7638,3.7344,3.7869,3.8164,3.7931,3.8223,3.8475,3.8592,3.8592,3.8592,3.8592,3.8592,3.8592,3.8592,3.8592,3.8592,3.8592,3.8592,3.8592,3.8592,3.8592,3.8592,3.8592,3.8592,3.8592,3.8592,3.8592,3.8592,3.8592,3.8592,3.8592,3.8592,3.8592,3.8592,3.8592,3.8592,3.8592,3.8592,3.8592,3.8592,3.8592,3.8592,3.8592,3.8592,3.8592,3.8592,3.8592,3.8592,3.8592,3.8592,3.8592,3.8592,3.8671,3.8983,3.9121,3.9414,4.0176,4.043,4.0606,4.0937,4.1035,4.0879,4.041,4.0352,4.0352,4.0352,4.0352,4.0215,3.9766,3.9726,3.9668,3.9589,3.9569,3.9609,3.9707,4.0117,4.0391,4.0489,4.0937,4.1328,4.1621,4.2128,4.2539,4.2774,4.3496,4.3769,4.3555,4.5187,4.5427,4.4436,4.5922,4.7167,2.4701,2.5826,2.7171,3.0789,3.1851,3.2351,3.3592,3.3688,3.3238,3.2168,3.1616,3.1245,3.0976,3.1992,3.3281,3.4492,3.5818,3.697,3.7772,3.8066,3.8125,3.7908,3.8299,3.8495,3.8223,3.8456,3.8671,3.8846,3.869,3.8592,3.8592,3.8592,3.8592,3.8592,3.8592,3.8592,3.8592,3.8768,3.8768,3.8592,3.8788,3.8866,3.8866,3.9081,3.9179,3.9179,0.0,3.9061,3.8866,3.8866,3.8768,3.8592,3.8592,3.871,3.8866,3.8866,3.9003,3.9179,3.9179,3.9042,3.8846,3.8651,3.8592,3.8592,3.8592,3.8592,3.8592,3.8592,3.8592,3.8631,3.8827,3.8866,3.8965,3.9394,3.9512,3.9687,4.0352,4.0508,4.0625,4.1113,4.1191,4.1113,4.084,4.0801,4.0801,4.0801,4.0801,4.0723,4.0507,4.0293,4.0098,3.9922,3.9902,3.9961,4.0156,4.0371,4.0664,4.1055,4.1152,4.1465,4.2031,4.248,4.2832,4.3087,4.3691,4.3906,4.3711,4.4679,4.5289,4.5546,4.6229,4.7738,2.5497,2.7407,2.9252,3.1205,3.2719,3.3542,3.2879,3.2617,3.2207,3.105,3.043,3.0131,3.0131,3.1265,3.2726,3.4372,3.5798,3.7146,3.8495,3.8631,3.8612,3.8671,3.8671,3.8671,3.8671,3.8729,3.8925,3.9258,3.8983,3.8768,3.8768,3.8768,3.8768,3.8768,3.8768,3.8768,3.8768,3.9121,3.9121,3.8768,3.9139,3.9297,3.9316,3.9707,3.9902,3.9902,3.9902,3.9668,3.9297,3.9297,3.91,3.8768,3.8768,3.9003,3.9297,3.9297,3.9551,3.9902,3.9902,3.9629,3.9219,3.8807,3.8631,3.8592,3.8592,3.8592,3.8612,3.8651,3.8671,3.8768,3.918,3.9297,3.9414,3.9863,3.998,4.0098,4.0508,4.0586,4.0703,4.1113,4.123,4.125,4.1211,4.123,4.1269,4.1269,4.123,4.1211,4.1269,4.0879,4.0469,4.0098,4.0059,4.0234,4.0645,4.0664,4.1016,4.1836,4.1543,4.1699,4.246,4.295,4.3184,4.3184,4.4023,4.4258,4.3789,4.4075,4.514,4.6907,4.7215,4.849,2.7945,2.8959,2.9986,3.289,3.2703,3.1886,3.2231,3.1753,3.1069,3.0464,2.9995,2.9696,2.9696,3.1064,3.2648,3.3997,3.5619,3.7264,3.8867,3.8807,3.8729,3.9062,3.9101,3.9101,3.9101,3.9434,3.9687,3.9766,3.9707,3.9668,3.9668,3.9668,3.9668,3.9668,3.9668,3.9668,3.9668,3.9746,3.9746,3.9687,3.9746,3.9766,3.9785,3.9863,3.9902,3.9902,3.9902,0.0,3.9766,3.9766,3.9726,3.9668,3.9668,3.9707,3.9766,3.9766,3.9824,3.9902,3.9902,3.9844,3.9707,3.9238,3.8885,3.8592,3.8592,3.8592,3.8671,3.9004,3.9101,3.9199,3.9668,3.9766,3.9883,4.0293,4.0391,4.0508,4.0996,4.1074,4.1094,4.1172,4.1465,4.1582,4.125,4.1484,4.1699,4.1699,4.1406,4.1328,4.1641,4.1328,4.1054,4.0976,4.0976,4.1152,4.1543,4.1582,4.1777,4.2265,4.2226,4.2441,4.2969,4.3379,4.3594,4.3594,4.4452,4.4686,4.4277,4.5994,4.6705,4.6459,4.8628,5.0219,2.8433,2.958,3.0579,3.3415,3.3078,3.1984,3.1603,3.0854,3.0092,2.9629,2.9565,2.9657,2.9877,3.0972,3.2168,3.3258,3.4313,3.5681,3.7617,3.7928,3.8241,3.9101,3.9414,3.9551,3.9551,3.9766,4.0078,4.0546,4.0585,4.039,3.9922,3.9902,3.9902,3.9902,4.0098,4.0117,3.9902,4.0117,4.0117,3.9902,4.0117,4.0196,4.0215,4.0468,4.0585,4.0585,4.0585,4.043,4.0196,4.0196,4.0098,3.9902,3.9902,4.0019,4.0196,4.0196,4.0371,4.0585,4.0585,4.041,4.0195,3.9942,3.9609,3.9237,3.9003,3.9081,3.9276,3.9219,3.9375,3.9668,4.0098,4.0196,4.0313,4.0762,4.0859,4.0937,4.1152,4.1367,4.1523,4.1523,4.1836,4.205,4.1855,4.1972,4.2109,4.2109,4.1953,4.1894,4.2089,4.1953,4.166,4.123,4.1387,4.1582,4.1777,4.1992,4.2285,4.2734,4.2538,4.2695,4.3379,4.3594,4.3808,4.4062,4.4686,4.4901,4.4726,4.6652,4.8003,4.8794,5.0046,5.1947,2.9069,3.0702,3.1941,3.3764,3.3512,3.248,3.1289,3.0288,2.952,2.9238,2.9473,2.9833,3.0137,3.0903,3.1782,3.2656,3.3285,3.4453,3.6658,3.7322,3.8008,3.9199,3.9824,4.0195,4.0195,4.0332,4.0762,4.1543,4.168,4.1328,4.0351,4.0312,4.0254,4.0176,4.0488,4.0508,4.0176,4.0508,4.0547,4.0312,4.0644,4.082,4.0918,4.1289,4.1465,4.1465,4.1465,4.125,4.0899,4.082,4.0586,4.0293,4.0195,4.0371,4.0645,4.0645,4.0879,4.1191,4.1191,4.0976,4.0645,4.0645,4.0312,3.9824,3.9453,3.9609,3.9844,3.957,3.9746,4.0137,4.0528,4.0645,4.0742,4.1113,4.1269,4.1308,4.1211,4.1562,4.1914,4.1816,4.2207,4.2519,4.2421,4.248,4.2538,4.2538,4.246,4.2441,4.2538,4.246,4.2148,4.1504,4.1738,4.2012,4.2187,4.2499,4.2851,4.3204,4.3066,4.3222,4.3828,4.3945,4.416,4.4531,4.5282,4.5711,4.5711,4.7628,4.9506,5.1286,5.1569,5.3454,3.1538,3.3626,3.4956,3.4695,3.3711,3.2559,3.1645,3.0503,2.9696,3.0,3.0117,3.017,3.0195,3.0903,3.1782,3.2656,3.3789,3.5332,3.7482,3.8184,3.8827,3.9726,4.0585,4.1074,4.1074,4.1738,4.2363,4.2891,4.3262,4.293,4.1699,4.1621,4.1445,4.1094,4.1113,4.1113,4.1074,4.1113,4.1308,4.1621,4.166,4.1855,4.2226,4.2265,4.2285,4.2285,4.2285,4.2265,0.0,4.1836,4.166,4.1582,4.123,4.1094,4.1133,4.1133,4.1152,4.1191,4.1191,4.1172,4.1133,4.1133,4.0585,3.9883,3.9844,3.9863,3.9961,4.0293,4.041,4.0547,4.1015,4.1133,4.1152,4.1191,4.1484,4.1641,4.1269,4.1797,4.2246,4.1875,4.2461,4.2891,4.248,4.2754,4.3048,4.3048,4.2656,4.2538,4.2989,4.2676,4.2382,4.2304,4.2324,4.2656,4.3457,4.3574,4.3613,4.3633,4.4334,4.4627,4.4355,4.4686,4.4901,4.494,4.6949,4.7999,4.7999,5.0248,5.1623,5.2207,5.3435,5.4408,3.1769,3.3475,3.4506,3.4674,3.357,3.2281,3.1645,3.0312,2.9375,3.0059,3.0195,3.0293,3.0581,3.0664,3.1016,3.1894,3.2246,3.3144,3.5293,3.6426,3.7637,3.9277,4.0507,4.1387,4.1875,4.2461,4.3105,4.3849,4.4023,4.3906,4.3398,4.2597,4.2089,4.1933,4.168,4.168,4.1933,4.1933,4.1992,4.2148,4.2148,4.2246,4.2402,4.2402,4.2402,4.2402,4.2402,4.2402,0.0,4.2226,4.2148,4.2148,4.1972,4.1933,4.1933,4.1933,4.1933,4.1933,4.1933,4.1758,4.1562,4.1562,4.1172,4.0644,4.0351,4.0449,4.0664,4.0528,4.0684,4.0957,4.1152,4.1562,4.1992,4.2285,4.2461,4.2441,4.2012,4.2402,4.2773,4.2598,4.3047,4.3398,4.3202,4.334,4.3457,4.3457,4.3301,4.3262,4.3437,4.3301,4.328,4.3554,4.3144,4.2949,4.3321,4.3808,4.4121,4.4121,4.4666,4.494,4.4764,4.6177,4.6502,4.5432,4.7586,4.8873,4.9207,5.1186,5.2205,5.2422,5.5122,5.5742,3.157,3.3311,3.4356,3.4635,3.3531,3.2261,3.1816,3.0435,2.9512,3.0254,3.0424,3.0508,3.084,3.0625,3.0684,3.1562,3.168,3.2344,3.4372,3.5762,3.7209,3.8984,4.0254,4.1367,4.2324,4.3164,4.3867,4.4355,4.4629,4.4668,4.4414,4.3495,4.287,4.2637,4.2324,4.2324,4.2597,4.2597,4.2656,4.2792,4.2792,4.2792,4.2792,4.2792,4.2792,4.2792,4.2792,4.2792,0.0,4.2656,4.2597,4.2577,4.246,4.2402,4.2402,4.2402,4.2402,4.2402,4.2402,4.2207,4.1992,4.1992,4.1777,4.1484,4.1152,4.1133,4.1133,4.0801,4.1035,4.1387,4.1387,4.1894,4.248,4.2812,4.3008,4.2969,4.2499,4.2871,4.3243,4.3126,4.3418,4.3711,4.3711,4.3711,4.3711,4.3711,4.3711,4.3711,4.3711,4.3711,4.3828,4.416,4.3769,4.3536,4.3652,4.4219,4.459,4.459,4.5098,4.533,4.5215,4.6829,4.7114,4.5903,4.8612,4.9908,4.9746,5.2766,5.404,5.3731,5.6828,5.7476,3.1263,3.3719,3.5276,3.4805,3.373,3.2691,3.2281,3.1147,3.0312,3.0796,3.0879,3.0879,3.0913,3.0893,3.1187,3.2061,3.2851,3.3988,3.5745,3.7092,3.8205,3.9101,3.9961,4.1016,4.2285,4.3963,4.4822,4.4433,4.5197,4.5314,4.4453,4.4394,4.3984,4.3126,4.3087,4.3087,4.3087,4.3087,4.3302,4.3691,4.3691,4.3691,4.3691,4.3691,4.3691,4.3691,4.3691,4.3691,0.0,4.3263,4.3087,4.3048,4.2577,4.2402,4.2402,4.2402,4.2402,4.2402,4.2402,4.2402,4.2402,4.2402,4.2402,4.2402,4.2382,4.1836,4.1191,4.1191,4.1484,4.1797,4.1797,4.2109,4.2402,4.2421,4.2754,4.2969,4.2499,4.3065,4.3574,4.3184,4.3418,4.3711,4.3711,4.3711,4.3711,4.3711,4.3711,4.3711,4.3711,4.3711,4.3711,4.3711,4.4121,4.4551,4.494,4.4998,4.4998,4.4998,4.582,4.6113,4.5705,4.6096,4.6311,4.6289,5.0292,5.1445,4.9616,5.5608,5.7855,5.6595,5.8498,5.9642,2.9953,3.2004,3.3531,3.3101,3.2242,3.1543,3.1699,3.0937,3.0332,3.0815,3.0913,3.0913,3.0913,3.0913,3.1382,3.2793,3.3226,3.4007,3.5747,3.7383,3.8789,3.9942,4.2148,4.3846,4.459,4.4609,4.4785,4.5256,4.5002,4.4963,4.5275,4.498,4.4686,4.4414,4.3828,4.3789,4.4373,4.4414,4.4452,4.4588,4.4316,4.418,4.416,4.3848,4.3711,4.3711,4.3711,4.3887,4.4141,4.3691,4.3691,4.3926,4.3476,4.3301,4.3301,4.3301,4.3301,4.3301,4.3301,4.3105,4.2871,4.2871,4.2676,4.2402,4.2402,4.2226,4.2031,4.2031,4.2109,4.2343,4.2949,4.3203,4.3379,4.3691,4.3887,4.3848,4.3398,4.3516,4.3672,4.3535,4.3613,4.3711,4.3711,4.3711,4.3711,4.3711,4.3711,4.3828,4.4141,4.418,4.4277,4.4549,4.4725,4.4744,4.4609,4.5137,4.5469,4.5469,4.5996,4.625,4.6113,4.7688,4.7953,4.6738,4.9494,5.085,5.0635,5.4192,5.719,5.9586,5.8195,5.832,2.9222,3.1077,3.2554,3.2437,3.191,3.1421,3.1489,3.0976,3.0561,3.084,3.0913,3.0913,3.0913,3.1016,3.1523,3.2754,3.3476,3.4378,3.5803,3.7637,3.9355,4.082,4.3222,4.4902,4.5176,4.5021,4.5119,4.5666,4.5197,4.5138,4.5666,4.541,4.5252,4.5252,4.457,4.4551,4.5254,4.5252,4.5252,4.5273,4.5,4.4785,4.4629,4.4315,4.4178,4.4178,4.4178,4.4277,0.0,4.4258,4.418,4.4121,4.4004,4.3965,4.3945,4.3769,4.3808,4.3945,4.3769,4.3535,4.3341,4.3341,4.3125,4.289,4.289,4.2656,4.2402,4.2402,4.2519,4.2793,4.334,4.3594,4.3769,4.4062,4.4141,4.4062,4.3769,4.3711,4.3711,4.3711,4.3711,4.3769,4.3926,4.3965,4.4023,4.4159,4.4178,4.4316,4.459,4.4629,4.4705,4.4979,4.5154,4.5156,4.4902,4.5392,4.5764,4.592,4.6152,4.6367,4.6523,4.7858,4.8144,4.719,5.0308,5.1406,5.0283,5.3776,5.7108,6.0153,5.9294,5.9418,0.0,3.0732,3.2046,3.2476,3.2281,3.1925,3.1528,3.1172,0.0,3.0913,3.0913,3.0932,3.103,3.1289,3.1704,3.2359,3.3746,3.5078,3.5999,3.8047,4.0078,4.1816,4.3516,4.4531,4.4531,4.5256,4.5705,4.5705,4.5666,4.5666,4.5705,4.5666,4.5686,4.5744,4.5293,4.5273,4.5686,4.5725,4.5744,4.5744,4.5705,4.5469,4.5057,4.5018,4.4998,0.0,4.4998,4.4803,4.4512,4.4862,4.453,4.3887,4.4297,4.4433,4.4394,4.3926,4.4023,4.4336,4.3867,4.3711,4.3711,4.3711,4.3711,4.3711,4.3711,4.3124,4.2499,4.2538,4.2832,4.3145,4.3184,4.3437,4.3711,4.3711,4.3711,4.3711,4.3711,4.3711,4.3711,4.3711,4.3711,4.3848,4.4316,4.4394,4.4551,4.494,4.5037,4.5057,4.5096,4.5115,4.5135,4.5135,4.5527,4.5783,4.5744,4.5744,4.59,4.6289,4.6328,4.6501,4.6892,4.697,4.7185,4.764,5.2055,5.2717,4.9469,5.4408,5.7578,5.9139,6.1504,6.2312,2.8757,0.0,2.9785,3.0229,3.0282,3.0361,0.0,3.0972,3.0913,3.0913,3.0913,3.1206,3.2168,3.1894,3.2289,3.471,3.5176,3.5762,3.7248,3.9883,4.2285,4.4042,4.5215,4.5859,4.5859,4.5764,4.5705,4.5705,4.5371,4.5312,4.5686,4.5371,4.5488,4.6133,4.5742,4.5588,4.5705,4.6018,4.6152,4.6152,4.5861,4.5646,4.5508,4.5154,4.4998,4.4998,4.4998,4.5156,4.5373,4.5096,4.5098,4.5217,4.4961,4.4862,4.4803,4.4394,4.4316,4.4336,4.3867,4.3711,4.3711,4.3711,4.3711,4.3711,4.3711,4.3574,4.3476,4.3828,4.375,4.3633,4.4004,4.3906,4.3711,4.3711,4.3711,4.3711,4.3711,4.3711,4.3711,4.3711,4.3711,4.3848,4.4316,4.4394,4.4551,4.494,4.5312,4.5644,4.5957,4.6267,4.6462,4.6462,4.656,4.6482,4.6191,4.6152,4.6191,4.6289,4.6579,4.6794,4.6911,4.7536,4.7949,4.8066,4.9807,5.2139,5.4947,5.6187,5.8481,6.1705,6.2331,6.2312,2.8348,2.9049,2.9609,3.0073,3.0346,3.06,3.1074,3.1035,3.0913,3.0913,3.0913,3.1187,3.2051,3.2289,3.2973,3.4824,3.5762,3.7012,3.9121,4.1328,4.3301,4.4822,4.5781,4.6308,4.6308,4.6094,4.5979,4.5979,4.5742,4.5723,4.5979,4.5742,4.5742,4.6037,4.5976,4.5979,4.5979,4.6191,4.6308,4.6308,4.6074,4.5979,4.5979,4.5723,4.5584,4.5584,4.5584,4.5644,4.5686,4.5625,4.5527,4.5371,4.5332,4.5312,4.5273,4.4822,4.4687,4.4629,4.418,4.3887,4.3711,4.3711,4.3711,4.3711,4.3711,4.3711,4.375,4.4004,4.3906,4.3769,4.4023,4.3887,4.375,4.3965,4.4023,4.4082,4.4277,4.4295,4.4237,4.4062,4.418,4.4394,4.4627,4.4844,4.5117,4.5547,4.582,4.6055,4.6269,4.6482,4.6618,4.6618,4.6618,4.6543,4.6328,4.6308,4.6308,4.6308,4.6677,4.6989,4.7226,4.8066,4.9128,5.0426,5.0882,5.2984,5.6797,5.7665,5.9293,6.1608,6.2495,6.2648,2.8162,2.9434,3.0449,3.0659,3.1055,3.1411,3.1411,3.1152,3.0913,3.0913,3.0952,3.1211,3.1957,3.2973,3.3984,3.4841,3.6562,3.8671,4.1133,4.2461,4.3673,4.494,4.582,4.6308,4.6308,4.6308,4.6308,4.6308,4.6308,4.6308,4.6308,4.6308,4.6133,4.5803,4.6113,4.6308,4.6308,4.6308,4.6308,4.6308,4.6308,4.6308,4.6308,4.6308,4.6308,4.6308,0.0,0.0,4.5822,4.6152,4.5857,4.5232,4.5646,4.5803,4.5744,4.5293,4.5096,4.5037,4.4629,4.4238,4.3906,4.3906,4.3906,4.3887,4.3828,4.3848,4.3887,4.3828,4.375,4.373,4.3867,4.3867,4.3906,4.4316,4.4453,4.4569,4.494,4.4998,4.4901,4.457,4.4764,4.5018,4.5096,4.543,4.5842,4.623,4.6367,4.6406,4.6406,4.6465,4.6465,4.6406,4.6406,4.6367,4.6308,4.6367,4.6367,4.6308,4.6736,4.7263,4.7874,4.8652,5.0348,5.3031,5.3114,5.4478,5.7232,5.8978,6.0176,6.0861,6.2616,6.3155,2.9068,3.0332,3.1074,3.0034,3.0405,3.0996,3.0996,3.0937,3.0913,3.0913,3.1172,3.2094,3.4375,3.4961,3.5937,3.8574,3.9552,4.0645,4.254,4.3282,4.4101,4.5432,4.5996,4.6308,4.6308,4.6308,4.6308,4.6308,4.6308,4.6308,4.6308,4.6308,4.6269,4.6211,4.6269,4.6308,4.6308,4.6308,4.6308,4.6308,4.6308,4.6308,4.6308,4.6308,4.6308,4.6308,0.0,4.6269,4.6211,4.6269,4.623,4.6113,4.6191,4.6211,4.6152,4.5723,4.5588,4.5529,4.5057,4.4862,4.4803,4.4803,4.4803,4.4744,4.4394,4.4531,4.4725,4.4394,4.4004,4.3867,4.4608,4.4551,4.4316,4.4375,4.4647,4.492,4.4998,4.4998,4.4979,4.492,4.4959,4.5115,4.5508,4.5646,4.5842,4.623,4.6579,4.6814,4.6814,4.7148,4.7246,4.6853,4.6814,4.6677,4.6328,4.6599,4.6658,4.6328,4.7051,4.8008,4.9156,4.9707,5.0942,5.2982,5.3447,5.5491,5.9179,6.0364,6.1616,6.2856,6.3647,6.3708,2.882,3.0176,3.1152,3.1045,3.1827,3.2633,3.2633,3.2422,3.2324,3.2574,3.2789,3.3476,3.5391,3.6289,3.7676,4.0469,4.125,4.1972,4.3242,4.3984,4.4726,4.5607,4.6076,4.6308,4.6308,4.6308,4.6308,4.6308,4.6308,4.6308,4.6308,4.6308,4.6308,4.6308,4.6308,4.6308,4.6308,4.6308,4.6308,4.6308,4.6308,4.6308,4.6308,4.6308,4.6308,4.6308,0.0,4.6308,4.6308,4.6308,4.6308,4.6308,4.6308,4.6308,4.625,4.5861,4.5705,4.5627,4.5154,4.4998,4.4998,4.4998,4.4998,4.4979,4.4783,4.4842,4.5018,4.5078,4.4766,4.4491,4.4901,4.4862,4.4805,4.5039,4.5234,4.543,4.5664,4.5701,4.5644,4.543,4.5545,4.5703,4.5705,4.5881,4.6074,4.6269,4.6465,4.6579,4.6579,4.6758,4.6816,4.6599,4.6775,4.6833,4.6638,4.7031,4.7402,4.7698,4.7832,4.9098,5.1721,5.2031,5.2555,5.3424,5.5747,5.7323,5.8073,6.0951,6.2954,6.4189,6.4718,6.467,2.8713,3.0025,3.1128,3.2085,3.3,3.3801,3.4274,3.3887,3.3578,3.4274,3.4564,3.5036,3.6113,3.7677,3.9493,4.1601,4.246,4.3124,4.3906,4.4666,4.5332,4.5803,4.6113,4.6308,4.6308,4.6308,4.6308,4.6308,4.6308,4.6308,4.6308,4.6308,4.6308,4.6308,4.6308,4.6308,4.6308,4.6308,4.6308,4.6308,4.6308,4.6308,4.6308,4.6308,4.6308,4.6308,4.6308,4.6308,4.6308,4.6308,4.6308,4.6308,4.6308,4.6308,4.6269,4.5937,4.5842,4.5803,4.5449,4.5311,4.5311,4.5311,4.5311,4.5291,4.5193,4.5232,4.535,4.5627,4.5508,4.5291,4.5174,4.5154,4.5254,4.5627,4.5764,4.594,4.623,4.6308,4.6211,4.59,4.6074,4.6191,4.59,4.6094,4.6308,4.6308,4.6308,4.6308,4.6308,4.6308,4.6348,4.6445,4.6716,4.7028,4.7341,4.7598,4.8206,4.9261,4.8808,5.0106,5.3649,5.3335,5.3799,5.533,5.782,5.891,5.8523,6.2108,6.4285,6.5079,6.551,6.5486,2.9456,3.0488,3.1206,3.2457,3.2535,3.2863,3.486,3.4336,3.3773,3.5039,3.5954,3.6658,3.7109,3.957,4.1699,4.2265,4.3437,4.4414,4.4842,4.5332,4.5803,4.6211,4.6289,4.6308,4.6308,4.6308,4.6308,4.6308,4.6308,4.6308,4.6308,4.6308,4.6308,4.6308,4.6308,4.6308,4.6308,4.6308,4.6308,4.6308,4.6308,4.6308,4.6308,4.6308,4.6308,4.6308,4.6308,4.6308,4.6308,4.6308,4.6308,4.6308,4.6308,4.6308,4.6289,4.6269,4.625,4.625,4.623,4.6211,4.6211,4.6211,4.6211,4.6133,4.5764,4.5898,4.6133,4.5803,4.5937,4.6113,4.5744,4.5646,4.5666,4.5686,4.5998,4.6269,4.6289,4.6308,4.6289,4.6269,4.6289,4.6289,4.6269,4.6289,4.6308,4.6308,4.6308,4.6308,4.6308,4.6308,4.6445,4.6814,4.6892,4.7399,4.8636,4.8402,4.8867,5.0566,4.9859,5.0719,5.3669,5.2003,5.3826,5.9818,5.8424,5.9611,6.357,6.4893,6.5582,6.5654,6.5678,6.5678,2.942,3.0752,3.1949,3.293,3.3457,3.4118,3.5452,3.5605,3.5879,3.7441,3.8027,3.8475,3.9142,4.0664,4.2031,4.2715,4.3711,4.4648,4.5332,4.5801,4.6133,4.6289,4.6308,4.6308,4.6308,4.6308,4.6308,4.6308,4.6308,4.6308,4.6308,4.6308,4.6308,4.6308,4.6308,4.6308,4.6308,4.6308,4.6308,4.6308,4.6308,4.6308,4.6308,4.6308,4.6308,4.6308,4.6308,4.6308,4.6308,4.6308,4.6308,4.6308,4.6308,4.6308,4.6308,4.6308,4.6308,4.6308,4.6308,4.6308,4.6308,4.6308,4.6308,4.6269,4.6113,4.6172,4.6269,4.6113,4.6172,4.6269,4.6113,4.6055,4.6055,4.6055,4.6191,4.6308,4.6308,4.6308,4.6308,4.6308,4.6308,4.6308,4.6308,4.6308,4.6308,4.6308,4.6308,4.6406,4.6638,4.6677,4.6833,4.7285,4.7835,4.846,4.9199,4.9375,5.0368,5.2516,5.0944,5.1197,5.4059,5.3723,5.524,5.8959,5.8238,5.946,6.2776,6.3197,6.4195,6.5702,6.6039,6.6015,2.9662,3.0972,3.2242,3.334,3.416,3.5039,3.6311,3.6758,3.742,3.922,3.9512,3.9687,4.0566,4.1211,4.1875,4.2734,4.3848,4.4844,4.5607,4.6057,4.6308,4.6308,4.6308,4.6308,4.6308,4.6308,4.6308,4.6308,4.6308,4.6308,4.6308,4.6308,4.6308,4.6308,4.6308,4.6308,4.6308,4.6308,4.6308,4.6308,4.6308,4.6308,4.6308,4.6308,4.6308,4.6308,4.6308,4.6308,4.6308,4.6308,4.6308,4.6308,4.6308,4.6308,4.6308,4.6308,4.6308,4.6308,4.6308,4.6308,4.6308,4.6308,4.6308,4.6308,4.6308,4.6308,4.6308,4.6308,4.6308,4.6308,4.6308,4.6308,4.6308,4.6308,4.6308,4.6308,4.6308,4.6308,4.6308,4.6308,4.6308,4.6308,4.6308,4.6308,4.6308,4.6308,4.6308,4.6465,4.6853,4.6911,4.7126,4.7737,4.8578,4.9258,4.9687,5.0117,5.1146,5.2925,5.163,5.2219,5.5393,5.5103,5.6065,5.8562,5.8256,5.942,6.2201,6.2338,6.3549,6.5727,6.6256,6.6304,3.0321,3.1191,3.1918,3.3649,3.4411,3.5293,3.7424,3.7599,3.793,4.0079,4.0215,4.0176,4.1035,4.1211,4.1484,4.2285,4.3866,4.5154,4.5646,4.6057,4.6308,4.6308,4.6308,4.6308,4.6308,4.6308,4.6308,4.6308,4.6308,4.6308,4.6308,4.6308,4.6308,4.6308,4.6308,4.6308,4.6308,4.6308,4.6308,4.6308,4.6308,4.6308,4.6308,4.6308,4.6308,4.6308,4.6308,4.6308,4.6308,4.6308,4.6308,4.6308,4.6308,4.6308,4.6308,4.6308,4.6308,4.6308,4.6308,4.6308,4.6308,4.6308,4.6308,4.6308,4.6308,4.6308,4.6308,4.6308,4.6308,4.6308,4.6308,4.6308,4.6308,4.6308,4.6308,4.6308,4.6308,4.6308,4.6308,4.6308,4.6308,4.6308,4.6308,4.6308,4.6308,4.6308,4.6308,4.6465,4.6853,4.6911,4.7243,4.8125,4.8981,4.9707,5.018,5.0566,5.0996,5.1406,5.1836,5.3867,5.7821,5.567,5.5996,5.9429,5.863,5.9644,6.2589,6.3142,6.4179,6.5702,6.6232,6.6472,2.9988,3.1387,3.2953,3.348,3.5296,3.7111,3.7738,3.8283,3.916,4.1035,4.1543,4.164,4.1621,4.1855,4.2246,4.2793,4.3848,4.4844,4.5588,4.6057,4.6308,4.6308,4.6308,4.6308,4.6308,4.6308,4.6308,4.6308,4.6308,4.6308,4.6308,4.6308,4.6308,4.6308,4.6308,4.6308,4.6308,4.6308,4.6308,4.6308,4.6308,4.6308,4.6308,4.6308,4.6308,4.6308,4.6308,4.6308,4.6308,4.6308,4.6308,4.6308,4.6308,4.6308,4.6308,4.6308,4.6308,4.6308,4.6308,4.6308,4.6308,4.6308,4.6308,4.6308,4.6308,4.6308,4.6308,4.6308,4.6308,4.6308,4.6308,4.6308,4.6308,4.6308,4.6308,4.6308,4.6308,4.6308,4.6308,4.6308,4.6308,4.6308,4.6308,4.6308,4.6308,4.6308,4.6308,4.6562,4.7285,4.7933,4.8496,4.9059,4.9648,5.0156,5.0586,5.0972,5.1874,5.3415,5.2622,5.3279,5.5921,5.4528,5.5565,5.9499,5.7888,5.8832,6.2589,6.2476,6.3339,6.5149,6.5678,6.5943,3.1499,3.2734,3.418,3.5215,3.6836,3.8418,3.9239,3.9863,4.0586,4.1797,4.2226,4.2382,4.2324,4.2363,4.2656,4.3476,4.4199,4.4941,4.5822,4.6152,4.6308,4.6308,4.6308,4.6308,4.6308,4.6308,4.6308,4.6308,4.6308,4.6308,4.6308,4.6308,4.6308,4.6308,4.6308,4.6308,4.6308,4.6308,4.6308,4.6308,4.6308,4.6308,4.6308,4.6308,4.6308,4.6308,4.6308,4.6308,4.6308,4.6308,4.6308,4.6308,4.6308,4.6308,4.6308,4.6308,4.6308,4.6308,4.6308,4.6308,4.6308,4.6308,4.6308,4.6308,4.6308,4.6308,4.6308,4.6308,4.6308,4.6308,4.6308,4.6308,4.6308,4.6308,4.6308,4.6308,4.6308,4.6308,4.6308,4.6308,4.6308,4.6308,4.6308,4.6308,4.6367,4.6501,4.6814,4.7246,4.7754,4.8617,4.916,4.9258,4.9961,5.0469,5.0547,5.1069,5.1994,5.3391,5.2757,5.3349,5.5621,5.4811,5.5675,5.8565,5.7983,5.9195,6.2267,6.2246,6.3035,6.4598,6.5366,6.5702,3.3906,3.4668,3.541,3.7908,3.8651,3.9296,4.1289,4.1777,4.1933,4.2363,4.2499,4.2656,4.3145,4.2871,4.2987,4.4258,4.4805,4.5311,4.6074,4.623,4.625,4.625,4.625,4.6269,4.6289,4.6308,4.6308,4.6308,4.6308,4.6308,4.6308,4.6308,4.6308,4.6308,4.6308,4.6308,4.6308,4.6308,4.6308,4.6308,4.6308,4.6308,4.6308,4.6308,4.6308,4.6308,4.6308,4.6308,4.6308,4.6308,4.6308,4.6308,4.6308,4.6308,4.6308,4.6308,4.6308,4.6308,4.6308,4.6308,4.6308,4.6308,4.6308,4.6308,4.6308,4.6308,4.6308,4.6308,4.6308,4.6308,4.6308,4.6308,4.6308,4.6308,4.6308,4.6308,4.6308,4.6308,4.6308,4.6308,4.6328,4.6348,4.6308,4.6367,4.6562,4.697,4.7712,4.8281,4.832,4.9039,4.9433,4.907,5.0102,5.0644,5.0238,5.0894,5.1538,5.2017,5.2383,5.3688,5.6107,5.5974,5.6308,5.7381,5.8961,6.0451,6.1785,6.2432,6.3197,6.4117,6.5149,6.5654,3.3047,3.4453,3.6096,3.7658,3.9083,4.0312,4.1152,4.1562,4.2012,4.2794,4.3203,4.3574,4.4023,4.4043,4.418,4.4764,4.5254,4.5488,4.5311,4.5586,4.5842,4.5842,4.5842,4.5959,4.6269,4.6308,4.6308,4.6308,4.6308,4.6308,4.6308,4.6308,4.6308,4.6308,4.6308,4.6308,4.6308,4.6308,4.6308,4.6308,4.6308,4.6308,4.6308,4.6308,4.6308,4.6308,4.6308,4.6308,4.6308,4.6308,4.6308,4.6308,4.6308,4.6308,4.6308,4.6308,4.6308,4.6308,4.6308,4.6308,4.6308,4.6308,4.6308,4.6308,4.6308,4.6308,4.6308,4.6308,4.6308,4.6308,4.6308,4.6308,4.6308,4.6308,4.6308,4.6308,4.6308,4.6308,4.6308,4.6308,4.654,4.6677,4.6367,4.6855,4.7441,4.7871,4.8379,4.8871,4.9176,4.9707,5.0023,4.9926,5.0449,5.0644,5.0238,5.0644,5.1113,5.1519,5.1636,5.2384,5.3984,5.5819,5.7693,5.956,6.1132,6.1891,6.1785,6.3119,6.3882,6.4117,6.4766,6.5318,3.3887,3.5312,3.6797,3.8673,4.0,4.0937,4.1406,4.1797,4.2226,4.2676,4.3105,4.3535,4.3984,4.4258,4.4531,4.494,4.5391,4.5627,4.5371,4.5703,4.582,4.541,4.5547,4.5783,4.5976,4.5996,4.6094,4.6289,4.6308,4.6308,4.6308,4.6308,4.6308,4.6308,4.6308,4.6308,4.6308,4.6308,4.6308,4.6308,4.6308,4.6308,4.6308,4.6308,4.6308,4.6308,4.6308,4.6308,4.6308,4.6308,4.6308,4.6308,4.6308,4.6308,4.6308,4.6308,4.6308,4.6308,4.6308,4.6308,4.6308,4.6308,4.6308,4.6308,4.6308,4.6308,4.6308,4.6308,4.6308,4.6308,4.6308,4.6308,4.6308,4.6308,4.6308,4.6308,4.6308,4.6308,4.6308,4.6308,4.6618,4.6833,4.6618,4.7503,4.8363,4.8746,4.9219,4.9594,4.9805,5.0063,5.0199,5.0199,5.0547,5.0723,5.0508,5.1055,5.1601,5.1987,5.2246,5.3207,5.5105,5.7405,5.9165,6.029,6.18,6.2827,6.3287,6.41,6.4357,6.4117,6.4646,6.5197,3.4612,3.6211,3.7596,3.9903,4.084,4.1289,4.1621,4.1953,4.2226,4.2382,4.2832,4.3321,4.3633,4.4082,4.4531,4.494,4.5391,4.5666,4.5588,4.5937,4.5937,4.5215,4.5449,4.5725,4.5803,4.5803,4.594,4.6269,4.6308,4.6308,4.6308,4.6308,4.6308,4.6308,4.6308,4.6308,4.6308,4.6308,4.6308,4.6308,4.6308,4.6308,4.6308,4.6308,4.6308,4.6308,4.6308,4.6308,4.6308,4.6308,4.6308,4.6308,4.6308,4.6308,4.6308,4.6308,4.6308,4.6308,4.6308,4.6308,4.6308,4.6308,4.6308,4.6308,4.6308,4.6308,4.6308,4.6308,4.6308,4.6308,4.6308,4.6308,4.6308,4.6308,4.6308,4.6308,4.6308,4.6308,4.6308,4.6308,4.6618,4.697,4.7204,4.8167,4.9086,4.9625,5.0058,5.0336,5.0414,5.0356,5.0278,5.0219,5.0547,5.0742,5.0605,5.1445,5.2148,5.2578,5.3363,5.482,5.7007,5.9165,6.0485,6.0827,6.2345,6.3757,6.5053,6.4934,6.4718,6.4381,6.4742,6.5197,3.2793,3.5739,3.869,4.0137,4.084,4.1211,4.1269,4.1328,4.1562,4.2265,4.3046,4.3633,4.3691,4.4082,4.4531,4.494,4.5391,4.5568,4.5154,4.5488,4.5744,4.5627,4.5666,4.5842,4.6191,4.6211,4.623,4.6289,4.6308,4.6308,4.6308,4.6308,4.6308,4.6308,4.6308,4.6308,4.6308,4.6308,4.6308,4.6308,4.6308,4.6308,4.6308,4.6308,4.6308,4.6308,4.6308,4.6308,4.6308,4.6308,4.6308,4.6308,4.6308,4.6308,4.6308,4.6308,4.6308,4.6308,4.6308,4.6308,4.6308,4.6308,4.6308,4.6308,4.6308,4.6308,4.6308,4.6308,4.6308,4.6308,4.6308,4.6308,4.6308,4.6308,4.6308,4.6308,4.6308,4.6308,4.6308,4.6308,4.6618,4.7263,4.8421,4.8796,4.9281,5.0449,5.0683,5.0859,5.1187,5.0957,5.0586,5.0238,5.0547,5.0484,4.9742,5.0796,5.1675,5.2129,5.432,5.6017,5.7061,5.9165,6.1164,6.2943,6.4506,6.5379,6.5606,6.5149,6.5079,6.5486,6.5079,6.5197,3.3496,3.6033,3.8281,4.0059,4.0664,4.0801,4.0801,4.1191,4.1504,4.1367,4.2207,4.3105,4.3613,4.4082,4.4453,4.4648,4.5256,4.5549,4.5057,4.5605,4.584,4.5371,4.5549,4.5764,4.5959,4.5979,4.6055,4.6289,4.6308,4.6308,4.6308,4.6308,4.6308,4.6308,4.6308,4.6308,4.6308,4.6308,4.6308,4.6308,4.6308,4.6308,4.6289,4.6076,4.6074,4.6308,4.6308,4.6308,4.6308,4.6308,4.6308,4.6308,4.6308,4.6308,4.6308,4.6308,4.6308,4.6308,4.6308,4.6308,4.6308,4.6308,4.6308,4.6308,4.6308,4.6308,4.6308,4.6308,4.6308,4.6308,4.6308,4.6308,4.6308,4.6308,4.6308,4.6308,4.6308,4.6308,4.6367,4.6579,4.6992,4.7617,4.8695,4.9324,4.9887,5.0683,5.0972,5.1206,5.1382,5.0859,5.0469,5.0527,5.0273,5.0113,5.0211,5.1191,5.1973,5.2402,5.5047,5.6738,5.7082,5.9165,6.1152,6.2934,6.3316,6.4242,6.5702,6.5151,6.4459,6.3639,6.4791,6.4722,3.3789,3.5664,3.7148,3.9298,4.0001,4.0235,4.045,4.0996,4.1328,4.0801,4.1504,4.248,4.3242,4.375,4.4141,4.4355,4.5019,4.543,4.5215,4.584,4.6074,4.5408,4.5644,4.5861,4.5861,4.5861,4.5998,4.6289,4.6308,4.6308,4.6308,4.6308,4.6308,4.6308,4.6308,4.6308,4.6308,4.6308,4.6308,4.6308,4.6308,4.6308,4.6289,4.5881,4.5861,4.6152,4.6152,4.6152,4.6152,4.625,4.6308,4.6308,4.6308,4.6308,4.6308,4.6308,4.6308,4.6308,4.6308,4.6308,4.6308,4.6308,4.6308,4.6308,4.6308,4.6308,4.6308,4.6308,4.6308,4.6308,4.6308,4.6308,4.6308,4.6308,4.6308,4.6308,4.6308,4.6308,4.6387,4.6677,4.7207,4.7835,4.8578,4.9535,5.0336,5.0742,5.1148,5.1362,5.1265,5.0625,5.0278,5.0449,4.9976,4.9941,5.0586,5.1621,5.2383,5.2695,5.5484,5.7103,5.7103,5.8542,6.0354,6.2542,6.1054,6.1781,6.4895,6.4658,6.3501,6.1613,6.3874,6.3849,3.2339,3.3867,3.5351,3.7502,3.8654,3.9492,4.0313,4.0547,4.0664,4.1074,4.1523,4.1973,4.2382,4.2851,4.3438,4.4258,4.4766,4.5174,4.5607,4.6016,4.6289,4.623,4.625,4.6269,4.6269,4.6269,4.6289,4.6308,4.6308,4.6308,4.6308,4.6308,4.6308,4.6308,4.6308,4.6308,4.6308,4.6308,4.6308,4.6308,4.6308,4.6308,4.6289,4.5881,4.5705,4.5725,4.5725,4.5725,4.5764,4.6133,4.6308,4.6308,4.6308,4.6308,4.6308,4.6308,4.6308,4.6308,4.6308,4.6308,4.6308,4.6308,4.6308,4.6308,4.6308,4.6308,4.6308,4.6308,4.6308,4.6308,4.6308,4.6308,4.6308,4.6308,4.6308,4.6308,4.6308,4.6308,4.6308,4.6328,4.7012,4.7737,4.8164,4.9316,5.0336,5.0742,5.1148,5.1265,5.0898,5.0449,5.0039,4.9605,4.9922,5.018,5.0238,5.1719,5.2695,5.2715,5.5484,5.7103,5.7103,5.6841,5.8576,6.2519,5.8274,5.825,6.2754,6.3238,6.2421,6.0446,6.2039,6.243,3.1528,3.2715,3.4004,3.6135,3.7344,3.8125,3.8712,3.9493,4.0234,4.0664,4.1094,4.1621,4.2285,4.2538,4.2734,4.3065,4.3944,4.4687,4.4824,4.5683,4.6308,4.6308,4.6308,4.6308,4.6308,4.6308,4.6308,4.6308,4.6308,4.6308,4.6308,4.6308,4.6308,4.6308,4.6308,4.6308,4.6308,4.6308,4.6308,4.6308,4.6308,4.6152,4.59,4.5449,4.5117,4.4884,4.4884,4.5176,4.5725,4.6133,4.6308,4.6308,4.6308,4.6308,4.6308,4.6308,4.6308,4.6308,4.6308,4.6308,4.6308,4.6308,4.6308,4.6308,4.6308,4.6308,4.6308,4.6308,4.6308,4.6308,4.6308,4.6308,4.6308,4.6308,4.6308,4.6308,4.6308,4.6482,4.6677,4.6677,4.7402,4.8125,4.8578,4.9515,5.0258,5.0395,5.0762,5.0879,5.0449,5.0019,4.9805,4.9941,4.9844,4.998,5.0527,5.1641,5.2422,5.2695,5.5225,5.6123,5.4789,5.5618,5.6647,5.7748,5.6752,5.8334,6.2589,6.2796,6.1846,5.993,6.3474,6.3781,3.0801,3.1816,3.316,3.5432,3.623,3.6836,3.8419,3.9141,3.9706,4.0566,4.1094,4.1621,4.2285,4.2402,4.2402,4.2402,4.3378,4.416,4.416,4.5273,4.6094,4.6094,4.6211,4.6308,4.6308,4.6308,4.6308,4.6308,4.6308,4.6308,4.6308,4.6308,4.6308,4.6308,4.6308,4.6308,4.6308,4.6308,4.6308,4.6308,4.6152,4.5959,4.5686,4.5078,4.4725,4.4609,4.4609,4.4941,4.5488,4.5918,4.6172,4.6308,4.6308,4.6308,4.6308,4.6308,4.6308,4.6308,4.6308,4.6308,4.6308,4.6308,4.6308,4.6308,4.6308,4.6308,4.6308,4.6308,4.6308,4.6308,4.6308,4.6308,4.6308,4.6308,4.6308,4.6348,4.6462,4.6716,4.6872,4.6716,4.7497,4.8301,4.8617,4.9398,5.0058,5.0375,5.0625,5.0703,5.0453,5.0019,4.9863,5.018,4.9922,5.0074,5.0937,5.1797,5.248,5.2891,5.4519,5.4829,5.346,5.4188,5.4841,5.5283,5.5246,5.6969,6.0482,6.066,6.0075,5.8839,6.264,6.3899,0.0,0.0,0.0,3.5237,3.5237,3.5644,3.9454,3.9375,3.9003,4.0781,4.1445,4.1875,4.2324,4.2402,4.2402,4.2402,4.3144,4.373,4.3711,4.4844,4.5705,4.5705,4.6035,4.6289,4.6289,4.6289,4.6289,4.6308,4.6308,4.6308,4.6308,4.6308,4.6308,4.6308,4.6308,4.6308,4.6308,4.6308,4.6308,4.6289,4.59,4.5686,4.5646,4.4785,4.4629,4.4979,4.4979,4.4998,4.5057,4.5508,4.5959,4.6308,4.6308,4.6308,4.6308,4.6308,4.6308,4.6308,4.6308,4.6308,4.6308,4.6308,4.6308,4.6308,4.6308,4.6308,4.6308,4.6308,4.6308,4.6308,4.6308,4.6308,4.6308,4.6308,4.6308,4.6404,4.6833,4.6911,4.6794,4.6426,4.7383,4.8242,4.8262,4.8961,4.982,5.0683,5.0781,5.0781,5.0781,5.043,5.0219,5.0238,5.0258,5.0566,5.1382,5.2202,5.2891,5.3345,5.339,5.3345,5.3345,5.2544,5.3205,5.555,5.3692,5.3862,5.6227,5.6825,5.7128,5.7252,5.9438,6.2585,2.9735,0.0,0.0,0.0,0.0,0.0,3.5859,3.6289,3.7049,3.9707,4.0078,4.043,4.2089,4.2402,4.2402,4.2402,4.3417,4.4082,4.375,4.5098,4.6037,4.5725,4.5803,4.5861,4.5861,4.5861,4.5998,4.6289,4.6308,4.6308,4.6308,4.6308,4.6308,4.6308,4.6308,4.6308,4.6308,4.6308,4.6308,4.6289,4.59,4.5508,4.5195,4.4648,4.4453,4.457,4.457,4.4922,4.5549,4.5957,4.6191,4.6308,4.6308,4.6308,4.6308,4.6308,4.6308,4.6308,4.6308,4.6308,4.6308,4.6308,4.6308,4.6308,4.6308,4.6308,4.6308,4.6308,4.6308,4.6308,4.6308,4.6308,4.6367,4.6658,4.6501,4.6504,4.7246,4.7126,4.7048,4.7556,4.8454,4.9258,4.959,4.9867,5.0176,5.0723,5.025,4.9976,5.0312,5.0278,5.041,5.0991,5.1367,5.1777,5.2305,5.2553,5.2754,5.2891,5.2622,5.2466,5.2466,5.2232,5.2424,5.3087,5.3176,5.3524,5.4199,5.6148,5.7903,5.9487,6.2696,6.4039,2.9897,3.0483,3.1328,3.2094,0.0,0.0,3.5508,3.584,3.6504,3.9531,4.0078,4.0469,4.1875,4.2285,4.2402,4.2402,4.3358,4.4023,4.375,4.4902,4.5683,4.543,4.5744,4.5881,4.5725,4.5705,4.5881,4.6269,4.6133,4.6113,4.6289,4.6308,4.6308,4.6308,4.6308,4.6308,4.6308,4.6308,4.6211,4.6035,4.5605,4.5176,4.4725,4.4316,4.4219,4.4414,4.459,4.5039,4.5725,4.6133,4.6308,4.6308,4.6308,4.6308,4.6308,4.6308,4.6308,4.6308,4.6308,4.6308,4.6308,4.6308,4.6308,4.6308,4.6308,4.6308,4.6308,4.6308,4.6308,4.6308,4.6308,4.6308,4.6367,4.6579,4.6599,4.6758,4.7464,4.7383,4.7344,4.7851,4.8516,4.9156,4.9805,4.9902,5.0176,5.0933,5.062,5.0445,5.0942,5.1001,5.1255,5.187,5.2031,5.2349,5.293,5.2812,5.2793,5.2969,5.2447,5.2192,5.2344,5.2192,5.2271,5.2642,5.313,5.3916,5.4955,5.6405,5.8648,6.1625,6.3548,6.3922,3.0469,3.0981,3.1899,3.2992,3.2847,0.0,3.6584,3.6526,3.6584,3.9356,4.0254,4.0722,4.1269,4.1738,4.205,4.205,4.289,4.3594,4.3691,4.4452,4.4979,4.494,4.5664,4.6016,4.5666,4.5666,4.5881,4.6269,4.5979,4.594,4.6289,4.6308,4.6308,4.6308,4.6308,4.6289,4.623,4.623,4.6016,4.5627,4.5135,4.4766,4.4394,4.3965,4.4043,4.4492,4.4901,4.5351,4.5803,4.6152,4.6308,4.6308,4.6308,4.6308,4.6308,4.6308,4.6308,4.6308,4.6308,4.6308,4.6308,4.6308,4.6308,4.6308,4.6308,4.6308,4.6308,4.6308,4.6308,4.6308,4.6367,4.6367,4.6387,4.6484,4.6736,4.7107,4.764,4.7679,4.764,4.7796,4.8105,4.8613,4.943,4.9605,5.0054,5.1226,5.1362,5.1519,5.2036,5.2153,5.2305,5.2734,5.25,5.2622,5.3384,5.2988,5.2871,5.3287,5.2505,5.2168,5.2558,5.2305,5.2544,5.3306,5.3404,5.4779,5.7476,5.7476,5.9386,6.3038,6.2841,6.2746,3.1372,3.1879,3.2519,0.0,3.3098,0.0,3.3789,3.4157,3.4841,3.6133,3.6465,3.6973,3.84,3.9298,3.9824,3.9824,4.1406,4.289,4.3613,4.4452,4.4881,4.457,4.494,4.5213,4.5135,4.5469,4.5881,4.6269,4.623,4.6211,4.6289,4.6308,4.6308,4.6308,4.6308,4.6133,4.5822,4.5822,4.5586,4.5135,4.4726,4.4473,4.4394,4.4316,4.4492,4.4901,4.5371,4.5803,4.6191,4.6269,4.6308,4.6308,4.6308,4.6308,4.6308,4.6308,4.6308,4.6308,4.6308,4.6308,4.6308,4.6308,4.6308,4.6308,4.6308,4.6308,4.6308,4.6308,4.6308,4.6387,4.6697,4.6794,4.695,4.7676,4.7637,4.7679,4.8483,4.8089,4.7891,4.8922,4.9195,4.941,4.9961,5.0332,5.0738,5.1323,5.1109,5.1211,5.2017,5.2383,5.2754,5.3209,5.3476,5.3685,5.3861,5.3164,5.2754,5.2832,5.2007,5.1577,5.1655,5.2241,5.2656,5.2832,5.3535,5.5789,5.968,5.968,6.012,6.0924,6.2541,6.1311,3.2012,0.0,0.0,3.2793,0.0,0.0,0.0,3.4098,3.4544,3.6052,3.5996,3.6135,3.7638,3.8087,3.8535,3.9414,4.0625,4.1758,4.2637,4.3887,4.4629,4.4414,4.4766,4.492,4.4705,4.4902,4.5215,4.5603,4.6055,4.6308,4.6308,4.6308,4.6308,4.6308,4.6308,4.6191,4.5996,4.5803,4.5449,4.4998,4.459,4.4277,4.4062,4.4297,4.4629,4.5037,4.551,4.594,4.6308,4.6308,4.6308,4.6308,4.6308,4.6308,4.6308,4.6308,4.6308,4.6308,4.6308,4.6308,4.6308,4.6308,4.6308,4.6308,4.6308,4.6308,4.6308,4.6308,4.6445,4.6638,4.6853,4.7224,4.7595,4.7832,4.8223,4.8613,4.8855,4.8714,4.8808,4.9687,4.9844,4.998,5.041,5.0664,5.0957,5.1343,5.1597,5.1914,5.2344,5.2969,5.3432,5.3672,5.3861,5.392,5.3711,5.3086,5.2617,5.2402,5.1772,5.1499,5.1738,5.2363,5.2885,5.3334,5.3783,5.5537,5.8697,5.8697,5.9802,6.184,6.0561,5.8825,0.0,0.0,0.0,0.0,0.0,3.3785,0.0,0.0,0.0,3.623,3.6057,3.5959,3.7092,3.709,3.7363,3.8691,3.959,4.0313,4.0859,4.25,4.3711,4.3887,4.4315,4.453,4.4297,4.4199,4.4394,4.4959,4.5508,4.5918,4.6172,4.625,4.6308,4.6308,4.6308,4.6269,4.6191,4.5861,4.5432,4.4881,4.4551,4.4199,4.3848,4.4219,4.4668,4.5154,4.5549,4.594,4.6308,4.6308,4.6308,4.6308,4.6308,4.6308,4.6308,4.6308,4.6308,4.6308,4.6308,4.6308,4.6308,4.6308,4.6308,4.6308,4.6308,4.6308,4.6328,4.6406,4.6638,4.697,4.7204,4.7812,4.8301,4.8148,4.8828,4.943,4.9203,4.9336,4.9664,5.0195,5.0317,5.0434,5.0742,5.0801,5.0918,5.1245,5.2031,5.2598,5.2598,5.3412,5.3998,5.3998,5.392,5.375,5.3424,5.2915,5.2441,5.2134,5.1655,5.1558,5.1933,5.2363,5.3008,5.3861,5.3881,5.4947,5.7103,5.6698,5.8472,6.2105,5.8364,5.6577,0.0,0.0,0.0,0.0,3.515,0.0,0.0,0.0,3.4492,3.3949,0.0,3.4469,3.4961,0.0,0.0,3.5332,3.7283,3.8592,3.791,3.961,4.123,4.2012,4.2833,4.3438,4.375,4.3458,4.373,4.492,4.4394,4.4512,4.5705,4.6094,4.6308,4.6308,4.6308,4.6133,4.5764,4.5725,4.5295,4.4473,4.4414,4.4375,4.4316,4.4375,4.4844,4.5627,4.5666,4.594,4.6308,4.6308,4.6308,4.6308,4.6308,4.6308,4.6308,4.6308,4.6308,4.6308,4.6308,4.6308,4.6308,4.6308,4.6308,4.6308,4.6308,4.6308,4.6387,4.6736,4.6872,4.7165,4.8363,4.8757,4.8988,4.973,4.9707,4.9586,4.9984,4.9766,4.9742,5.0566,5.0742,5.0742,5.0801,5.0801,5.082,5.0859,5.1601,5.2173,5.2173,5.3242,5.3998,5.3998,5.3672,5.3443,5.3384,5.2642,5.2153,5.2114,5.1655,5.1421,5.1479,5.1914,5.2583,5.3443,5.3463,5.4678,5.7103,5.5254,5.5537,5.7803,5.729,5.6081,0.0,0.0,0.0,0.0,0.0,0.0,3.4141,0.0,3.4004,0.0,0.0,0.0,0.0,0.0,0.0,0.0,3.6387,3.7051,3.697,3.793,3.9239,4.084,4.1367,4.1855,4.2539,4.2441,4.2773,4.3808,4.3555,4.3906,4.5234,4.5703,4.6055,4.6289,4.6308,4.6211,4.6035,4.5822,4.551,4.5158,4.4883,4.4744,4.4766,4.5019,4.5469,4.6055,4.6289,4.6482,4.6638,4.6638,4.6501,4.6308,4.6308,4.6308,4.6328,4.656,4.6482,4.6328,4.656,4.6638,4.6638,4.6638,4.6482,4.6308,4.6308,4.6641,4.709,4.7266,4.7656,4.8242,4.9043,4.9457,4.975,5.0121,5.0234,5.0254,5.0219,5.0063,5.0019,5.0371,5.0449,5.0527,5.0762,5.0801,5.0801,5.0801,5.1113,5.1426,5.1655,5.2402,5.2988,5.3217,5.3086,5.2915,5.2661,5.231,5.1973,5.1719,5.1499,5.1519,5.1797,5.1992,5.2505,5.3365,5.341,5.4029,5.5305,5.4411,5.4437,5.5305,5.5305,5.4843,3.4844,0.0,0.0,0.0,0.0,0.0,0.0,0.0,0.0,0.0,0.0,0.0,0.0,0.0,3.4723,3.551,0.0,3.5918,3.6111,3.6619,3.7656,3.9571,4.0215,4.0742,4.1387,4.1133,4.1426,4.2657,4.2422,4.293,4.4549,4.5195,4.5703,4.6113,4.623,4.6308,4.6308,4.5996,4.5803,4.5686,4.5351,4.5174,4.5193,4.5527,4.5998,4.6462,4.6658,4.6794,4.6892,4.6775,4.656,4.6308,4.6308,4.6367,4.6482,4.6794,4.6794,4.6699,4.6989,4.7087,4.7067,4.695,4.6697,4.6445,4.6328,4.6894,4.762,4.7737,4.8402,4.9203,4.9703,5.0117,5.0395,5.0488,5.0586,5.0586,5.0391,5.018,5.0063,5.018,5.0199,5.0336,5.0723,5.0703,5.0664,5.0781,5.0898,5.1069,5.1362,5.1914,5.2383,5.2676,5.2598,5.2422,5.2109,5.1973,5.1777,5.1421,5.1401,5.1558,5.1894,5.1914,5.2271,5.3013,5.315,5.3424,5.3848,5.3939,5.3998,5.3998,5.3998,5.3998,0.0,0.0,0.0,3.5059,0.0,0.0,0.0,0.0,3.5215,0.0,0.0,0.0,0.0,3.5644,3.5215,3.4805,3.5117,0.0,0.0,3.5491,3.6526,3.7834,3.9473,4.0508,4.0547,3.9433,3.9589,4.168,4.0703,4.1094,4.3613,4.4549,4.5254,4.5705,4.6094,4.6308,4.6308,4.6289,4.6074,4.5705,4.5686,4.5666,4.5686,4.5686,4.6133,4.6872,4.6484,4.654,4.6872,4.6484,4.6308,4.6308,4.6308,4.654,4.6892,4.6911,4.7187,4.7561,4.7581,4.7581,4.75,4.7048,4.6892,4.6814,4.6426,4.6894,4.7679,4.8066,4.8805,4.9683,5.0547,5.0781,5.0879,5.1265,5.0781,5.0336,5.0703,5.0113,4.9644,5.0121,5.0199,5.0336,5.0723,5.0469,5.0356,5.0742,5.1128,5.1382,5.1401,5.2143,5.2695,5.2715,5.2344,5.209,5.2114,5.1675,5.1421,5.1401,5.1401,5.1421,5.1421,5.1421,5.1636,5.2134,5.2519,5.2949,5.3404,5.3808,5.3998,5.3998,5.3998,5.3998,0.0,0.0,3.6914,3.6208,0.0,0.0,0.0,0.0,0.0,0.0,0.0,0.0,0.0,3.5488,3.5351,3.5176,3.4821,3.4469,0.0,3.4785,3.551,3.6526,3.8184,3.9238,3.9238,3.8846,3.9139,4.043,4.0371,4.1191,4.3204,4.4373,4.5234,4.5686,4.6094,4.6308,4.6308,4.6308,4.623,4.6094,4.6367,4.6482,4.6482,4.6819,4.7112,4.7363,4.75,4.7302,4.6911,4.709,4.6816,4.6308,4.6308,4.6738,4.7363,4.7363,4.7461,4.764,4.7891,4.7812,4.762,4.7734,4.7751,4.7695,4.7266,4.8187,4.9277,4.9098,4.9683,5.0449,5.0723,5.0605,5.0453,5.0566,5.0156,4.9762,4.9898,4.9492,4.9144,4.9301,4.9551,4.9762,4.9918,5.0078,5.0336,5.0742,5.0683,5.0703,5.0976,5.1269,5.1538,5.1811,5.1714,5.166,5.166,5.1499,5.1401,5.1401,5.1401,5.1401,5.1401,5.1401,5.1616,5.2095,5.2226,5.2681,5.341,5.3541,5.373,5.3998,5.3998,5.3998,3.7187,3.7402,0.0,3.701,3.668,0.0,3.5019,0.0,0.0,0.0,0.0,0.0,0.0,3.572,3.5391,3.5391,3.4665,3.4114,0.0,3.4587,3.5273,3.6152,3.7381,3.826,3.8573,3.8319,3.869,4.0019,3.9941,4.0723,4.2734,4.3905,4.4824,4.543,4.5996,4.6308,4.6308,4.6308,4.6308,4.6308,4.6716,4.6911,4.6931,4.7539,4.7793,4.7812,4.8086,4.7868,4.738,4.7519,4.7168,4.6501,4.6501,4.6953,4.76,4.76,4.7796,4.8089,4.8363,4.8284,4.8109,4.8359,4.846,4.8402,4.8148,4.9066,5.0141,4.9844,5.0371,5.0972,5.084,5.0605,5.0395,5.0238,4.9844,4.9508,4.9508,4.918,4.8913,4.8913,4.9125,4.9336,4.9469,4.9766,5.0137,5.0723,5.0586,5.0547,5.0952,5.1011,5.1109,5.1382,5.1401,5.1401,5.1401,5.1401,5.1401,5.1401,5.1401,5.1401,5.1401,5.1401,5.1538,5.1855,5.2012,5.2447,5.315,5.3306,5.3619,5.3998,5.3998,5.3998]}]]